<?xml version="1.0" encoding="UTF-8" standalone="no" ?>
<gpx xmlns="http://www.topografix.com/GPX/1/1" xmlns:xsi="http://www.w3.org/2001/XMLSchema-instance" xsi:schemaLocation="http://www.topografix.com/GPX/1/1 http://www.topografix.com/GPX/1/1/gpx.xsd" version="1.1" creator="VisuGPX - https://www.visugpx.com">
  <metadata>
    <name>Lustou</name>
    <desc><![CDATA[Lustou depuis col d\'azet]]></desc>
  </metadata>
  <trk>
    <name><![CDATA[17 MARS 2014 lustou]]></name>
    <trkseg>
      <trkpt lat="42.78971" lon="0.37998">
        <ele>1485.37</ele>
        <time>2014-03-17T04:47:15Z</time>
      </trkpt>
      <trkpt lat="42.78971" lon="0.37999">
        <ele>1485.85</ele>
        <time>2014-03-17T04:47:28Z</time>
      </trkpt>
      <trkpt lat="42.78968" lon="0.37999">
        <ele>1487.3</ele>
        <time>2014-03-17T04:47:44Z</time>
      </trkpt>
      <trkpt lat="42.78969" lon="0.38">
        <ele>1488.26</ele>
        <time>2014-03-17T04:47:57Z</time>
      </trkpt>
      <trkpt lat="42.78968" lon="0.38">
        <ele>1489.7</ele>
        <time>2014-03-17T04:48:11Z</time>
      </trkpt>
      <trkpt lat="42.78966" lon="0.37999">
        <ele>1490.18</ele>
        <time>2014-03-17T04:48:24Z</time>
      </trkpt>
      <trkpt lat="42.78967" lon="0.38">
        <ele>1491.62</ele>
        <time>2014-03-17T04:48:50Z</time>
      </trkpt>
      <trkpt lat="42.78953" lon="0.37996">
        <ele>1492.58</ele>
        <time>2014-03-17T04:49:06Z</time>
      </trkpt>
      <trkpt lat="42.78939" lon="0.37996">
        <ele>1493.06</ele>
        <time>2014-03-17T04:49:16Z</time>
      </trkpt>
      <trkpt lat="42.78923" lon="0.3799">
        <ele>1495.47</ele>
        <time>2014-03-17T04:49:31Z</time>
      </trkpt>
      <trkpt lat="42.78908" lon="0.37993">
        <ele>1496.91</ele>
        <time>2014-03-17T04:49:45Z</time>
      </trkpt>
      <trkpt lat="42.78903" lon="0.37995">
        <ele>1497.87</ele>
        <time>2014-03-17T04:49:50Z</time>
      </trkpt>
      <trkpt lat="42.78894" lon="0.38">
        <ele>1499.79</ele>
        <time>2014-03-17T04:50:00Z</time>
      </trkpt>
      <trkpt lat="42.78881" lon="0.38011">
        <ele>1502.2</ele>
        <time>2014-03-17T04:50:15Z</time>
      </trkpt>
      <trkpt lat="42.7887" lon="0.38021">
        <ele>1505.08</ele>
        <time>2014-03-17T04:50:30Z</time>
      </trkpt>
      <trkpt lat="42.7886" lon="0.38032">
        <ele>1507.97</ele>
        <time>2014-03-17T04:50:43Z</time>
      </trkpt>
      <trkpt lat="42.7885" lon="0.38041">
        <ele>1510.85</ele>
        <time>2014-03-17T04:50:56Z</time>
      </trkpt>
      <trkpt lat="42.78841" lon="0.38049">
        <ele>1514.21</ele>
        <time>2014-03-17T04:51:08Z</time>
      </trkpt>
      <trkpt lat="42.7884" lon="0.38049">
        <ele>1514.69</ele>
        <time>2014-03-17T04:51:09Z</time>
      </trkpt>
      <trkpt lat="42.78834" lon="0.38057">
        <ele>1517.58</ele>
        <time>2014-03-17T04:51:20Z</time>
      </trkpt>
      <trkpt lat="42.78827" lon="0.38066">
        <ele>1520.46</ele>
        <time>2014-03-17T04:51:32Z</time>
      </trkpt>
      <trkpt lat="42.78819" lon="0.38075">
        <ele>1523.35</ele>
        <time>2014-03-17T04:51:45Z</time>
      </trkpt>
      <trkpt lat="42.78813" lon="0.38083">
        <ele>1526.23</ele>
        <time>2014-03-17T04:51:56Z</time>
      </trkpt>
      <trkpt lat="42.78812" lon="0.38085">
        <ele>1526.71</ele>
        <time>2014-03-17T04:51:58Z</time>
      </trkpt>
      <trkpt lat="42.78804" lon="0.38091">
        <ele>1530.08</ele>
        <time>2014-03-17T04:52:09Z</time>
      </trkpt>
      <trkpt lat="42.78799" lon="0.38093">
        <ele>1531.04</ele>
        <time>2014-03-17T04:52:15Z</time>
      </trkpt>
      <trkpt lat="42.78787" lon="0.38092">
        <ele>1534.4</ele>
        <time>2014-03-17T04:52:30Z</time>
      </trkpt>
      <trkpt lat="42.78778" lon="0.38091">
        <ele>1537.29</ele>
        <time>2014-03-17T04:52:42Z</time>
      </trkpt>
      <trkpt lat="42.78769" lon="0.3809">
        <ele>1540.65</ele>
        <time>2014-03-17T04:52:54Z</time>
      </trkpt>
      <trkpt lat="42.7876" lon="0.3809">
        <ele>1543.53</ele>
        <time>2014-03-17T04:53:05Z</time>
      </trkpt>
      <trkpt lat="42.78749" lon="0.38091">
        <ele>1546.9</ele>
        <time>2014-03-17T04:53:19Z</time>
      </trkpt>
      <trkpt lat="42.7874" lon="0.38091">
        <ele>1549.78</ele>
        <time>2014-03-17T04:53:32Z</time>
      </trkpt>
      <trkpt lat="42.7873" lon="0.3809">
        <ele>1553.15</ele>
        <time>2014-03-17T04:53:45Z</time>
      </trkpt>
      <trkpt lat="42.7872" lon="0.3809">
        <ele>1556.03</ele>
        <time>2014-03-17T04:53:59Z</time>
      </trkpt>
      <trkpt lat="42.78712" lon="0.38091">
        <ele>1559.4</ele>
        <time>2014-03-17T04:54:11Z</time>
      </trkpt>
      <trkpt lat="42.78703" lon="0.38092">
        <ele>1562.28</ele>
        <time>2014-03-17T04:54:24Z</time>
      </trkpt>
      <trkpt lat="42.78697" lon="0.38092">
        <ele>1564.68</ele>
        <time>2014-03-17T04:54:38Z</time>
      </trkpt>
      <trkpt lat="42.78687" lon="0.38092">
        <ele>1567.57</ele>
        <time>2014-03-17T04:54:51Z</time>
      </trkpt>
      <trkpt lat="42.7868" lon="0.38092">
        <ele>1570.93</ele>
        <time>2014-03-17T04:55:03Z</time>
      </trkpt>
      <trkpt lat="42.78671" lon="0.38092">
        <ele>1574.3</ele>
        <time>2014-03-17T04:55:16Z</time>
      </trkpt>
      <trkpt lat="42.78667" lon="0.38093">
        <ele>1576.7</ele>
        <time>2014-03-17T04:55:32Z</time>
      </trkpt>
      <trkpt lat="42.78659" lon="0.38094">
        <ele>1580.06</ele>
        <time>2014-03-17T04:55:44Z</time>
      </trkpt>
      <trkpt lat="42.78654" lon="0.38095">
        <ele>1581.99</ele>
        <time>2014-03-17T04:55:52Z</time>
      </trkpt>
      <trkpt lat="42.78648" lon="0.38095">
        <ele>1584.39</ele>
        <time>2014-03-17T04:56:06Z</time>
      </trkpt>
      <trkpt lat="42.78643" lon="0.38094">
        <ele>1587.27</ele>
        <time>2014-03-17T04:56:25Z</time>
      </trkpt>
      <trkpt lat="42.78635" lon="0.38093">
        <ele>1590.16</ele>
        <time>2014-03-17T04:56:36Z</time>
      </trkpt>
      <trkpt lat="42.78629" lon="0.38091">
        <ele>1593.52</ele>
        <time>2014-03-17T04:56:46Z</time>
      </trkpt>
      <trkpt lat="42.78621" lon="0.38091">
        <ele>1596.89</ele>
        <time>2014-03-17T04:56:58Z</time>
      </trkpt>
      <trkpt lat="42.78613" lon="0.38091">
        <ele>1600.25</ele>
        <time>2014-03-17T04:57:11Z</time>
      </trkpt>
      <trkpt lat="42.78605" lon="0.38089">
        <ele>1603.14</ele>
        <time>2014-03-17T04:57:24Z</time>
      </trkpt>
      <trkpt lat="42.78596" lon="0.38086">
        <ele>1606.5</ele>
        <time>2014-03-17T04:57:36Z</time>
      </trkpt>
      <trkpt lat="42.78594" lon="0.38085">
        <ele>1607.46</ele>
        <time>2014-03-17T04:57:40Z</time>
      </trkpt>
      <trkpt lat="42.78588" lon="0.38081">
        <ele>1610.83</ele>
        <time>2014-03-17T04:57:51Z</time>
      </trkpt>
      <trkpt lat="42.78582" lon="0.38074">
        <ele>1613.71</ele>
        <time>2014-03-17T04:58:04Z</time>
      </trkpt>
      <trkpt lat="42.78576" lon="0.38068">
        <ele>1617.07</ele>
        <time>2014-03-17T04:58:17Z</time>
      </trkpt>
      <trkpt lat="42.78569" lon="0.38068">
        <ele>1619.96</ele>
        <time>2014-03-17T04:58:29Z</time>
      </trkpt>
      <trkpt lat="42.78561" lon="0.38071">
        <ele>1623.32</ele>
        <time>2014-03-17T04:58:42Z</time>
      </trkpt>
      <trkpt lat="42.78556" lon="0.38076">
        <ele>1626.21</ele>
        <time>2014-03-17T04:58:53Z</time>
      </trkpt>
      <trkpt lat="42.78549" lon="0.38074">
        <ele>1629.09</ele>
        <time>2014-03-17T04:59:05Z</time>
      </trkpt>
      <trkpt lat="42.78546" lon="0.38067">
        <ele>1631.98</ele>
        <time>2014-03-17T04:59:16Z</time>
      </trkpt>
      <trkpt lat="42.78545" lon="0.38064">
        <ele>1633.42</ele>
        <time>2014-03-17T04:59:30Z</time>
      </trkpt>
      <trkpt lat="42.78546" lon="0.38064">
        <ele>1633.42</ele>
        <time>2014-03-17T04:59:45Z</time>
      </trkpt>
      <trkpt lat="42.78543" lon="0.38066">
        <ele>1634.38</ele>
        <time>2014-03-17T04:59:59Z</time>
      </trkpt>
      <trkpt lat="42.78541" lon="0.38068">
        <ele>1635.82</ele>
        <time>2014-03-17T05:00:05Z</time>
      </trkpt>
      <trkpt lat="42.78536" lon="0.38074">
        <ele>1637.74</ele>
        <time>2014-03-17T05:00:17Z</time>
      </trkpt>
      <trkpt lat="42.78531" lon="0.38081">
        <ele>1640.15</ele>
        <time>2014-03-17T05:00:29Z</time>
      </trkpt>
      <trkpt lat="42.78529" lon="0.38093">
        <ele>1642.55</ele>
        <time>2014-03-17T05:00:40Z</time>
      </trkpt>
      <trkpt lat="42.78529" lon="0.38095">
        <ele>1644.47</ele>
        <time>2014-03-17T05:00:53Z</time>
      </trkpt>
      <trkpt lat="42.78529" lon="0.38096">
        <ele>1644.47</ele>
        <time>2014-03-17T05:01:07Z</time>
      </trkpt>
      <trkpt lat="42.78528" lon="0.38098">
        <ele>1643.51</ele>
        <time>2014-03-17T05:01:22Z</time>
      </trkpt>
      <trkpt lat="42.78527" lon="0.38097">
        <ele>1644.47</ele>
        <time>2014-03-17T05:01:41Z</time>
      </trkpt>
      <trkpt lat="42.78527" lon="0.38098">
        <ele>1646.88</ele>
        <time>2014-03-17T05:02:15Z</time>
      </trkpt>
      <trkpt lat="42.78528" lon="0.38097">
        <ele>1648.32</ele>
        <time>2014-03-17T05:02:27Z</time>
      </trkpt>
      <trkpt lat="42.78528" lon="0.38096">
        <ele>1648.8</ele>
        <time>2014-03-17T05:02:39Z</time>
      </trkpt>
      <trkpt lat="42.78529" lon="0.38095">
        <ele>1649.28</ele>
        <time>2014-03-17T05:02:57Z</time>
      </trkpt>
      <trkpt lat="42.78528" lon="0.38098">
        <ele>1650.72</ele>
        <time>2014-03-17T05:03:05Z</time>
      </trkpt>
      <trkpt lat="42.78528" lon="0.38101">
        <ele>1651.2</ele>
        <time>2014-03-17T05:03:07Z</time>
      </trkpt>
      <trkpt lat="42.7852" lon="0.38099">
        <ele>1654.09</ele>
        <time>2014-03-17T05:03:19Z</time>
      </trkpt>
      <trkpt lat="42.78513" lon="0.38093">
        <ele>1656.97</ele>
        <time>2014-03-17T05:03:30Z</time>
      </trkpt>
      <trkpt lat="42.78506" lon="0.38081">
        <ele>1660.33</ele>
        <time>2014-03-17T05:03:44Z</time>
      </trkpt>
      <trkpt lat="42.78506" lon="0.38078">
        <ele>1660.81</ele>
        <time>2014-03-17T05:03:47Z</time>
      </trkpt>
      <trkpt lat="42.78504" lon="0.38066">
        <ele>1663.22</ele>
        <time>2014-03-17T05:04:00Z</time>
      </trkpt>
      <trkpt lat="42.78502" lon="0.38059">
        <ele>1666.1</ele>
        <time>2014-03-17T05:04:18Z</time>
      </trkpt>
      <trkpt lat="42.78501" lon="0.3806">
        <ele>1666.58</ele>
        <time>2014-03-17T05:04:20Z</time>
      </trkpt>
      <trkpt lat="42.78494" lon="0.38068">
        <ele>1669.47</ele>
        <time>2014-03-17T05:04:33Z</time>
      </trkpt>
      <trkpt lat="42.78489" lon="0.38074">
        <ele>1672.35</ele>
        <time>2014-03-17T05:04:44Z</time>
      </trkpt>
      <trkpt lat="42.78484" lon="0.38083">
        <ele>1674.75</ele>
        <time>2014-03-17T05:04:56Z</time>
      </trkpt>
      <trkpt lat="42.78479" lon="0.38091">
        <ele>1677.64</ele>
        <time>2014-03-17T05:05:07Z</time>
      </trkpt>
      <trkpt lat="42.78474" lon="0.38102">
        <ele>1680.04</ele>
        <time>2014-03-17T05:05:19Z</time>
      </trkpt>
      <trkpt lat="42.78469" lon="0.38113">
        <ele>1682.93</ele>
        <time>2014-03-17T05:05:32Z</time>
      </trkpt>
      <trkpt lat="42.78466" lon="0.38121">
        <ele>1685.33</ele>
        <time>2014-03-17T05:05:43Z</time>
      </trkpt>
      <trkpt lat="42.78461" lon="0.38131">
        <ele>1688.21</ele>
        <time>2014-03-17T05:05:56Z</time>
      </trkpt>
      <trkpt lat="42.78458" lon="0.38141">
        <ele>1691.1</ele>
        <time>2014-03-17T05:06:08Z</time>
      </trkpt>
      <trkpt lat="42.78456" lon="0.38155">
        <ele>1693.98</ele>
        <time>2014-03-17T05:06:21Z</time>
      </trkpt>
      <trkpt lat="42.78453" lon="0.38164">
        <ele>1697.34</ele>
        <time>2014-03-17T05:06:34Z</time>
      </trkpt>
      <trkpt lat="42.78449" lon="0.38176">
        <ele>1700.23</ele>
        <time>2014-03-17T05:06:48Z</time>
      </trkpt>
      <trkpt lat="42.78447" lon="0.38182">
        <ele>1702.15</ele>
        <time>2014-03-17T05:06:57Z</time>
      </trkpt>
      <trkpt lat="42.78443" lon="0.38191">
        <ele>1705.04</ele>
        <time>2014-03-17T05:07:10Z</time>
      </trkpt>
      <trkpt lat="42.7844" lon="0.38197">
        <ele>1707.44</ele>
        <time>2014-03-17T05:07:21Z</time>
      </trkpt>
      <trkpt lat="42.78437" lon="0.38201">
        <ele>1708.88</ele>
        <time>2014-03-17T05:07:27Z</time>
      </trkpt>
      <trkpt lat="42.78432" lon="0.38209">
        <ele>1711.76</ele>
        <time>2014-03-17T05:07:40Z</time>
      </trkpt>
      <trkpt lat="42.78426" lon="0.38218">
        <ele>1714.65</ele>
        <time>2014-03-17T05:07:53Z</time>
      </trkpt>
      <trkpt lat="42.7842" lon="0.38226">
        <ele>1717.53</ele>
        <time>2014-03-17T05:08:06Z</time>
      </trkpt>
      <trkpt lat="42.78418" lon="0.38226">
        <ele>1718.01</ele>
        <time>2014-03-17T05:08:26Z</time>
      </trkpt>
      <trkpt lat="42.78413" lon="0.38236">
        <ele>1721.38</ele>
        <time>2014-03-17T05:08:38Z</time>
      </trkpt>
      <trkpt lat="42.78408" lon="0.38245">
        <ele>1723.78</ele>
        <time>2014-03-17T05:08:50Z</time>
      </trkpt>
      <trkpt lat="42.78403" lon="0.38253">
        <ele>1726.18</ele>
        <time>2014-03-17T05:09:01Z</time>
      </trkpt>
      <trkpt lat="42.78395" lon="0.38261">
        <ele>1729.55</ele>
        <time>2014-03-17T05:09:14Z</time>
      </trkpt>
      <trkpt lat="42.78387" lon="0.38264">
        <ele>1732.43</ele>
        <time>2014-03-17T05:09:26Z</time>
      </trkpt>
      <trkpt lat="42.78378" lon="0.38262">
        <ele>1735.32</ele>
        <time>2014-03-17T05:09:39Z</time>
      </trkpt>
      <trkpt lat="42.7837" lon="0.38259">
        <ele>1738.2</ele>
        <time>2014-03-17T05:09:52Z</time>
      </trkpt>
      <trkpt lat="42.78361" lon="0.38257">
        <ele>1741.08</ele>
        <time>2014-03-17T05:10:05Z</time>
      </trkpt>
      <trkpt lat="42.78353" lon="0.38254">
        <ele>1744.45</ele>
        <time>2014-03-17T05:10:20Z</time>
      </trkpt>
      <trkpt lat="42.78346" lon="0.38251">
        <ele>1747.33</ele>
        <time>2014-03-17T05:10:33Z</time>
      </trkpt>
      <trkpt lat="42.78338" lon="0.38246">
        <ele>1749.74</ele>
        <time>2014-03-17T05:10:45Z</time>
      </trkpt>
      <trkpt lat="42.78328" lon="0.38239">
        <ele>1752.62</ele>
        <time>2014-03-17T05:10:59Z</time>
      </trkpt>
      <trkpt lat="42.78319" lon="0.38231">
        <ele>1755.5</ele>
        <time>2014-03-17T05:11:13Z</time>
      </trkpt>
      <trkpt lat="42.7831" lon="0.38222">
        <ele>1756.95</ele>
        <time>2014-03-17T05:11:26Z</time>
      </trkpt>
      <trkpt lat="42.78299" lon="0.38211">
        <ele>1759.35</ele>
        <time>2014-03-17T05:11:41Z</time>
      </trkpt>
      <trkpt lat="42.78288" lon="0.38201">
        <ele>1761.27</ele>
        <time>2014-03-17T05:11:56Z</time>
      </trkpt>
      <trkpt lat="42.78276" lon="0.38191">
        <ele>1763.68</ele>
        <time>2014-03-17T05:12:11Z</time>
      </trkpt>
      <trkpt lat="42.78265" lon="0.38184">
        <ele>1765.6</ele>
        <time>2014-03-17T05:12:24Z</time>
      </trkpt>
      <trkpt lat="42.78252" lon="0.38181">
        <ele>1767.04</ele>
        <time>2014-03-17T05:12:38Z</time>
      </trkpt>
      <trkpt lat="42.78236" lon="0.38179">
        <ele>1769.44</ele>
        <time>2014-03-17T05:12:55Z</time>
      </trkpt>
      <trkpt lat="42.78222" lon="0.38179">
        <ele>1771.37</ele>
        <time>2014-03-17T05:13:10Z</time>
      </trkpt>
      <trkpt lat="42.78207" lon="0.38181">
        <ele>1773.29</ele>
        <time>2014-03-17T05:13:26Z</time>
      </trkpt>
      <trkpt lat="42.78196" lon="0.38181">
        <ele>1775.69</ele>
        <time>2014-03-17T05:13:39Z</time>
      </trkpt>
      <trkpt lat="42.78186" lon="0.3818">
        <ele>1779.06</ele>
        <time>2014-03-17T05:13:52Z</time>
      </trkpt>
      <trkpt lat="42.78177" lon="0.38174">
        <ele>1781.46</ele>
        <time>2014-03-17T05:14:05Z</time>
      </trkpt>
      <trkpt lat="42.78168" lon="0.38173">
        <ele>1783.86</ele>
        <time>2014-03-17T05:14:17Z</time>
      </trkpt>
      <trkpt lat="42.78159" lon="0.38168">
        <ele>1786.75</ele>
        <time>2014-03-17T05:14:30Z</time>
      </trkpt>
      <trkpt lat="42.78153" lon="0.38162">
        <ele>1789.63</ele>
        <time>2014-03-17T05:14:42Z</time>
      </trkpt>
      <trkpt lat="42.7815" lon="0.38151">
        <ele>1792.52</ele>
        <time>2014-03-17T05:14:55Z</time>
      </trkpt>
      <trkpt lat="42.78148" lon="0.38141">
        <ele>1794.92</ele>
        <time>2014-03-17T05:15:08Z</time>
      </trkpt>
      <trkpt lat="42.78147" lon="0.38137">
        <ele>1796.36</ele>
        <time>2014-03-17T05:15:13Z</time>
      </trkpt>
      <trkpt lat="42.78147" lon="0.38132">
        <ele>1797.8</ele>
        <time>2014-03-17T05:15:18Z</time>
      </trkpt>
      <trkpt lat="42.78145" lon="0.38124">
        <ele>1799.73</ele>
        <time>2014-03-17T05:15:29Z</time>
      </trkpt>
      <trkpt lat="42.78143" lon="0.38112">
        <ele>1802.61</ele>
        <time>2014-03-17T05:15:43Z</time>
      </trkpt>
      <trkpt lat="42.78142" lon="0.381">
        <ele>1805.49</ele>
        <time>2014-03-17T05:15:57Z</time>
      </trkpt>
      <trkpt lat="42.78142" lon="0.38097">
        <ele>1805.49</ele>
        <time>2014-03-17T05:15:59Z</time>
      </trkpt>
      <trkpt lat="42.7814" lon="0.38084">
        <ele>1807.9</ele>
        <time>2014-03-17T05:16:13Z</time>
      </trkpt>
      <trkpt lat="42.78137" lon="0.38073">
        <ele>1810.3</ele>
        <time>2014-03-17T05:16:26Z</time>
      </trkpt>
      <trkpt lat="42.78135" lon="0.38065">
        <ele>1812.7</ele>
        <time>2014-03-17T05:16:38Z</time>
      </trkpt>
      <trkpt lat="42.78134" lon="0.3805">
        <ele>1814.63</ele>
        <time>2014-03-17T05:16:53Z</time>
      </trkpt>
      <trkpt lat="42.78129" lon="0.38036">
        <ele>1817.03</ele>
        <time>2014-03-17T05:17:07Z</time>
      </trkpt>
      <trkpt lat="42.78126" lon="0.38031">
        <ele>1818.47</ele>
        <time>2014-03-17T05:17:15Z</time>
      </trkpt>
      <trkpt lat="42.78119" lon="0.38021">
        <ele>1820.87</ele>
        <time>2014-03-17T05:17:27Z</time>
      </trkpt>
      <trkpt lat="42.78114" lon="0.38013">
        <ele>1823.28</ele>
        <time>2014-03-17T05:17:40Z</time>
      </trkpt>
      <trkpt lat="42.78112" lon="0.38011">
        <ele>1824.24</ele>
        <time>2014-03-17T05:17:44Z</time>
      </trkpt>
      <trkpt lat="42.78105" lon="0.38008">
        <ele>1825.68</ele>
        <time>2014-03-17T05:17:55Z</time>
      </trkpt>
      <trkpt lat="42.781" lon="0.38006">
        <ele>1827.6</ele>
        <time>2014-03-17T05:18:06Z</time>
      </trkpt>
      <trkpt lat="42.78094" lon="0.38002">
        <ele>1830.49</ele>
        <time>2014-03-17T05:18:18Z</time>
      </trkpt>
      <trkpt lat="42.78087" lon="0.37997">
        <ele>1832.41</ele>
        <time>2014-03-17T05:18:31Z</time>
      </trkpt>
      <trkpt lat="42.78082" lon="0.37993">
        <ele>1835.29</ele>
        <time>2014-03-17T05:18:45Z</time>
      </trkpt>
      <trkpt lat="42.78076" lon="0.37989">
        <ele>1837.22</ele>
        <time>2014-03-17T05:18:57Z</time>
      </trkpt>
      <trkpt lat="42.78069" lon="0.37985">
        <ele>1839.14</ele>
        <time>2014-03-17T05:19:08Z</time>
      </trkpt>
      <trkpt lat="42.78061" lon="0.37983">
        <ele>1841.54</ele>
        <time>2014-03-17T05:19:22Z</time>
      </trkpt>
      <trkpt lat="42.78052" lon="0.37982">
        <ele>1844.43</ele>
        <time>2014-03-17T05:19:37Z</time>
      </trkpt>
      <trkpt lat="42.78048" lon="0.37981">
        <ele>1845.39</ele>
        <time>2014-03-17T05:19:50Z</time>
      </trkpt>
      <trkpt lat="42.78043" lon="0.37979">
        <ele>1848.27</ele>
        <time>2014-03-17T05:20:04Z</time>
      </trkpt>
      <trkpt lat="42.78036" lon="0.37978">
        <ele>1850.19</ele>
        <time>2014-03-17T05:20:17Z</time>
      </trkpt>
      <trkpt lat="42.7803" lon="0.37979">
        <ele>1852.6</ele>
        <time>2014-03-17T05:20:29Z</time>
      </trkpt>
      <trkpt lat="42.78025" lon="0.37981">
        <ele>1854.04</ele>
        <time>2014-03-17T05:20:39Z</time>
      </trkpt>
      <trkpt lat="42.78028" lon="0.37975">
        <ele>1855.48</ele>
        <time>2014-03-17T05:20:51Z</time>
      </trkpt>
      <trkpt lat="42.78033" lon="0.37973">
        <ele>1856.44</ele>
        <time>2014-03-17T05:21:05Z</time>
      </trkpt>
      <trkpt lat="42.78034" lon="0.37974">
        <ele>1855</ele>
        <time>2014-03-17T05:21:08Z</time>
      </trkpt>
      <trkpt lat="42.78032" lon="0.37975">
        <ele>1855.96</ele>
        <time>2014-03-17T05:21:33Z</time>
      </trkpt>
      <trkpt lat="42.78033" lon="0.37975">
        <ele>1857.89</ele>
        <time>2014-03-17T05:21:57Z</time>
      </trkpt>
      <trkpt lat="42.78034" lon="0.37975">
        <ele>1857.89</ele>
        <time>2014-03-17T05:22:14Z</time>
      </trkpt>
      <trkpt lat="42.78031" lon="0.37976">
        <ele>1858.85</ele>
        <time>2014-03-17T05:22:35Z</time>
      </trkpt>
      <trkpt lat="42.78031" lon="0.37971">
        <ele>1859.81</ele>
        <time>2014-03-17T05:23:07Z</time>
      </trkpt>
      <trkpt lat="42.78033" lon="0.37974">
        <ele>1860.29</ele>
        <time>2014-03-17T05:23:28Z</time>
      </trkpt>
      <trkpt lat="42.7804" lon="0.37969">
        <ele>1861.73</ele>
        <time>2014-03-17T05:23:39Z</time>
      </trkpt>
      <trkpt lat="42.78051" lon="0.3796">
        <ele>1864.13</ele>
        <time>2014-03-17T05:23:52Z</time>
      </trkpt>
      <trkpt lat="42.78052" lon="0.37959">
        <ele>1864.13</ele>
        <time>2014-03-17T05:23:53Z</time>
      </trkpt>
      <trkpt lat="42.78062" lon="0.37951">
        <ele>1866.54</ele>
        <time>2014-03-17T05:24:07Z</time>
      </trkpt>
      <trkpt lat="42.78064" lon="0.37949">
        <ele>1867.02</ele>
        <time>2014-03-17T05:24:10Z</time>
      </trkpt>
      <trkpt lat="42.78074" lon="0.37941">
        <ele>1868.94</ele>
        <time>2014-03-17T05:24:23Z</time>
      </trkpt>
      <trkpt lat="42.78084" lon="0.37934">
        <ele>1870.86</ele>
        <time>2014-03-17T05:24:35Z</time>
      </trkpt>
      <trkpt lat="42.78094" lon="0.37928">
        <ele>1873.27</ele>
        <time>2014-03-17T05:24:49Z</time>
      </trkpt>
      <trkpt lat="42.78104" lon="0.37925">
        <ele>1875.67</ele>
        <time>2014-03-17T05:25:01Z</time>
      </trkpt>
      <trkpt lat="42.78114" lon="0.37915">
        <ele>1877.59</ele>
        <time>2014-03-17T05:25:14Z</time>
      </trkpt>
      <trkpt lat="42.78118" lon="0.37905">
        <ele>1880.96</ele>
        <time>2014-03-17T05:25:27Z</time>
      </trkpt>
      <trkpt lat="42.78117" lon="0.37903">
        <ele>1881.44</ele>
        <time>2014-03-17T05:25:28Z</time>
      </trkpt>
      <trkpt lat="42.78115" lon="0.379">
        <ele>1881.92</ele>
        <time>2014-03-17T05:25:32Z</time>
      </trkpt>
      <trkpt lat="42.78102" lon="0.37897">
        <ele>1884.32</ele>
        <time>2014-03-17T05:25:46Z</time>
      </trkpt>
      <trkpt lat="42.78091" lon="0.37895">
        <ele>1886.72</ele>
        <time>2014-03-17T05:25:59Z</time>
      </trkpt>
      <trkpt lat="42.78086" lon="0.37895">
        <ele>1887.69</ele>
        <time>2014-03-17T05:26:16Z</time>
      </trkpt>
      <trkpt lat="42.78073" lon="0.37894">
        <ele>1889.61</ele>
        <time>2014-03-17T05:26:29Z</time>
      </trkpt>
      <trkpt lat="42.78059" lon="0.37894">
        <ele>1891.53</ele>
        <time>2014-03-17T05:26:43Z</time>
      </trkpt>
      <trkpt lat="42.78045" lon="0.37895">
        <ele>1893.93</ele>
        <time>2014-03-17T05:26:59Z</time>
      </trkpt>
      <trkpt lat="42.78031" lon="0.37895">
        <ele>1896.34</ele>
        <time>2014-03-17T05:27:14Z</time>
      </trkpt>
      <trkpt lat="42.78019" lon="0.37894">
        <ele>1898.26</ele>
        <time>2014-03-17T05:27:28Z</time>
      </trkpt>
      <trkpt lat="42.78007" lon="0.37892">
        <ele>1900.66</ele>
        <time>2014-03-17T05:27:41Z</time>
      </trkpt>
      <trkpt lat="42.77995" lon="0.3789">
        <ele>1903.07</ele>
        <time>2014-03-17T05:27:54Z</time>
      </trkpt>
      <trkpt lat="42.77983" lon="0.37886">
        <ele>1904.99</ele>
        <time>2014-03-17T05:28:08Z</time>
      </trkpt>
      <trkpt lat="42.77972" lon="0.37883">
        <ele>1907.87</ele>
        <time>2014-03-17T05:28:21Z</time>
      </trkpt>
      <trkpt lat="42.7796" lon="0.37879">
        <ele>1910.28</ele>
        <time>2014-03-17T05:28:35Z</time>
      </trkpt>
      <trkpt lat="42.77948" lon="0.37874">
        <ele>1912.2</ele>
        <time>2014-03-17T05:28:49Z</time>
      </trkpt>
      <trkpt lat="42.77937" lon="0.37869">
        <ele>1914.12</ele>
        <time>2014-03-17T05:29:02Z</time>
      </trkpt>
      <trkpt lat="42.77924" lon="0.37864">
        <ele>1916.04</ele>
        <time>2014-03-17T05:29:16Z</time>
      </trkpt>
      <trkpt lat="42.77913" lon="0.3786">
        <ele>1918.45</ele>
        <time>2014-03-17T05:29:30Z</time>
      </trkpt>
      <trkpt lat="42.77904" lon="0.37855">
        <ele>1920.37</ele>
        <time>2014-03-17T05:29:43Z</time>
      </trkpt>
      <trkpt lat="42.77895" lon="0.37849">
        <ele>1922.77</ele>
        <time>2014-03-17T05:29:56Z</time>
      </trkpt>
      <trkpt lat="42.77885" lon="0.37846">
        <ele>1925.66</ele>
        <time>2014-03-17T05:30:10Z</time>
      </trkpt>
      <trkpt lat="42.77876" lon="0.37842">
        <ele>1928.06</ele>
        <time>2014-03-17T05:30:22Z</time>
      </trkpt>
      <trkpt lat="42.77868" lon="0.37838">
        <ele>1930.95</ele>
        <time>2014-03-17T05:30:35Z</time>
      </trkpt>
      <trkpt lat="42.7786" lon="0.37836">
        <ele>1933.35</ele>
        <time>2014-03-17T05:30:46Z</time>
      </trkpt>
      <trkpt lat="42.77851" lon="0.37834">
        <ele>1935.75</ele>
        <time>2014-03-17T05:30:59Z</time>
      </trkpt>
      <trkpt lat="42.77843" lon="0.37833">
        <ele>1938.16</ele>
        <time>2014-03-17T05:31:11Z</time>
      </trkpt>
      <trkpt lat="42.77834" lon="0.37831">
        <ele>1941.04</ele>
        <time>2014-03-17T05:31:25Z</time>
      </trkpt>
      <trkpt lat="42.77827" lon="0.37829">
        <ele>1942.96</ele>
        <time>2014-03-17T05:31:36Z</time>
      </trkpt>
      <trkpt lat="42.77818" lon="0.37826">
        <ele>1945.36</ele>
        <time>2014-03-17T05:31:50Z</time>
      </trkpt>
      <trkpt lat="42.77809" lon="0.37822">
        <ele>1947.77</ele>
        <time>2014-03-17T05:32:03Z</time>
      </trkpt>
      <trkpt lat="42.778" lon="0.37815">
        <ele>1951.13</ele>
        <time>2014-03-17T05:32:17Z</time>
      </trkpt>
      <trkpt lat="42.77793" lon="0.37807">
        <ele>1953.54</ele>
        <time>2014-03-17T05:32:30Z</time>
      </trkpt>
      <trkpt lat="42.77784" lon="0.37798">
        <ele>1955.94</ele>
        <time>2014-03-17T05:32:45Z</time>
      </trkpt>
      <trkpt lat="42.77775" lon="0.37791">
        <ele>1958.82</ele>
        <time>2014-03-17T05:32:59Z</time>
      </trkpt>
      <trkpt lat="42.77767" lon="0.37787">
        <ele>1961.71</ele>
        <time>2014-03-17T05:33:12Z</time>
      </trkpt>
      <trkpt lat="42.77757" lon="0.3778">
        <ele>1964.11</ele>
        <time>2014-03-17T05:33:27Z</time>
      </trkpt>
      <trkpt lat="42.77751" lon="0.37772">
        <ele>1966.51</ele>
        <time>2014-03-17T05:33:40Z</time>
      </trkpt>
      <trkpt lat="42.77745" lon="0.37765">
        <ele>1968.44</ele>
        <time>2014-03-17T05:33:50Z</time>
      </trkpt>
      <trkpt lat="42.7774" lon="0.37765">
        <ele>1969.88</ele>
        <time>2014-03-17T05:33:57Z</time>
      </trkpt>
      <trkpt lat="42.77735" lon="0.37771">
        <ele>1972.28</ele>
        <time>2014-03-17T05:34:07Z</time>
      </trkpt>
      <trkpt lat="42.77728" lon="0.37779">
        <ele>1974.69</ele>
        <time>2014-03-17T05:34:20Z</time>
      </trkpt>
      <trkpt lat="42.7772" lon="0.37786">
        <ele>1977.57</ele>
        <time>2014-03-17T05:34:34Z</time>
      </trkpt>
      <trkpt lat="42.77713" lon="0.37789">
        <ele>1979.97</ele>
        <time>2014-03-17T05:34:46Z</time>
      </trkpt>
      <trkpt lat="42.77703" lon="0.37789">
        <ele>1982.38</ele>
        <time>2014-03-17T05:34:59Z</time>
      </trkpt>
      <trkpt lat="42.77691" lon="0.37785">
        <ele>1984.3</ele>
        <time>2014-03-17T05:35:14Z</time>
      </trkpt>
      <trkpt lat="42.77686" lon="0.37783">
        <ele>1985.74</ele>
        <time>2014-03-17T05:35:21Z</time>
      </trkpt>
      <trkpt lat="42.77677" lon="0.37775">
        <ele>1987.66</ele>
        <time>2014-03-17T05:35:34Z</time>
      </trkpt>
      <trkpt lat="42.77672" lon="0.37764">
        <ele>1990.55</ele>
        <time>2014-03-17T05:35:47Z</time>
      </trkpt>
      <trkpt lat="42.77666" lon="0.37753">
        <ele>1993.43</ele>
        <time>2014-03-17T05:36:00Z</time>
      </trkpt>
      <trkpt lat="42.77658" lon="0.3776">
        <ele>1996.32</ele>
        <time>2014-03-17T05:36:13Z</time>
      </trkpt>
      <trkpt lat="42.7765" lon="0.37769">
        <ele>1998.24</ele>
        <time>2014-03-17T05:36:26Z</time>
      </trkpt>
      <trkpt lat="42.77644" lon="0.37775">
        <ele>2001.12</ele>
        <time>2014-03-17T05:36:39Z</time>
      </trkpt>
      <trkpt lat="42.77638" lon="0.37784">
        <ele>2003.52</ele>
        <time>2014-03-17T05:36:52Z</time>
      </trkpt>
      <trkpt lat="42.77631" lon="0.37792">
        <ele>2005.93</ele>
        <time>2014-03-17T05:37:04Z</time>
      </trkpt>
      <trkpt lat="42.77624" lon="0.37793">
        <ele>2008.33</ele>
        <time>2014-03-17T05:37:15Z</time>
      </trkpt>
      <trkpt lat="42.77616" lon="0.37787">
        <ele>2010.73</ele>
        <time>2014-03-17T05:37:28Z</time>
      </trkpt>
      <trkpt lat="42.77609" lon="0.3778">
        <ele>2012.66</ele>
        <time>2014-03-17T05:37:40Z</time>
      </trkpt>
      <trkpt lat="42.77603" lon="0.3777">
        <ele>2015.06</ele>
        <time>2014-03-17T05:37:53Z</time>
      </trkpt>
      <trkpt lat="42.77597" lon="0.37761">
        <ele>2017.46</ele>
        <time>2014-03-17T05:38:06Z</time>
      </trkpt>
      <trkpt lat="42.77591" lon="0.37751">
        <ele>2020.35</ele>
        <time>2014-03-17T05:38:19Z</time>
      </trkpt>
      <trkpt lat="42.77584" lon="0.37742">
        <ele>2022.75</ele>
        <time>2014-03-17T05:38:32Z</time>
      </trkpt>
      <trkpt lat="42.77577" lon="0.3773">
        <ele>2025.15</ele>
        <time>2014-03-17T05:38:46Z</time>
      </trkpt>
      <trkpt lat="42.77569" lon="0.37722">
        <ele>2028.04</ele>
        <time>2014-03-17T05:39:01Z</time>
      </trkpt>
      <trkpt lat="42.77563" lon="0.37715">
        <ele>2030.44</ele>
        <time>2014-03-17T05:39:14Z</time>
      </trkpt>
      <trkpt lat="42.77555" lon="0.37707">
        <ele>2032.84</ele>
        <time>2014-03-17T05:39:28Z</time>
      </trkpt>
      <trkpt lat="42.77552" lon="0.37706">
        <ele>2034.29</ele>
        <time>2014-03-17T05:39:34Z</time>
      </trkpt>
      <trkpt lat="42.77543" lon="0.37703">
        <ele>2037.17</ele>
        <time>2014-03-17T05:39:48Z</time>
      </trkpt>
      <trkpt lat="42.7754" lon="0.37689">
        <ele>2038.13</ele>
        <time>2014-03-17T05:40:01Z</time>
      </trkpt>
      <trkpt lat="42.7754" lon="0.37689">
        <ele>2038.61</ele>
        <time>2014-03-17T05:40:29Z</time>
      </trkpt>
      <trkpt lat="42.7754" lon="0.37689">
        <ele>2039.09</ele>
        <time>2014-03-17T05:41:00Z</time>
      </trkpt>
      <trkpt lat="42.77541" lon="0.37692">
        <ele>2038.61</ele>
        <time>2014-03-17T05:41:19Z</time>
      </trkpt>
      <trkpt lat="42.7754" lon="0.37694">
        <ele>2039.09</ele>
        <time>2014-03-17T05:41:30Z</time>
      </trkpt>
      <trkpt lat="42.77532" lon="0.37708">
        <ele>2040.54</ele>
        <time>2014-03-17T05:41:45Z</time>
      </trkpt>
      <trkpt lat="42.77523" lon="0.37724">
        <ele>2041.5</ele>
        <time>2014-03-17T05:42:01Z</time>
      </trkpt>
      <trkpt lat="42.77521" lon="0.37735">
        <ele>2041.98</ele>
        <time>2014-03-17T05:42:10Z</time>
      </trkpt>
      <trkpt lat="42.77518" lon="0.37749">
        <ele>2042.94</ele>
        <time>2014-03-17T05:42:24Z</time>
      </trkpt>
      <trkpt lat="42.7751" lon="0.37752">
        <ele>2046.3</ele>
        <time>2014-03-17T05:42:34Z</time>
      </trkpt>
      <trkpt lat="42.77501" lon="0.37752">
        <ele>2049.19</ele>
        <time>2014-03-17T05:42:46Z</time>
      </trkpt>
      <trkpt lat="42.77491" lon="0.37752">
        <ele>2051.59</ele>
        <time>2014-03-17T05:43:00Z</time>
      </trkpt>
      <trkpt lat="42.77487" lon="0.37752">
        <ele>2052.55</ele>
        <time>2014-03-17T05:43:05Z</time>
      </trkpt>
      <trkpt lat="42.77477" lon="0.37751">
        <ele>2053.99</ele>
        <time>2014-03-17T05:43:20Z</time>
      </trkpt>
      <trkpt lat="42.77476" lon="0.37751">
        <ele>2053.99</ele>
        <time>2014-03-17T05:43:22Z</time>
      </trkpt>
      <trkpt lat="42.77473" lon="0.37753">
        <ele>2054.96</ele>
        <time>2014-03-17T05:43:25Z</time>
      </trkpt>
      <trkpt lat="42.7747" lon="0.37753">
        <ele>2055.44</ele>
        <time>2014-03-17T05:43:39Z</time>
      </trkpt>
      <trkpt lat="42.7747" lon="0.37756">
        <ele>2056.4</ele>
        <time>2014-03-17T05:43:59Z</time>
      </trkpt>
      <trkpt lat="42.77468" lon="0.37767">
        <ele>2055.92</ele>
        <time>2014-03-17T05:44:13Z</time>
      </trkpt>
      <trkpt lat="42.77466" lon="0.3777">
        <ele>2055.92</ele>
        <time>2014-03-17T05:44:17Z</time>
      </trkpt>
      <trkpt lat="42.7746" lon="0.37787">
        <ele>2054.96</ele>
        <time>2014-03-17T05:44:33Z</time>
      </trkpt>
      <trkpt lat="42.77459" lon="0.37792">
        <ele>2055.44</ele>
        <time>2014-03-17T05:44:47Z</time>
      </trkpt>
      <trkpt lat="42.77458" lon="0.37798">
        <ele>2055.92</ele>
        <time>2014-03-17T05:44:59Z</time>
      </trkpt>
      <trkpt lat="42.7746" lon="0.37799">
        <ele>2055.92</ele>
        <time>2014-03-17T05:45:21Z</time>
      </trkpt>
      <trkpt lat="42.77461" lon="0.37798">
        <ele>2056.4</ele>
        <time>2014-03-17T05:45:30Z</time>
      </trkpt>
      <trkpt lat="42.77461" lon="0.37803">
        <ele>2055.92</ele>
        <time>2014-03-17T05:45:34Z</time>
      </trkpt>
      <trkpt lat="42.77459" lon="0.37806">
        <ele>2057.36</ele>
        <time>2014-03-17T05:45:41Z</time>
      </trkpt>
      <trkpt lat="42.77458" lon="0.37808">
        <ele>2056.4</ele>
        <time>2014-03-17T05:45:52Z</time>
      </trkpt>
      <trkpt lat="42.77458" lon="0.37808">
        <ele>2057.36</ele>
        <time>2014-03-17T05:46:28Z</time>
      </trkpt>
      <trkpt lat="42.77458" lon="0.37808">
        <ele>2057.84</ele>
        <time>2014-03-17T05:47:12Z</time>
      </trkpt>
      <trkpt lat="42.77458" lon="0.37808">
        <ele>2058.32</ele>
        <time>2014-03-17T05:47:35Z</time>
      </trkpt>
      <trkpt lat="42.7746" lon="0.37808">
        <ele>2058.8</ele>
        <time>2014-03-17T05:48:16Z</time>
      </trkpt>
      <trkpt lat="42.77459" lon="0.3781">
        <ele>2058.8</ele>
        <time>2014-03-17T05:48:45Z</time>
      </trkpt>
      <trkpt lat="42.77459" lon="0.37809">
        <ele>2059.76</ele>
        <time>2014-03-17T05:49:19Z</time>
      </trkpt>
      <trkpt lat="42.77461" lon="0.37809">
        <ele>2061.2</ele>
        <time>2014-03-17T05:49:50Z</time>
      </trkpt>
      <trkpt lat="42.7746" lon="0.37808">
        <ele>2061.2</ele>
        <time>2014-03-17T05:49:51Z</time>
      </trkpt>
      <trkpt lat="42.7746" lon="0.37806">
        <ele>2061.2</ele>
        <time>2014-03-17T05:50:12Z</time>
      </trkpt>
      <trkpt lat="42.7746" lon="0.37806">
        <ele>2061.68</ele>
        <time>2014-03-17T05:50:21Z</time>
      </trkpt>
      <trkpt lat="42.77458" lon="0.37802">
        <ele>2060.72</ele>
        <time>2014-03-17T05:50:33Z</time>
      </trkpt>
      <trkpt lat="42.77458" lon="0.37801">
        <ele>2060.72</ele>
        <time>2014-03-17T05:50:44Z</time>
      </trkpt>
      <trkpt lat="42.77457" lon="0.37801">
        <ele>2060.72</ele>
        <time>2014-03-17T05:50:58Z</time>
      </trkpt>
      <trkpt lat="42.77459" lon="0.37801">
        <ele>2060.72</ele>
        <time>2014-03-17T05:51:17Z</time>
      </trkpt>
      <trkpt lat="42.77458" lon="0.37802">
        <ele>2061.68</ele>
        <time>2014-03-17T05:51:32Z</time>
      </trkpt>
      <trkpt lat="42.77455" lon="0.37806">
        <ele>2061.2</ele>
        <time>2014-03-17T05:51:42Z</time>
      </trkpt>
      <trkpt lat="42.77455" lon="0.37808">
        <ele>2061.2</ele>
        <time>2014-03-17T05:51:47Z</time>
      </trkpt>
      <trkpt lat="42.77452" lon="0.37816">
        <ele>2060.24</ele>
        <time>2014-03-17T05:52:00Z</time>
      </trkpt>
      <trkpt lat="42.77449" lon="0.37822">
        <ele>2058.32</ele>
        <time>2014-03-17T05:52:10Z</time>
      </trkpt>
      <trkpt lat="42.77445" lon="0.37823">
        <ele>2056.88</ele>
        <time>2014-03-17T05:52:23Z</time>
      </trkpt>
      <trkpt lat="42.7744" lon="0.37831">
        <ele>2055.92</ele>
        <time>2014-03-17T05:52:40Z</time>
      </trkpt>
      <trkpt lat="42.77438" lon="0.37838">
        <ele>2055.44</ele>
        <time>2014-03-17T05:52:54Z</time>
      </trkpt>
      <trkpt lat="42.77427" lon="0.3785">
        <ele>2051.59</ele>
        <time>2014-03-17T05:53:05Z</time>
      </trkpt>
      <trkpt lat="42.77416" lon="0.37857">
        <ele>2047.75</ele>
        <time>2014-03-17T05:53:11Z</time>
      </trkpt>
      <trkpt lat="42.77407" lon="0.37863">
        <ele>2044.38</ele>
        <time>2014-03-17T05:53:15Z</time>
      </trkpt>
      <trkpt lat="42.77406" lon="0.37865">
        <ele>2043.42</ele>
        <time>2014-03-17T05:53:17Z</time>
      </trkpt>
      <trkpt lat="42.77405" lon="0.37865">
        <ele>2042.94</ele>
        <time>2014-03-17T05:53:23Z</time>
      </trkpt>
      <trkpt lat="42.77393" lon="0.37865">
        <ele>2039.57</ele>
        <time>2014-03-17T05:53:29Z</time>
      </trkpt>
      <trkpt lat="42.77383" lon="0.37865">
        <ele>2035.73</ele>
        <time>2014-03-17T05:53:33Z</time>
      </trkpt>
      <trkpt lat="42.77373" lon="0.37864">
        <ele>2031.88</ele>
        <time>2014-03-17T05:53:37Z</time>
      </trkpt>
      <trkpt lat="42.77363" lon="0.37863">
        <ele>2028.52</ele>
        <time>2014-03-17T05:53:41Z</time>
      </trkpt>
      <trkpt lat="42.77356" lon="0.37862">
        <ele>2026.12</ele>
        <time>2014-03-17T05:53:46Z</time>
      </trkpt>
      <trkpt lat="42.77355" lon="0.37861">
        <ele>2025.64</ele>
        <time>2014-03-17T05:53:58Z</time>
      </trkpt>
      <trkpt lat="42.77345" lon="0.37854">
        <ele>2021.79</ele>
        <time>2014-03-17T05:54:03Z</time>
      </trkpt>
      <trkpt lat="42.77336" lon="0.37851">
        <ele>2018.43</ele>
        <time>2014-03-17T05:54:07Z</time>
      </trkpt>
      <trkpt lat="42.77333" lon="0.3785">
        <ele>2016.98</ele>
        <time>2014-03-17T05:54:10Z</time>
      </trkpt>
      <trkpt lat="42.77329" lon="0.3785">
        <ele>2016.02</ele>
        <time>2014-03-17T05:54:23Z</time>
      </trkpt>
      <trkpt lat="42.77326" lon="0.37849">
        <ele>2016.02</ele>
        <time>2014-03-17T05:54:32Z</time>
      </trkpt>
      <trkpt lat="42.77308" lon="0.37851">
        <ele>2012.66</ele>
        <time>2014-03-17T05:54:41Z</time>
      </trkpt>
      <trkpt lat="42.77299" lon="0.37851">
        <ele>2010.73</ele>
        <time>2014-03-17T05:54:45Z</time>
      </trkpt>
      <trkpt lat="42.77292" lon="0.37851">
        <ele>2008.81</ele>
        <time>2014-03-17T05:54:48Z</time>
      </trkpt>
      <trkpt lat="42.77281" lon="0.37849">
        <ele>2005.45</ele>
        <time>2014-03-17T05:54:52Z</time>
      </trkpt>
      <trkpt lat="42.7727" lon="0.37849">
        <ele>2002.08</ele>
        <time>2014-03-17T05:54:55Z</time>
      </trkpt>
      <trkpt lat="42.77255" lon="0.37851">
        <ele>1998.72</ele>
        <time>2014-03-17T05:54:59Z</time>
      </trkpt>
      <trkpt lat="42.77241" lon="0.37851">
        <ele>1995.83</ele>
        <time>2014-03-17T05:55:03Z</time>
      </trkpt>
      <trkpt lat="42.7723" lon="0.37848">
        <ele>1992.47</ele>
        <time>2014-03-17T05:55:07Z</time>
      </trkpt>
      <trkpt lat="42.77229" lon="0.37847">
        <ele>1990.55</ele>
        <time>2014-03-17T05:55:15Z</time>
      </trkpt>
      <trkpt lat="42.77225" lon="0.37848">
        <ele>1990.55</ele>
        <time>2014-03-17T05:55:28Z</time>
      </trkpt>
      <trkpt lat="42.77223" lon="0.37848">
        <ele>1990.07</ele>
        <time>2014-03-17T05:55:44Z</time>
      </trkpt>
      <trkpt lat="42.77221" lon="0.37848">
        <ele>1989.59</ele>
        <time>2014-03-17T05:55:47Z</time>
      </trkpt>
      <trkpt lat="42.77217" lon="0.37847">
        <ele>1989.1</ele>
        <time>2014-03-17T05:55:57Z</time>
      </trkpt>
      <trkpt lat="42.77216" lon="0.37848">
        <ele>1989.59</ele>
        <time>2014-03-17T05:56:10Z</time>
      </trkpt>
      <trkpt lat="42.77212" lon="0.37847">
        <ele>1988.14</ele>
        <time>2014-03-17T05:56:24Z</time>
      </trkpt>
      <trkpt lat="42.77208" lon="0.37843">
        <ele>1987.66</ele>
        <time>2014-03-17T05:56:33Z</time>
      </trkpt>
      <trkpt lat="42.77197" lon="0.37834">
        <ele>1984.3</ele>
        <time>2014-03-17T05:56:39Z</time>
      </trkpt>
      <trkpt lat="42.77182" lon="0.37825">
        <ele>1979.97</ele>
        <time>2014-03-17T05:56:43Z</time>
      </trkpt>
      <trkpt lat="42.77173" lon="0.37819">
        <ele>1977.57</ele>
        <time>2014-03-17T05:56:45Z</time>
      </trkpt>
      <trkpt lat="42.77161" lon="0.37815">
        <ele>1972.76</ele>
        <time>2014-03-17T05:56:48Z</time>
      </trkpt>
      <trkpt lat="42.77152" lon="0.3781">
        <ele>1970.36</ele>
        <time>2014-03-17T05:56:51Z</time>
      </trkpt>
      <trkpt lat="42.77133" lon="0.37799">
        <ele>1965.55</ele>
        <time>2014-03-17T05:56:57Z</time>
      </trkpt>
      <trkpt lat="42.77132" lon="0.37799">
        <ele>1965.55</ele>
        <time>2014-03-17T05:56:58Z</time>
      </trkpt>
      <trkpt lat="42.77121" lon="0.37792">
        <ele>1962.67</ele>
        <time>2014-03-17T05:57:04Z</time>
      </trkpt>
      <trkpt lat="42.77105" lon="0.3778">
        <ele>1958.82</ele>
        <time>2014-03-17T05:57:10Z</time>
      </trkpt>
      <trkpt lat="42.77092" lon="0.37771">
        <ele>1955.46</ele>
        <time>2014-03-17T05:57:14Z</time>
      </trkpt>
      <trkpt lat="42.77078" lon="0.37763">
        <ele>1952.09</ele>
        <time>2014-03-17T05:57:17Z</time>
      </trkpt>
      <trkpt lat="42.77065" lon="0.37753">
        <ele>1949.21</ele>
        <time>2014-03-17T05:57:21Z</time>
      </trkpt>
      <trkpt lat="42.77059" lon="0.3775">
        <ele>1947.77</ele>
        <time>2014-03-17T05:57:32Z</time>
      </trkpt>
      <trkpt lat="42.7706" lon="0.37749">
        <ele>1946.81</ele>
        <time>2014-03-17T05:57:47Z</time>
      </trkpt>
      <trkpt lat="42.77061" lon="0.3775">
        <ele>1947.77</ele>
        <time>2014-03-17T05:58:04Z</time>
      </trkpt>
      <trkpt lat="42.77061" lon="0.3775">
        <ele>1947.77</ele>
        <time>2014-03-17T05:58:17Z</time>
      </trkpt>
      <trkpt lat="42.77059" lon="0.3775">
        <ele>1947.77</ele>
        <time>2014-03-17T05:58:27Z</time>
      </trkpt>
      <trkpt lat="42.77049" lon="0.37748">
        <ele>1948.73</ele>
        <time>2014-03-17T05:58:39Z</time>
      </trkpt>
      <trkpt lat="42.77035" lon="0.37745">
        <ele>1950.17</ele>
        <time>2014-03-17T05:58:54Z</time>
      </trkpt>
      <trkpt lat="42.77025" lon="0.37742">
        <ele>1950.65</ele>
        <time>2014-03-17T05:59:04Z</time>
      </trkpt>
      <trkpt lat="42.7702" lon="0.37741">
        <ele>1951.13</ele>
        <time>2014-03-17T05:59:09Z</time>
      </trkpt>
      <trkpt lat="42.77012" lon="0.3774">
        <ele>1951.13</ele>
        <time>2014-03-17T05:59:21Z</time>
      </trkpt>
      <trkpt lat="42.77002" lon="0.37734">
        <ele>1953.54</ele>
        <time>2014-03-17T05:59:36Z</time>
      </trkpt>
      <trkpt lat="42.77002" lon="0.37734">
        <ele>1953.54</ele>
        <time>2014-03-17T05:59:37Z</time>
      </trkpt>
      <trkpt lat="42.76986" lon="0.37732">
        <ele>1957.38</ele>
        <time>2014-03-17T05:59:54Z</time>
      </trkpt>
      <trkpt lat="42.76975" lon="0.37729">
        <ele>1960.27</ele>
        <time>2014-03-17T06:00:07Z</time>
      </trkpt>
      <trkpt lat="42.76962" lon="0.37727">
        <ele>1962.19</ele>
        <time>2014-03-17T06:00:22Z</time>
      </trkpt>
      <trkpt lat="42.76952" lon="0.37724">
        <ele>1965.07</ele>
        <time>2014-03-17T06:00:35Z</time>
      </trkpt>
      <trkpt lat="42.76944" lon="0.37724">
        <ele>1966.99</ele>
        <time>2014-03-17T06:00:45Z</time>
      </trkpt>
      <trkpt lat="42.7693" lon="0.37727">
        <ele>1969.4</ele>
        <time>2014-03-17T06:01:02Z</time>
      </trkpt>
      <trkpt lat="42.76922" lon="0.37729">
        <ele>1970.36</ele>
        <time>2014-03-17T06:01:15Z</time>
      </trkpt>
      <trkpt lat="42.76909" lon="0.37727">
        <ele>1972.28</ele>
        <time>2014-03-17T06:01:31Z</time>
      </trkpt>
      <trkpt lat="42.76895" lon="0.37728">
        <ele>1973.72</ele>
        <time>2014-03-17T06:01:46Z</time>
      </trkpt>
      <trkpt lat="42.76881" lon="0.37732">
        <ele>1975.65</ele>
        <time>2014-03-17T06:02:02Z</time>
      </trkpt>
      <trkpt lat="42.76869" lon="0.37736">
        <ele>1977.57</ele>
        <time>2014-03-17T06:02:16Z</time>
      </trkpt>
      <trkpt lat="42.76858" lon="0.37743">
        <ele>1978.05</ele>
        <time>2014-03-17T06:02:30Z</time>
      </trkpt>
      <trkpt lat="42.76853" lon="0.37749">
        <ele>1979.01</ele>
        <time>2014-03-17T06:02:36Z</time>
      </trkpt>
      <trkpt lat="42.76839" lon="0.37755">
        <ele>1979.49</ele>
        <time>2014-03-17T06:02:51Z</time>
      </trkpt>
      <trkpt lat="42.76826" lon="0.37755">
        <ele>1980.93</ele>
        <time>2014-03-17T06:03:05Z</time>
      </trkpt>
      <trkpt lat="42.7681" lon="0.37748">
        <ele>1983.82</ele>
        <time>2014-03-17T06:03:21Z</time>
      </trkpt>
      <trkpt lat="42.76801" lon="0.37742">
        <ele>1985.26</ele>
        <time>2014-03-17T06:03:36Z</time>
      </trkpt>
      <trkpt lat="42.76792" lon="0.37744">
        <ele>1987.66</ele>
        <time>2014-03-17T06:03:50Z</time>
      </trkpt>
      <trkpt lat="42.76782" lon="0.37754">
        <ele>1990.07</ele>
        <time>2014-03-17T06:04:04Z</time>
      </trkpt>
      <trkpt lat="42.76768" lon="0.37757">
        <ele>1991.51</ele>
        <time>2014-03-17T06:04:19Z</time>
      </trkpt>
      <trkpt lat="42.76755" lon="0.37767">
        <ele>1993.43</ele>
        <time>2014-03-17T06:04:34Z</time>
      </trkpt>
      <trkpt lat="42.76743" lon="0.37776">
        <ele>1994.39</ele>
        <time>2014-03-17T06:04:48Z</time>
      </trkpt>
      <trkpt lat="42.76742" lon="0.37777">
        <ele>1994.39</ele>
        <time>2014-03-17T06:04:49Z</time>
      </trkpt>
      <trkpt lat="42.7673" lon="0.37788">
        <ele>1996.8</ele>
        <time>2014-03-17T06:05:04Z</time>
      </trkpt>
      <trkpt lat="42.76725" lon="0.3779">
        <ele>1997.76</ele>
        <time>2014-03-17T06:05:10Z</time>
      </trkpt>
      <trkpt lat="42.76721" lon="0.37792">
        <ele>1997.76</ele>
        <time>2014-03-17T06:05:14Z</time>
      </trkpt>
      <trkpt lat="42.76707" lon="0.37795">
        <ele>1999.2</ele>
        <time>2014-03-17T06:05:31Z</time>
      </trkpt>
      <trkpt lat="42.76695" lon="0.37796">
        <ele>2001.12</ele>
        <time>2014-03-17T06:05:45Z</time>
      </trkpt>
      <trkpt lat="42.76691" lon="0.37796">
        <ele>2001.6</ele>
        <time>2014-03-17T06:05:49Z</time>
      </trkpt>
      <trkpt lat="42.76687" lon="0.37795">
        <ele>2002.08</ele>
        <time>2014-03-17T06:05:53Z</time>
      </trkpt>
      <trkpt lat="42.76672" lon="0.37792">
        <ele>2004.01</ele>
        <time>2014-03-17T06:06:10Z</time>
      </trkpt>
      <trkpt lat="42.7666" lon="0.3779">
        <ele>2005.93</ele>
        <time>2014-03-17T06:06:24Z</time>
      </trkpt>
      <trkpt lat="42.76645" lon="0.37785">
        <ele>2007.85</ele>
        <time>2014-03-17T06:06:39Z</time>
      </trkpt>
      <trkpt lat="42.76633" lon="0.37782">
        <ele>2009.77</ele>
        <time>2014-03-17T06:06:54Z</time>
      </trkpt>
      <trkpt lat="42.76622" lon="0.37781">
        <ele>2011.22</ele>
        <time>2014-03-17T06:07:10Z</time>
      </trkpt>
      <trkpt lat="42.76618" lon="0.37782">
        <ele>2012.18</ele>
        <time>2014-03-17T06:07:15Z</time>
      </trkpt>
      <trkpt lat="42.76603" lon="0.37786">
        <ele>2014.1</ele>
        <time>2014-03-17T06:07:31Z</time>
      </trkpt>
      <trkpt lat="42.76591" lon="0.37793">
        <ele>2016.02</ele>
        <time>2014-03-17T06:07:47Z</time>
      </trkpt>
      <trkpt lat="42.76582" lon="0.37797">
        <ele>2016.98</ele>
        <time>2014-03-17T06:08:01Z</time>
      </trkpt>
      <trkpt lat="42.76576" lon="0.378">
        <ele>2017.46</ele>
        <time>2014-03-17T06:08:08Z</time>
      </trkpt>
      <trkpt lat="42.7657" lon="0.37804">
        <ele>2017.46</ele>
        <time>2014-03-17T06:08:24Z</time>
      </trkpt>
      <trkpt lat="42.76569" lon="0.37803">
        <ele>2016.5</ele>
        <time>2014-03-17T06:08:29Z</time>
      </trkpt>
      <trkpt lat="42.76569" lon="0.37802">
        <ele>2017.46</ele>
        <time>2014-03-17T06:08:50Z</time>
      </trkpt>
      <trkpt lat="42.76558" lon="0.37805">
        <ele>2018.91</ele>
        <time>2014-03-17T06:09:02Z</time>
      </trkpt>
      <trkpt lat="42.76554" lon="0.37807">
        <ele>2018.91</ele>
        <time>2014-03-17T06:09:18Z</time>
      </trkpt>
      <trkpt lat="42.76541" lon="0.37806">
        <ele>2019.39</ele>
        <time>2014-03-17T06:09:33Z</time>
      </trkpt>
      <trkpt lat="42.76529" lon="0.37811">
        <ele>2021.79</ele>
        <time>2014-03-17T06:09:46Z</time>
      </trkpt>
      <trkpt lat="42.76515" lon="0.37817">
        <ele>2023.23</ele>
        <time>2014-03-17T06:10:00Z</time>
      </trkpt>
      <trkpt lat="42.76501" lon="0.37821">
        <ele>2024.19</ele>
        <time>2014-03-17T06:10:12Z</time>
      </trkpt>
      <trkpt lat="42.76497" lon="0.37822">
        <ele>2024.67</ele>
        <time>2014-03-17T06:10:16Z</time>
      </trkpt>
      <trkpt lat="42.76493" lon="0.37824">
        <ele>2025.15</ele>
        <time>2014-03-17T06:10:22Z</time>
      </trkpt>
      <trkpt lat="42.76485" lon="0.37829">
        <ele>2026.6</ele>
        <time>2014-03-17T06:10:30Z</time>
      </trkpt>
      <trkpt lat="42.76478" lon="0.37833">
        <ele>2028.04</ele>
        <time>2014-03-17T06:10:39Z</time>
      </trkpt>
      <trkpt lat="42.76464" lon="0.37835">
        <ele>2030.44</ele>
        <time>2014-03-17T06:10:54Z</time>
      </trkpt>
      <trkpt lat="42.76451" lon="0.37841">
        <ele>2032.84</ele>
        <time>2014-03-17T06:11:10Z</time>
      </trkpt>
      <trkpt lat="42.76438" lon="0.37846">
        <ele>2034.29</ele>
        <time>2014-03-17T06:11:24Z</time>
      </trkpt>
      <trkpt lat="42.76426" lon="0.37854">
        <ele>2035.25</ele>
        <time>2014-03-17T06:11:38Z</time>
      </trkpt>
      <trkpt lat="42.76413" lon="0.37859">
        <ele>2037.65</ele>
        <time>2014-03-17T06:11:52Z</time>
      </trkpt>
      <trkpt lat="42.76399" lon="0.37861">
        <ele>2038.61</ele>
        <time>2014-03-17T06:12:05Z</time>
      </trkpt>
      <trkpt lat="42.76385" lon="0.37866">
        <ele>2039.57</ele>
        <time>2014-03-17T06:12:19Z</time>
      </trkpt>
      <trkpt lat="42.76378" lon="0.37869">
        <ele>2040.54</ele>
        <time>2014-03-17T06:12:26Z</time>
      </trkpt>
      <trkpt lat="42.76375" lon="0.37869">
        <ele>2040.54</ele>
        <time>2014-03-17T06:12:30Z</time>
      </trkpt>
      <trkpt lat="42.76357" lon="0.37877">
        <ele>2041.98</ele>
        <time>2014-03-17T06:12:48Z</time>
      </trkpt>
      <trkpt lat="42.76343" lon="0.37882">
        <ele>2043.9</ele>
        <time>2014-03-17T06:13:03Z</time>
      </trkpt>
      <trkpt lat="42.76331" lon="0.37885">
        <ele>2045.34</ele>
        <time>2014-03-17T06:13:16Z</time>
      </trkpt>
      <trkpt lat="42.76321" lon="0.37889">
        <ele>2047.26</ele>
        <time>2014-03-17T06:13:29Z</time>
      </trkpt>
      <trkpt lat="42.76306" lon="0.37892">
        <ele>2049.67</ele>
        <time>2014-03-17T06:13:44Z</time>
      </trkpt>
      <trkpt lat="42.76292" lon="0.37895">
        <ele>2050.63</ele>
        <time>2014-03-17T06:13:58Z</time>
      </trkpt>
      <trkpt lat="42.76279" lon="0.37898">
        <ele>2053.03</ele>
        <time>2014-03-17T06:14:13Z</time>
      </trkpt>
      <trkpt lat="42.76265" lon="0.379">
        <ele>2053.99</ele>
        <time>2014-03-17T06:14:27Z</time>
      </trkpt>
      <trkpt lat="42.76252" lon="0.37903">
        <ele>2056.4</ele>
        <time>2014-03-17T06:14:41Z</time>
      </trkpt>
      <trkpt lat="42.76242" lon="0.37905">
        <ele>2058.8</ele>
        <time>2014-03-17T06:14:54Z</time>
      </trkpt>
      <trkpt lat="42.76229" lon="0.37906">
        <ele>2059.76</ele>
        <time>2014-03-17T06:15:08Z</time>
      </trkpt>
      <trkpt lat="42.76219" lon="0.37906">
        <ele>2060.72</ele>
        <time>2014-03-17T06:15:22Z</time>
      </trkpt>
      <trkpt lat="42.76214" lon="0.37907">
        <ele>2062.17</ele>
        <time>2014-03-17T06:15:38Z</time>
      </trkpt>
      <trkpt lat="42.76205" lon="0.37901">
        <ele>2064.57</ele>
        <time>2014-03-17T06:15:50Z</time>
      </trkpt>
      <trkpt lat="42.76201" lon="0.379">
        <ele>2065.53</ele>
        <time>2014-03-17T06:15:55Z</time>
      </trkpt>
      <trkpt lat="42.7619" lon="0.37916">
        <ele>2067.93</ele>
        <time>2014-03-17T06:16:09Z</time>
      </trkpt>
      <trkpt lat="42.76186" lon="0.37929">
        <ele>2070.34</ele>
        <time>2014-03-17T06:16:21Z</time>
      </trkpt>
      <trkpt lat="42.76184" lon="0.37942">
        <ele>2073.22</ele>
        <time>2014-03-17T06:16:34Z</time>
      </trkpt>
      <trkpt lat="42.76182" lon="0.37955">
        <ele>2076.1</ele>
        <time>2014-03-17T06:16:48Z</time>
      </trkpt>
      <trkpt lat="42.76178" lon="0.37966">
        <ele>2078.99</ele>
        <time>2014-03-17T06:17:03Z</time>
      </trkpt>
      <trkpt lat="42.76181" lon="0.37964">
        <ele>2079.47</ele>
        <time>2014-03-17T06:17:18Z</time>
      </trkpt>
      <trkpt lat="42.76176" lon="0.37959">
        <ele>2081.39</ele>
        <time>2014-03-17T06:17:30Z</time>
      </trkpt>
      <trkpt lat="42.76169" lon="0.37951">
        <ele>2083.79</ele>
        <time>2014-03-17T06:17:45Z</time>
      </trkpt>
      <trkpt lat="42.76161" lon="0.37943">
        <ele>2086.68</ele>
        <time>2014-03-17T06:18:00Z</time>
      </trkpt>
      <trkpt lat="42.76156" lon="0.37939">
        <ele>2088.12</ele>
        <time>2014-03-17T06:18:07Z</time>
      </trkpt>
      <trkpt lat="42.76146" lon="0.3793">
        <ele>2090.52</ele>
        <time>2014-03-17T06:18:22Z</time>
      </trkpt>
      <trkpt lat="42.7614" lon="0.37926">
        <ele>2093.41</ele>
        <time>2014-03-17T06:18:35Z</time>
      </trkpt>
      <trkpt lat="42.76134" lon="0.37919">
        <ele>2095.33</ele>
        <time>2014-03-17T06:18:49Z</time>
      </trkpt>
      <trkpt lat="42.76128" lon="0.37928">
        <ele>2097.25</ele>
        <time>2014-03-17T06:19:03Z</time>
      </trkpt>
      <trkpt lat="42.76127" lon="0.3794">
        <ele>2099.66</ele>
        <time>2014-03-17T06:19:16Z</time>
      </trkpt>
      <trkpt lat="42.7613" lon="0.37954">
        <ele>2102.06</ele>
        <time>2014-03-17T06:19:31Z</time>
      </trkpt>
      <trkpt lat="42.76129" lon="0.3795">
        <ele>2102.54</ele>
        <time>2014-03-17T06:19:45Z</time>
      </trkpt>
      <trkpt lat="42.76122" lon="0.37945">
        <ele>2103.98</ele>
        <time>2014-03-17T06:19:58Z</time>
      </trkpt>
      <trkpt lat="42.76112" lon="0.37935">
        <ele>2105.91</ele>
        <time>2014-03-17T06:20:13Z</time>
      </trkpt>
      <trkpt lat="42.76101" lon="0.37924">
        <ele>2107.35</ele>
        <time>2014-03-17T06:20:29Z</time>
      </trkpt>
      <trkpt lat="42.7609" lon="0.37911">
        <ele>2107.83</ele>
        <time>2014-03-17T06:20:44Z</time>
      </trkpt>
      <trkpt lat="42.7608" lon="0.37897">
        <ele>2107.35</ele>
        <time>2014-03-17T06:21:01Z</time>
      </trkpt>
      <trkpt lat="42.76075" lon="0.37884">
        <ele>2108.31</ele>
        <time>2014-03-17T06:21:14Z</time>
      </trkpt>
      <trkpt lat="42.76065" lon="0.3787">
        <ele>2109.75</ele>
        <time>2014-03-17T06:21:30Z</time>
      </trkpt>
      <trkpt lat="42.76059" lon="0.37855">
        <ele>2111.19</ele>
        <time>2014-03-17T06:21:45Z</time>
      </trkpt>
      <trkpt lat="42.76057" lon="0.37841">
        <ele>2114.56</ele>
        <time>2014-03-17T06:21:58Z</time>
      </trkpt>
      <trkpt lat="42.76059" lon="0.37834">
        <ele>2116</ele>
        <time>2014-03-17T06:22:06Z</time>
      </trkpt>
      <trkpt lat="42.76063" lon="0.37826">
        <ele>2118.4</ele>
        <time>2014-03-17T06:22:19Z</time>
      </trkpt>
      <trkpt lat="42.76063" lon="0.37822">
        <ele>2119.84</ele>
        <time>2014-03-17T06:22:30Z</time>
      </trkpt>
      <trkpt lat="42.76054" lon="0.37813">
        <ele>2122.73</ele>
        <time>2014-03-17T06:22:45Z</time>
      </trkpt>
      <trkpt lat="42.76046" lon="0.3781">
        <ele>2125.13</ele>
        <time>2014-03-17T06:22:58Z</time>
      </trkpt>
      <trkpt lat="42.76037" lon="0.37806">
        <ele>2128.02</ele>
        <time>2014-03-17T06:23:13Z</time>
      </trkpt>
      <trkpt lat="42.76031" lon="0.37806">
        <ele>2129.94</ele>
        <time>2014-03-17T06:23:24Z</time>
      </trkpt>
      <trkpt lat="42.76025" lon="0.378">
        <ele>2133.3</ele>
        <time>2014-03-17T06:23:38Z</time>
      </trkpt>
      <trkpt lat="42.76017" lon="0.37792">
        <ele>2136.19</ele>
        <time>2014-03-17T06:23:53Z</time>
      </trkpt>
      <trkpt lat="42.7601" lon="0.37783">
        <ele>2139.07</ele>
        <time>2014-03-17T06:24:09Z</time>
      </trkpt>
      <trkpt lat="42.76002" lon="0.37775">
        <ele>2141.47</ele>
        <time>2014-03-17T06:24:23Z</time>
      </trkpt>
      <trkpt lat="42.75998" lon="0.37771">
        <ele>2142.92</ele>
        <time>2014-03-17T06:24:31Z</time>
      </trkpt>
      <trkpt lat="42.75988" lon="0.37764">
        <ele>2145.8</ele>
        <time>2014-03-17T06:24:47Z</time>
      </trkpt>
      <trkpt lat="42.75977" lon="0.37759">
        <ele>2148.2</ele>
        <time>2014-03-17T06:25:02Z</time>
      </trkpt>
      <trkpt lat="42.75967" lon="0.37754">
        <ele>2150.13</ele>
        <time>2014-03-17T06:25:16Z</time>
      </trkpt>
      <trkpt lat="42.75958" lon="0.37744">
        <ele>2152.05</ele>
        <time>2014-03-17T06:25:31Z</time>
      </trkpt>
      <trkpt lat="42.75956" lon="0.37741">
        <ele>2152.53</ele>
        <time>2014-03-17T06:25:35Z</time>
      </trkpt>
      <trkpt lat="42.75951" lon="0.37735">
        <ele>2153.49</ele>
        <time>2014-03-17T06:25:42Z</time>
      </trkpt>
      <trkpt lat="42.75942" lon="0.37725">
        <ele>2154.45</ele>
        <time>2014-03-17T06:25:56Z</time>
      </trkpt>
      <trkpt lat="42.75933" lon="0.37715">
        <ele>2156.37</ele>
        <time>2014-03-17T06:26:09Z</time>
      </trkpt>
      <trkpt lat="42.75924" lon="0.37706">
        <ele>2157.82</ele>
        <time>2014-03-17T06:26:23Z</time>
      </trkpt>
      <trkpt lat="42.75915" lon="0.377">
        <ele>2160.22</ele>
        <time>2014-03-17T06:26:36Z</time>
      </trkpt>
      <trkpt lat="42.75905" lon="0.37694">
        <ele>2162.62</ele>
        <time>2014-03-17T06:26:50Z</time>
      </trkpt>
      <trkpt lat="42.75894" lon="0.37688">
        <ele>2165.03</ele>
        <time>2014-03-17T06:27:06Z</time>
      </trkpt>
      <trkpt lat="42.75883" lon="0.37686">
        <ele>2167.43</ele>
        <time>2014-03-17T06:27:20Z</time>
      </trkpt>
      <trkpt lat="42.75873" lon="0.37681">
        <ele>2169.83</ele>
        <time>2014-03-17T06:27:34Z</time>
      </trkpt>
      <trkpt lat="42.75862" lon="0.37679">
        <ele>2172.24</ele>
        <time>2014-03-17T06:27:48Z</time>
      </trkpt>
      <trkpt lat="42.75852" lon="0.37675">
        <ele>2174.64</ele>
        <time>2014-03-17T06:28:04Z</time>
      </trkpt>
      <trkpt lat="42.75845" lon="0.37674">
        <ele>2176.56</ele>
        <time>2014-03-17T06:28:16Z</time>
      </trkpt>
      <trkpt lat="42.75836" lon="0.3767">
        <ele>2179.45</ele>
        <time>2014-03-17T06:28:30Z</time>
      </trkpt>
      <trkpt lat="42.75826" lon="0.37666">
        <ele>2181.85</ele>
        <time>2014-03-17T06:28:43Z</time>
      </trkpt>
      <trkpt lat="42.75823" lon="0.37666">
        <ele>2183.29</ele>
        <time>2014-03-17T06:28:57Z</time>
      </trkpt>
      <trkpt lat="42.75823" lon="0.37666">
        <ele>2183.77</ele>
        <time>2014-03-17T06:29:18Z</time>
      </trkpt>
      <trkpt lat="42.75826" lon="0.37661">
        <ele>2186.18</ele>
        <time>2014-03-17T06:29:30Z</time>
      </trkpt>
      <trkpt lat="42.75828" lon="0.37652">
        <ele>2188.1</ele>
        <time>2014-03-17T06:29:42Z</time>
      </trkpt>
      <trkpt lat="42.75821" lon="0.37645">
        <ele>2190.5</ele>
        <time>2014-03-17T06:29:56Z</time>
      </trkpt>
      <trkpt lat="42.75814" lon="0.37639">
        <ele>2193.39</ele>
        <time>2014-03-17T06:30:09Z</time>
      </trkpt>
      <trkpt lat="42.75806" lon="0.37633">
        <ele>2195.31</ele>
        <time>2014-03-17T06:30:22Z</time>
      </trkpt>
      <trkpt lat="42.75798" lon="0.37626">
        <ele>2197.71</ele>
        <time>2014-03-17T06:30:37Z</time>
      </trkpt>
      <trkpt lat="42.7579" lon="0.37621">
        <ele>2200.11</ele>
        <time>2014-03-17T06:30:51Z</time>
      </trkpt>
      <trkpt lat="42.75784" lon="0.37613">
        <ele>2202.04</ele>
        <time>2014-03-17T06:31:04Z</time>
      </trkpt>
      <trkpt lat="42.7578" lon="0.37607">
        <ele>2204.44</ele>
        <time>2014-03-17T06:31:16Z</time>
      </trkpt>
      <trkpt lat="42.75772" lon="0.37596">
        <ele>2206.84</ele>
        <time>2014-03-17T06:31:30Z</time>
      </trkpt>
      <trkpt lat="42.75767" lon="0.3759">
        <ele>2208.77</ele>
        <time>2014-03-17T06:31:41Z</time>
      </trkpt>
      <trkpt lat="42.75766" lon="0.37588">
        <ele>2210.21</ele>
        <time>2014-03-17T06:31:54Z</time>
      </trkpt>
      <trkpt lat="42.75776" lon="0.37584">
        <ele>2212.61</ele>
        <time>2014-03-17T06:32:08Z</time>
      </trkpt>
      <trkpt lat="42.75781" lon="0.37584">
        <ele>2215.01</ele>
        <time>2014-03-17T06:32:22Z</time>
      </trkpt>
      <trkpt lat="42.75789" lon="0.3758">
        <ele>2217.42</ele>
        <time>2014-03-17T06:32:34Z</time>
      </trkpt>
      <trkpt lat="42.75793" lon="0.37579">
        <ele>2218.86</ele>
        <time>2014-03-17T06:32:46Z</time>
      </trkpt>
      <trkpt lat="42.758" lon="0.37577">
        <ele>2221.26</ele>
        <time>2014-03-17T06:32:58Z</time>
      </trkpt>
      <trkpt lat="42.75803" lon="0.37576">
        <ele>2222.22</ele>
        <time>2014-03-17T06:33:09Z</time>
      </trkpt>
      <trkpt lat="42.75808" lon="0.37576">
        <ele>2223.19</ele>
        <time>2014-03-17T06:33:22Z</time>
      </trkpt>
      <trkpt lat="42.75815" lon="0.37577">
        <ele>2225.11</ele>
        <time>2014-03-17T06:33:36Z</time>
      </trkpt>
      <trkpt lat="42.75821" lon="0.37571">
        <ele>2227.99</ele>
        <time>2014-03-17T06:33:53Z</time>
      </trkpt>
      <trkpt lat="42.75826" lon="0.37565">
        <ele>2229.92</ele>
        <time>2014-03-17T06:34:04Z</time>
      </trkpt>
      <trkpt lat="42.75831" lon="0.3756">
        <ele>2229.92</ele>
        <time>2014-03-17T06:34:13Z</time>
      </trkpt>
      <trkpt lat="42.75835" lon="0.37551">
        <ele>2231.36</ele>
        <time>2014-03-17T06:34:27Z</time>
      </trkpt>
      <trkpt lat="42.75841" lon="0.37544">
        <ele>2233.28</ele>
        <time>2014-03-17T06:34:40Z</time>
      </trkpt>
      <trkpt lat="42.75845" lon="0.37537">
        <ele>2234.72</ele>
        <time>2014-03-17T06:34:49Z</time>
      </trkpt>
      <trkpt lat="42.75849" lon="0.37533">
        <ele>2236.16</ele>
        <time>2014-03-17T06:34:59Z</time>
      </trkpt>
      <trkpt lat="42.75854" lon="0.37527">
        <ele>2237.61</ele>
        <time>2014-03-17T06:35:11Z</time>
      </trkpt>
      <trkpt lat="42.75855" lon="0.37526">
        <ele>2238.57</ele>
        <time>2014-03-17T06:35:15Z</time>
      </trkpt>
      <trkpt lat="42.75858" lon="0.37523">
        <ele>2240.01</ele>
        <time>2014-03-17T06:35:27Z</time>
      </trkpt>
      <trkpt lat="42.75861" lon="0.37522">
        <ele>2240.97</ele>
        <time>2014-03-17T06:35:38Z</time>
      </trkpt>
      <trkpt lat="42.7586" lon="0.3752">
        <ele>2240.01</ele>
        <time>2014-03-17T06:35:54Z</time>
      </trkpt>
      <trkpt lat="42.7586" lon="0.37519">
        <ele>2236.64</ele>
        <time>2014-03-17T06:36:03Z</time>
      </trkpt>
      <trkpt lat="42.7586" lon="0.37518">
        <ele>2240.97</ele>
        <time>2014-03-17T06:36:04Z</time>
      </trkpt>
      <trkpt lat="42.75862" lon="0.37517">
        <ele>2240.97</ele>
        <time>2014-03-17T06:36:19Z</time>
      </trkpt>
      <trkpt lat="42.75861" lon="0.37517">
        <ele>2239.53</ele>
        <time>2014-03-17T06:36:22Z</time>
      </trkpt>
      <trkpt lat="42.75861" lon="0.3752">
        <ele>2240.01</ele>
        <time>2014-03-17T06:36:39Z</time>
      </trkpt>
      <trkpt lat="42.7586" lon="0.37523">
        <ele>2240.97</ele>
        <time>2014-03-17T06:36:50Z</time>
      </trkpt>
      <trkpt lat="42.75858" lon="0.37521">
        <ele>2241.45</ele>
        <time>2014-03-17T06:37:07Z</time>
      </trkpt>
      <trkpt lat="42.75858" lon="0.3752">
        <ele>2241.45</ele>
        <time>2014-03-17T06:37:25Z</time>
      </trkpt>
      <trkpt lat="42.75858" lon="0.37522">
        <ele>2240.49</ele>
        <time>2014-03-17T06:37:46Z</time>
      </trkpt>
      <trkpt lat="42.75858" lon="0.3752">
        <ele>2241.93</ele>
        <time>2014-03-17T06:38:03Z</time>
      </trkpt>
      <trkpt lat="42.75859" lon="0.37518">
        <ele>2241.93</ele>
        <time>2014-03-17T06:38:24Z</time>
      </trkpt>
      <trkpt lat="42.75857" lon="0.37519">
        <ele>2241.93</ele>
        <time>2014-03-17T06:38:43Z</time>
      </trkpt>
      <trkpt lat="42.75854" lon="0.37519">
        <ele>2242.89</ele>
        <time>2014-03-17T06:38:57Z</time>
      </trkpt>
      <trkpt lat="42.75848" lon="0.37516">
        <ele>2245.3</ele>
        <time>2014-03-17T06:39:12Z</time>
      </trkpt>
      <trkpt lat="42.75842" lon="0.37516">
        <ele>2248.66</ele>
        <time>2014-03-17T06:39:25Z</time>
      </trkpt>
      <trkpt lat="42.75834" lon="0.37518">
        <ele>2250.58</ele>
        <time>2014-03-17T06:39:37Z</time>
      </trkpt>
      <trkpt lat="42.75829" lon="0.3752">
        <ele>2252.03</ele>
        <time>2014-03-17T06:39:48Z</time>
      </trkpt>
      <trkpt lat="42.75824" lon="0.37521">
        <ele>2253.47</ele>
        <time>2014-03-17T06:40:01Z</time>
      </trkpt>
      <trkpt lat="42.75818" lon="0.37519">
        <ele>2255.39</ele>
        <time>2014-03-17T06:40:14Z</time>
      </trkpt>
      <trkpt lat="42.75813" lon="0.37517">
        <ele>2257.31</ele>
        <time>2014-03-17T06:40:26Z</time>
      </trkpt>
      <trkpt lat="42.75806" lon="0.37513">
        <ele>2259.72</ele>
        <time>2014-03-17T06:40:38Z</time>
      </trkpt>
      <trkpt lat="42.75806" lon="0.37513">
        <ele>2260.2</ele>
        <time>2014-03-17T06:40:52Z</time>
      </trkpt>
      <trkpt lat="42.75811" lon="0.37508">
        <ele>2262.6</ele>
        <time>2014-03-17T06:41:05Z</time>
      </trkpt>
      <trkpt lat="42.75818" lon="0.37499">
        <ele>2265</ele>
        <time>2014-03-17T06:41:21Z</time>
      </trkpt>
      <trkpt lat="42.75813" lon="0.37496">
        <ele>2265.96</ele>
        <time>2014-03-17T06:41:35Z</time>
      </trkpt>
      <trkpt lat="42.75808" lon="0.37495">
        <ele>2267.89</ele>
        <time>2014-03-17T06:41:50Z</time>
      </trkpt>
      <trkpt lat="42.75799" lon="0.37491">
        <ele>2270.77</ele>
        <time>2014-03-17T06:42:04Z</time>
      </trkpt>
      <trkpt lat="42.75797" lon="0.3749">
        <ele>2271.25</ele>
        <time>2014-03-17T06:42:07Z</time>
      </trkpt>
      <trkpt lat="42.75788" lon="0.37486">
        <ele>2273.66</ele>
        <time>2014-03-17T06:42:21Z</time>
      </trkpt>
      <trkpt lat="42.75784" lon="0.37482">
        <ele>2275.58</ele>
        <time>2014-03-17T06:42:34Z</time>
      </trkpt>
      <trkpt lat="42.75777" lon="0.37477">
        <ele>2277.98</ele>
        <time>2014-03-17T06:42:46Z</time>
      </trkpt>
      <trkpt lat="42.75776" lon="0.37475">
        <ele>2278.94</ele>
        <time>2014-03-17T06:43:00Z</time>
      </trkpt>
      <trkpt lat="42.7578" lon="0.37474">
        <ele>2279.9</ele>
        <time>2014-03-17T06:43:06Z</time>
      </trkpt>
      <trkpt lat="42.75786" lon="0.37467">
        <ele>2282.31</ele>
        <time>2014-03-17T06:43:20Z</time>
      </trkpt>
      <trkpt lat="42.7579" lon="0.37463">
        <ele>2284.23</ele>
        <time>2014-03-17T06:43:31Z</time>
      </trkpt>
      <trkpt lat="42.75793" lon="0.37459">
        <ele>2286.15</ele>
        <time>2014-03-17T06:43:44Z</time>
      </trkpt>
      <trkpt lat="42.75797" lon="0.37455">
        <ele>2287.59</ele>
        <time>2014-03-17T06:43:54Z</time>
      </trkpt>
      <trkpt lat="42.75803" lon="0.37449">
        <ele>2290</ele>
        <time>2014-03-17T06:44:08Z</time>
      </trkpt>
      <trkpt lat="42.75808" lon="0.37443">
        <ele>2292.4</ele>
        <time>2014-03-17T06:44:21Z</time>
      </trkpt>
      <trkpt lat="42.75803" lon="0.37442">
        <ele>2292.88</ele>
        <time>2014-03-17T06:44:33Z</time>
      </trkpt>
      <trkpt lat="42.75796" lon="0.37439">
        <ele>2295.28</ele>
        <time>2014-03-17T06:44:48Z</time>
      </trkpt>
      <trkpt lat="42.7579" lon="0.37437">
        <ele>2296.73</ele>
        <time>2014-03-17T06:45:01Z</time>
      </trkpt>
      <trkpt lat="42.75785" lon="0.37436">
        <ele>2298.65</ele>
        <time>2014-03-17T06:45:12Z</time>
      </trkpt>
      <trkpt lat="42.75779" lon="0.37433">
        <ele>2300.09</ele>
        <time>2014-03-17T06:45:24Z</time>
      </trkpt>
      <trkpt lat="42.75773" lon="0.37432">
        <ele>2302.01</ele>
        <time>2014-03-17T06:45:38Z</time>
      </trkpt>
      <trkpt lat="42.75766" lon="0.37428">
        <ele>2304.42</ele>
        <time>2014-03-17T06:45:53Z</time>
      </trkpt>
      <trkpt lat="42.75758" lon="0.37425">
        <ele>2305.86</ele>
        <time>2014-03-17T06:46:04Z</time>
      </trkpt>
      <trkpt lat="42.75755" lon="0.37425">
        <ele>2307.3</ele>
        <time>2014-03-17T06:46:18Z</time>
      </trkpt>
      <trkpt lat="42.7576" lon="0.37421">
        <ele>2308.74</ele>
        <time>2014-03-17T06:46:29Z</time>
      </trkpt>
      <trkpt lat="42.75766" lon="0.37415">
        <ele>2311.15</ele>
        <time>2014-03-17T06:46:44Z</time>
      </trkpt>
      <trkpt lat="42.75773" lon="0.37408">
        <ele>2313.55</ele>
        <time>2014-03-17T06:46:59Z</time>
      </trkpt>
      <trkpt lat="42.75782" lon="0.37399">
        <ele>2316.43</ele>
        <time>2014-03-17T06:47:16Z</time>
      </trkpt>
      <trkpt lat="42.7579" lon="0.37393">
        <ele>2318.36</ele>
        <time>2014-03-17T06:47:31Z</time>
      </trkpt>
      <trkpt lat="42.75796" lon="0.37386">
        <ele>2320.76</ele>
        <time>2014-03-17T06:47:44Z</time>
      </trkpt>
      <trkpt lat="42.75801" lon="0.3738">
        <ele>2322.2</ele>
        <time>2014-03-17T06:47:56Z</time>
      </trkpt>
      <trkpt lat="42.758" lon="0.37381">
        <ele>2322.2</ele>
        <time>2014-03-17T06:47:57Z</time>
      </trkpt>
      <trkpt lat="42.75796" lon="0.37379">
        <ele>2323.16</ele>
        <time>2014-03-17T06:48:06Z</time>
      </trkpt>
      <trkpt lat="42.7579" lon="0.37378">
        <ele>2325.09</ele>
        <time>2014-03-17T06:48:19Z</time>
      </trkpt>
      <trkpt lat="42.75782" lon="0.37375">
        <ele>2327.49</ele>
        <time>2014-03-17T06:48:33Z</time>
      </trkpt>
      <trkpt lat="42.75774" lon="0.37372">
        <ele>2329.41</ele>
        <time>2014-03-17T06:48:46Z</time>
      </trkpt>
      <trkpt lat="42.75765" lon="0.37367">
        <ele>2332.78</ele>
        <time>2014-03-17T06:49:04Z</time>
      </trkpt>
      <trkpt lat="42.75759" lon="0.37362">
        <ele>2334.22</ele>
        <time>2014-03-17T06:49:15Z</time>
      </trkpt>
      <trkpt lat="42.75753" lon="0.37357">
        <ele>2336.14</ele>
        <time>2014-03-17T06:49:27Z</time>
      </trkpt>
      <trkpt lat="42.75745" lon="0.37352">
        <ele>2339.02</ele>
        <time>2014-03-17T06:49:42Z</time>
      </trkpt>
      <trkpt lat="42.75741" lon="0.37349">
        <ele>2339.99</ele>
        <time>2014-03-17T06:49:48Z</time>
      </trkpt>
      <trkpt lat="42.75735" lon="0.37345">
        <ele>2341.91</ele>
        <time>2014-03-17T06:50:02Z</time>
      </trkpt>
      <trkpt lat="42.75727" lon="0.37342">
        <ele>2343.83</ele>
        <time>2014-03-17T06:50:13Z</time>
      </trkpt>
      <trkpt lat="42.7572" lon="0.37337">
        <ele>2345.75</ele>
        <time>2014-03-17T06:50:24Z</time>
      </trkpt>
      <trkpt lat="42.75715" lon="0.37332">
        <ele>2348.16</ele>
        <time>2014-03-17T06:50:40Z</time>
      </trkpt>
      <trkpt lat="42.75709" lon="0.37325">
        <ele>2350.08</ele>
        <time>2014-03-17T06:50:52Z</time>
      </trkpt>
      <trkpt lat="42.75699" lon="0.37319">
        <ele>2352.48</ele>
        <time>2014-03-17T06:51:06Z</time>
      </trkpt>
      <trkpt lat="42.75691" lon="0.37314">
        <ele>2353.93</ele>
        <time>2014-03-17T06:51:19Z</time>
      </trkpt>
      <trkpt lat="42.75683" lon="0.37309">
        <ele>2356.81</ele>
        <time>2014-03-17T06:51:36Z</time>
      </trkpt>
      <trkpt lat="42.75673" lon="0.37303">
        <ele>2358.73</ele>
        <time>2014-03-17T06:51:52Z</time>
      </trkpt>
      <trkpt lat="42.75665" lon="0.37298">
        <ele>2360.65</ele>
        <time>2014-03-17T06:52:05Z</time>
      </trkpt>
      <trkpt lat="42.75658" lon="0.37296">
        <ele>2362.58</ele>
        <time>2014-03-17T06:52:16Z</time>
      </trkpt>
      <trkpt lat="42.7565" lon="0.37293">
        <ele>2364.5</ele>
        <time>2014-03-17T06:52:30Z</time>
      </trkpt>
      <trkpt lat="42.7564" lon="0.37292">
        <ele>2366.9</ele>
        <time>2014-03-17T06:52:45Z</time>
      </trkpt>
      <trkpt lat="42.75631" lon="0.37288">
        <ele>2367.86</ele>
        <time>2014-03-17T06:52:58Z</time>
      </trkpt>
      <trkpt lat="42.75621" lon="0.37282">
        <ele>2369.31</ele>
        <time>2014-03-17T06:53:12Z</time>
      </trkpt>
      <trkpt lat="42.7561" lon="0.3728">
        <ele>2371.23</ele>
        <time>2014-03-17T06:53:26Z</time>
      </trkpt>
      <trkpt lat="42.75603" lon="0.37279">
        <ele>2373.15</ele>
        <time>2014-03-17T06:53:39Z</time>
      </trkpt>
      <trkpt lat="42.75593" lon="0.37278">
        <ele>2375.55</ele>
        <time>2014-03-17T06:53:53Z</time>
      </trkpt>
      <trkpt lat="42.75592" lon="0.37278">
        <ele>2376.04</ele>
        <time>2014-03-17T06:53:55Z</time>
      </trkpt>
      <trkpt lat="42.75583" lon="0.37283">
        <ele>2377.96</ele>
        <time>2014-03-17T06:54:09Z</time>
      </trkpt>
      <trkpt lat="42.75577" lon="0.37287">
        <ele>2379.88</ele>
        <time>2014-03-17T06:54:21Z</time>
      </trkpt>
      <trkpt lat="42.75574" lon="0.37291">
        <ele>2381.8</ele>
        <time>2014-03-17T06:54:34Z</time>
      </trkpt>
      <trkpt lat="42.75571" lon="0.37282">
        <ele>2383.73</ele>
        <time>2014-03-17T06:54:46Z</time>
      </trkpt>
      <trkpt lat="42.75571" lon="0.37267">
        <ele>2386.61</ele>
        <time>2014-03-17T06:55:03Z</time>
      </trkpt>
      <trkpt lat="42.75575" lon="0.37256">
        <ele>2389.49</ele>
        <time>2014-03-17T06:55:20Z</time>
      </trkpt>
      <trkpt lat="42.75574" lon="0.37254">
        <ele>2389.49</ele>
        <time>2014-03-17T06:55:27Z</time>
      </trkpt>
      <trkpt lat="42.75569" lon="0.37255">
        <ele>2390.94</ele>
        <time>2014-03-17T06:55:38Z</time>
      </trkpt>
      <trkpt lat="42.75561" lon="0.37258">
        <ele>2393.34</ele>
        <time>2014-03-17T06:55:53Z</time>
      </trkpt>
      <trkpt lat="42.75551" lon="0.37262">
        <ele>2395.74</ele>
        <time>2014-03-17T06:56:10Z</time>
      </trkpt>
      <trkpt lat="42.75544" lon="0.37263">
        <ele>2398.63</ele>
        <time>2014-03-17T06:56:23Z</time>
      </trkpt>
      <trkpt lat="42.75542" lon="0.37255">
        <ele>2401.03</ele>
        <time>2014-03-17T06:56:36Z</time>
      </trkpt>
      <trkpt lat="42.75537" lon="0.37255">
        <ele>2402.47</ele>
        <time>2014-03-17T06:56:46Z</time>
      </trkpt>
      <trkpt lat="42.75526" lon="0.37257">
        <ele>2404.88</ele>
        <time>2014-03-17T06:57:03Z</time>
      </trkpt>
      <trkpt lat="42.75521" lon="0.37254">
        <ele>2407.28</ele>
        <time>2014-03-17T06:57:19Z</time>
      </trkpt>
      <trkpt lat="42.75516" lon="0.37247">
        <ele>2409.68</ele>
        <time>2014-03-17T06:57:33Z</time>
      </trkpt>
      <trkpt lat="42.75513" lon="0.37241">
        <ele>2410.16</ele>
        <time>2014-03-17T06:57:41Z</time>
      </trkpt>
      <trkpt lat="42.75505" lon="0.37238">
        <ele>2412.57</ele>
        <time>2014-03-17T06:57:54Z</time>
      </trkpt>
      <trkpt lat="42.75495" lon="0.37235">
        <ele>2415.45</ele>
        <time>2014-03-17T06:58:10Z</time>
      </trkpt>
      <trkpt lat="42.7549" lon="0.37225">
        <ele>2416.89</ele>
        <time>2014-03-17T06:58:25Z</time>
      </trkpt>
      <trkpt lat="42.75486" lon="0.37216">
        <ele>2418.33</ele>
        <time>2014-03-17T06:58:36Z</time>
      </trkpt>
      <trkpt lat="42.75482" lon="0.37204">
        <ele>2420.26</ele>
        <time>2014-03-17T06:58:50Z</time>
      </trkpt>
      <trkpt lat="42.7548" lon="0.37195">
        <ele>2422.18</ele>
        <time>2014-03-17T06:59:02Z</time>
      </trkpt>
      <trkpt lat="42.75474" lon="0.37188">
        <ele>2423.62</ele>
        <time>2014-03-17T06:59:13Z</time>
      </trkpt>
      <trkpt lat="42.75469" lon="0.37184">
        <ele>2425.54</ele>
        <time>2014-03-17T06:59:25Z</time>
      </trkpt>
      <trkpt lat="42.75463" lon="0.37177">
        <ele>2427.47</ele>
        <time>2014-03-17T06:59:37Z</time>
      </trkpt>
      <trkpt lat="42.75458" lon="0.3717">
        <ele>2430.35</ele>
        <time>2014-03-17T06:59:50Z</time>
      </trkpt>
      <trkpt lat="42.75456" lon="0.37165">
        <ele>2432.27</ele>
        <time>2014-03-17T07:00:01Z</time>
      </trkpt>
      <trkpt lat="42.75452" lon="0.37158">
        <ele>2434.68</ele>
        <time>2014-03-17T07:00:15Z</time>
      </trkpt>
      <trkpt lat="42.7545" lon="0.37155">
        <ele>2437.08</ele>
        <time>2014-03-17T07:00:28Z</time>
      </trkpt>
      <trkpt lat="42.75442" lon="0.37158">
        <ele>2438.04</ele>
        <time>2014-03-17T07:00:40Z</time>
      </trkpt>
      <trkpt lat="42.75435" lon="0.37166">
        <ele>2439.96</ele>
        <time>2014-03-17T07:00:54Z</time>
      </trkpt>
      <trkpt lat="42.7543" lon="0.37177">
        <ele>2442.37</ele>
        <time>2014-03-17T07:01:08Z</time>
      </trkpt>
      <trkpt lat="42.75422" lon="0.37185">
        <ele>2444.77</ele>
        <time>2014-03-17T07:01:22Z</time>
      </trkpt>
      <trkpt lat="42.75415" lon="0.37197">
        <ele>2446.69</ele>
        <time>2014-03-17T07:01:38Z</time>
      </trkpt>
      <trkpt lat="42.7541" lon="0.37206">
        <ele>2448.13</ele>
        <time>2014-03-17T07:01:50Z</time>
      </trkpt>
      <trkpt lat="42.75405" lon="0.37219">
        <ele>2450.06</ele>
        <time>2014-03-17T07:02:04Z</time>
      </trkpt>
      <trkpt lat="42.754" lon="0.37231">
        <ele>2451.98</ele>
        <time>2014-03-17T07:02:18Z</time>
      </trkpt>
      <trkpt lat="42.75395" lon="0.37244">
        <ele>2453.9</ele>
        <time>2014-03-17T07:02:32Z</time>
      </trkpt>
      <trkpt lat="42.75391" lon="0.37256">
        <ele>2455.82</ele>
        <time>2014-03-17T07:02:47Z</time>
      </trkpt>
      <trkpt lat="42.75386" lon="0.3727">
        <ele>2457.75</ele>
        <time>2014-03-17T07:03:02Z</time>
      </trkpt>
      <trkpt lat="42.75382" lon="0.37283">
        <ele>2459.19</ele>
        <time>2014-03-17T07:03:16Z</time>
      </trkpt>
      <trkpt lat="42.75382" lon="0.37285">
        <ele>2459.67</ele>
        <time>2014-03-17T07:03:18Z</time>
      </trkpt>
      <trkpt lat="42.75379" lon="0.37298">
        <ele>2461.11</ele>
        <time>2014-03-17T07:03:32Z</time>
      </trkpt>
      <trkpt lat="42.75378" lon="0.37314">
        <ele>2463.52</ele>
        <time>2014-03-17T07:03:48Z</time>
      </trkpt>
      <trkpt lat="42.75377" lon="0.37325">
        <ele>2465.44</ele>
        <time>2014-03-17T07:04:01Z</time>
      </trkpt>
      <trkpt lat="42.75375" lon="0.3734">
        <ele>2467.36</ele>
        <time>2014-03-17T07:04:16Z</time>
      </trkpt>
      <trkpt lat="42.75371" lon="0.37344">
        <ele>2468.8</ele>
        <time>2014-03-17T07:04:28Z</time>
      </trkpt>
      <trkpt lat="42.75372" lon="0.37342">
        <ele>2468.8</ele>
        <time>2014-03-17T07:04:35Z</time>
      </trkpt>
      <trkpt lat="42.75365" lon="0.37331">
        <ele>2471.21</ele>
        <time>2014-03-17T07:04:49Z</time>
      </trkpt>
      <trkpt lat="42.75357" lon="0.37319">
        <ele>2473.61</ele>
        <time>2014-03-17T07:05:05Z</time>
      </trkpt>
      <trkpt lat="42.75351" lon="0.37304">
        <ele>2475.05</ele>
        <time>2014-03-17T07:05:22Z</time>
      </trkpt>
      <trkpt lat="42.75346" lon="0.37292">
        <ele>2476.97</ele>
        <time>2014-03-17T07:05:37Z</time>
      </trkpt>
      <trkpt lat="42.75341" lon="0.37284">
        <ele>2478.9</ele>
        <time>2014-03-17T07:05:51Z</time>
      </trkpt>
      <trkpt lat="42.75335" lon="0.37272">
        <ele>2480.82</ele>
        <time>2014-03-17T07:06:06Z</time>
      </trkpt>
      <trkpt lat="42.75331" lon="0.37263">
        <ele>2482.74</ele>
        <time>2014-03-17T07:06:20Z</time>
      </trkpt>
      <trkpt lat="42.75324" lon="0.37256">
        <ele>2485.15</ele>
        <time>2014-03-17T07:06:33Z</time>
      </trkpt>
      <trkpt lat="42.75319" lon="0.37265">
        <ele>2487.07</ele>
        <time>2014-03-17T07:06:46Z</time>
      </trkpt>
      <trkpt lat="42.75314" lon="0.37273">
        <ele>2489.47</ele>
        <time>2014-03-17T07:06:59Z</time>
      </trkpt>
      <trkpt lat="42.75304" lon="0.3728">
        <ele>2492.36</ele>
        <time>2014-03-17T07:07:17Z</time>
      </trkpt>
      <trkpt lat="42.75301" lon="0.37283">
        <ele>2493.8</ele>
        <time>2014-03-17T07:07:34Z</time>
      </trkpt>
      <trkpt lat="42.753" lon="0.37284">
        <ele>2494.28</ele>
        <time>2014-03-17T07:07:36Z</time>
      </trkpt>
      <trkpt lat="42.75297" lon="0.37276">
        <ele>2495.72</ele>
        <time>2014-03-17T07:07:48Z</time>
      </trkpt>
      <trkpt lat="42.75291" lon="0.37272">
        <ele>2498.12</ele>
        <time>2014-03-17T07:08:02Z</time>
      </trkpt>
      <trkpt lat="42.7529" lon="0.37273">
        <ele>2498.6</ele>
        <time>2014-03-17T07:08:04Z</time>
      </trkpt>
      <trkpt lat="42.75285" lon="0.37272">
        <ele>2500.05</ele>
        <time>2014-03-17T07:08:15Z</time>
      </trkpt>
      <trkpt lat="42.75282" lon="0.37261">
        <ele>2501.49</ele>
        <time>2014-03-17T07:08:28Z</time>
      </trkpt>
      <trkpt lat="42.75278" lon="0.37254">
        <ele>2503.89</ele>
        <time>2014-03-17T07:08:42Z</time>
      </trkpt>
      <trkpt lat="42.75275" lon="0.37242">
        <ele>2505.81</ele>
        <time>2014-03-17T07:08:55Z</time>
      </trkpt>
      <trkpt lat="42.75276" lon="0.37229">
        <ele>2506.77</ele>
        <time>2014-03-17T07:09:09Z</time>
      </trkpt>
      <trkpt lat="42.75277" lon="0.37213">
        <ele>2508.22</ele>
        <time>2014-03-17T07:09:24Z</time>
      </trkpt>
      <trkpt lat="42.75272" lon="0.37206">
        <ele>2509.66</ele>
        <time>2014-03-17T07:09:36Z</time>
      </trkpt>
      <trkpt lat="42.7527" lon="0.37202">
        <ele>2509.66</ele>
        <time>2014-03-17T07:09:40Z</time>
      </trkpt>
      <trkpt lat="42.75262" lon="0.37191">
        <ele>2510.62</ele>
        <time>2014-03-17T07:09:54Z</time>
      </trkpt>
      <trkpt lat="42.75257" lon="0.37177">
        <ele>2510.62</ele>
        <time>2014-03-17T07:10:08Z</time>
      </trkpt>
      <trkpt lat="42.75255" lon="0.37164">
        <ele>2511.58</ele>
        <time>2014-03-17T07:10:19Z</time>
      </trkpt>
      <trkpt lat="42.75255" lon="0.37159">
        <ele>2512.06</ele>
        <time>2014-03-17T07:10:23Z</time>
      </trkpt>
      <trkpt lat="42.75258" lon="0.37149">
        <ele>2513.5</ele>
        <time>2014-03-17T07:10:33Z</time>
      </trkpt>
      <trkpt lat="42.75263" lon="0.37136">
        <ele>2516.39</ele>
        <time>2014-03-17T07:10:48Z</time>
      </trkpt>
      <trkpt lat="42.75265" lon="0.37123">
        <ele>2519.27</ele>
        <time>2014-03-17T07:11:02Z</time>
      </trkpt>
      <trkpt lat="42.75263" lon="0.37117">
        <ele>2519.75</ele>
        <time>2014-03-17T07:11:09Z</time>
      </trkpt>
      <trkpt lat="42.75261" lon="0.37109">
        <ele>2521.68</ele>
        <time>2014-03-17T07:11:23Z</time>
      </trkpt>
      <trkpt lat="42.75258" lon="0.37106">
        <ele>2522.64</ele>
        <time>2014-03-17T07:11:37Z</time>
      </trkpt>
      <trkpt lat="42.75255" lon="0.37106">
        <ele>2524.08</ele>
        <time>2014-03-17T07:11:53Z</time>
      </trkpt>
      <trkpt lat="42.7525" lon="0.37113">
        <ele>2524.56</ele>
        <time>2014-03-17T07:12:19Z</time>
      </trkpt>
      <trkpt lat="42.75243" lon="0.37127">
        <ele>2525.52</ele>
        <time>2014-03-17T07:12:33Z</time>
      </trkpt>
      <trkpt lat="42.75238" lon="0.37136">
        <ele>2525.52</ele>
        <time>2014-03-17T07:12:43Z</time>
      </trkpt>
      <trkpt lat="42.75231" lon="0.37149">
        <ele>2522.64</ele>
        <time>2014-03-17T07:13:00Z</time>
      </trkpt>
      <trkpt lat="42.75227" lon="0.37151">
        <ele>2521.68</ele>
        <time>2014-03-17T07:13:04Z</time>
      </trkpt>
      <trkpt lat="42.75213" lon="0.3715">
        <ele>2521.68</ele>
        <time>2014-03-17T07:13:21Z</time>
      </trkpt>
      <trkpt lat="42.75199" lon="0.37151">
        <ele>2521.68</ele>
        <time>2014-03-17T07:13:36Z</time>
      </trkpt>
      <trkpt lat="42.75187" lon="0.37152">
        <ele>2524.08</ele>
        <time>2014-03-17T07:13:50Z</time>
      </trkpt>
      <trkpt lat="42.75178" lon="0.37156">
        <ele>2526</ele>
        <time>2014-03-17T07:14:02Z</time>
      </trkpt>
      <trkpt lat="42.75166" lon="0.37154">
        <ele>2527.44</ele>
        <time>2014-03-17T07:14:16Z</time>
      </trkpt>
      <trkpt lat="42.75156" lon="0.37154">
        <ele>2529.37</ele>
        <time>2014-03-17T07:14:29Z</time>
      </trkpt>
      <trkpt lat="42.75147" lon="0.37158">
        <ele>2532.25</ele>
        <time>2014-03-17T07:14:43Z</time>
      </trkpt>
      <trkpt lat="42.75138" lon="0.37165">
        <ele>2533.69</ele>
        <time>2014-03-17T07:14:57Z</time>
      </trkpt>
      <trkpt lat="42.7513" lon="0.37172">
        <ele>2535.13</ele>
        <time>2014-03-17T07:15:10Z</time>
      </trkpt>
      <trkpt lat="42.75121" lon="0.37178">
        <ele>2537.54</ele>
        <time>2014-03-17T07:15:26Z</time>
      </trkpt>
      <trkpt lat="42.75112" lon="0.37184">
        <ele>2539.94</ele>
        <time>2014-03-17T07:15:40Z</time>
      </trkpt>
      <trkpt lat="42.75107" lon="0.37188">
        <ele>2540.9</ele>
        <time>2014-03-17T07:15:52Z</time>
      </trkpt>
      <trkpt lat="42.75101" lon="0.37193">
        <ele>2543.31</ele>
        <time>2014-03-17T07:16:07Z</time>
      </trkpt>
      <trkpt lat="42.75098" lon="0.3719">
        <ele>2545.23</ele>
        <time>2014-03-17T07:16:18Z</time>
      </trkpt>
      <trkpt lat="42.75092" lon="0.37176">
        <ele>2547.63</ele>
        <time>2014-03-17T07:16:33Z</time>
      </trkpt>
      <trkpt lat="42.75089" lon="0.37166">
        <ele>2549.55</ele>
        <time>2014-03-17T07:16:46Z</time>
      </trkpt>
      <trkpt lat="42.75087" lon="0.37153">
        <ele>2551.96</ele>
        <time>2014-03-17T07:17:00Z</time>
      </trkpt>
      <trkpt lat="42.75087" lon="0.37141">
        <ele>2553.88</ele>
        <time>2014-03-17T07:17:13Z</time>
      </trkpt>
      <trkpt lat="42.75087" lon="0.37124">
        <ele>2555.32</ele>
        <time>2014-03-17T07:17:28Z</time>
      </trkpt>
      <trkpt lat="42.75084" lon="0.37112">
        <ele>2557.24</ele>
        <time>2014-03-17T07:17:41Z</time>
      </trkpt>
      <trkpt lat="42.75079" lon="0.371">
        <ele>2559.65</ele>
        <time>2014-03-17T07:17:55Z</time>
      </trkpt>
      <trkpt lat="42.75075" lon="0.37088">
        <ele>2561.57</ele>
        <time>2014-03-17T07:18:08Z</time>
      </trkpt>
      <trkpt lat="42.75074" lon="0.37075">
        <ele>2563.49</ele>
        <time>2014-03-17T07:18:21Z</time>
      </trkpt>
      <trkpt lat="42.75073" lon="0.3707">
        <ele>2564.93</ele>
        <time>2014-03-17T07:18:29Z</time>
      </trkpt>
      <trkpt lat="42.75081" lon="0.3707">
        <ele>2566.86</ele>
        <time>2014-03-17T07:18:42Z</time>
      </trkpt>
      <trkpt lat="42.75088" lon="0.37068">
        <ele>2569.26</ele>
        <time>2014-03-17T07:18:56Z</time>
      </trkpt>
      <trkpt lat="42.7509" lon="0.37064">
        <ele>2570.22</ele>
        <time>2014-03-17T07:19:00Z</time>
      </trkpt>
      <trkpt lat="42.75092" lon="0.3706">
        <ele>2572.14</ele>
        <time>2014-03-17T07:19:16Z</time>
      </trkpt>
      <trkpt lat="42.75086" lon="0.37056">
        <ele>2573.11</ele>
        <time>2014-03-17T07:19:28Z</time>
      </trkpt>
      <trkpt lat="42.75079" lon="0.37046">
        <ele>2576.47</ele>
        <time>2014-03-17T07:19:42Z</time>
      </trkpt>
      <trkpt lat="42.75075" lon="0.37042">
        <ele>2578.87</ele>
        <time>2014-03-17T07:19:54Z</time>
      </trkpt>
      <trkpt lat="42.75075" lon="0.37041">
        <ele>2578.87</ele>
        <time>2014-03-17T07:19:57Z</time>
      </trkpt>
      <trkpt lat="42.7508" lon="0.37039">
        <ele>2580.32</ele>
        <time>2014-03-17T07:20:07Z</time>
      </trkpt>
      <trkpt lat="42.75081" lon="0.37031">
        <ele>2581.76</ele>
        <time>2014-03-17T07:20:20Z</time>
      </trkpt>
      <trkpt lat="42.7508" lon="0.37031">
        <ele>2583.2</ele>
        <time>2014-03-17T07:20:42Z</time>
      </trkpt>
      <trkpt lat="42.75073" lon="0.37025">
        <ele>2585.12</ele>
        <time>2014-03-17T07:20:55Z</time>
      </trkpt>
      <trkpt lat="42.75066" lon="0.37016">
        <ele>2587.04</ele>
        <time>2014-03-17T07:21:09Z</time>
      </trkpt>
      <trkpt lat="42.75055" lon="0.37007">
        <ele>2587.04</ele>
        <time>2014-03-17T07:21:24Z</time>
      </trkpt>
      <trkpt lat="42.75047" lon="0.37006">
        <ele>2588.97</ele>
        <time>2014-03-17T07:21:36Z</time>
      </trkpt>
      <trkpt lat="42.75046" lon="0.37005">
        <ele>2589.45</ele>
        <time>2014-03-17T07:21:38Z</time>
      </trkpt>
      <trkpt lat="42.75041" lon="0.36994">
        <ele>2591.37</ele>
        <time>2014-03-17T07:21:51Z</time>
      </trkpt>
      <trkpt lat="42.7504" lon="0.3698">
        <ele>2593.29</ele>
        <time>2014-03-17T07:22:05Z</time>
      </trkpt>
      <trkpt lat="42.7504" lon="0.36978">
        <ele>2593.29</ele>
        <time>2014-03-17T07:22:07Z</time>
      </trkpt>
      <trkpt lat="42.75039" lon="0.36967">
        <ele>2595.7</ele>
        <time>2014-03-17T07:22:21Z</time>
      </trkpt>
      <trkpt lat="42.75034" lon="0.36955">
        <ele>2598.1</ele>
        <time>2014-03-17T07:22:36Z</time>
      </trkpt>
      <trkpt lat="42.75034" lon="0.36954">
        <ele>2598.58</ele>
        <time>2014-03-17T07:22:53Z</time>
      </trkpt>
      <trkpt lat="42.75034" lon="0.36955">
        <ele>2598.58</ele>
        <time>2014-03-17T07:23:21Z</time>
      </trkpt>
      <trkpt lat="42.75033" lon="0.36956">
        <ele>2598.1</ele>
        <time>2014-03-17T07:23:36Z</time>
      </trkpt>
      <trkpt lat="42.75033" lon="0.36956">
        <ele>2598.58</ele>
        <time>2014-03-17T07:24:04Z</time>
      </trkpt>
      <trkpt lat="42.75032" lon="0.36956">
        <ele>2599.06</ele>
        <time>2014-03-17T07:24:22Z</time>
      </trkpt>
      <trkpt lat="42.75032" lon="0.36958">
        <ele>2597.14</ele>
        <time>2014-03-17T07:24:26Z</time>
      </trkpt>
      <trkpt lat="42.7503" lon="0.36958">
        <ele>2597.14</ele>
        <time>2014-03-17T07:25:10Z</time>
      </trkpt>
      <trkpt lat="42.7503" lon="0.36958">
        <ele>2597.62</ele>
        <time>2014-03-17T07:25:43Z</time>
      </trkpt>
      <trkpt lat="42.7503" lon="0.36957">
        <ele>2597.14</ele>
        <time>2014-03-17T07:26:04Z</time>
      </trkpt>
      <trkpt lat="42.75031" lon="0.36963">
        <ele>2597.62</ele>
        <time>2014-03-17T07:26:24Z</time>
      </trkpt>
      <trkpt lat="42.75029" lon="0.36959">
        <ele>2598.1</ele>
        <time>2014-03-17T07:26:54Z</time>
      </trkpt>
      <trkpt lat="42.75031" lon="0.36957">
        <ele>2597.62</ele>
        <time>2014-03-17T07:27:24Z</time>
      </trkpt>
      <trkpt lat="42.75031" lon="0.36958">
        <ele>2598.1</ele>
        <time>2014-03-17T07:27:59Z</time>
      </trkpt>
      <trkpt lat="42.75032" lon="0.36957">
        <ele>2597.62</ele>
        <time>2014-03-17T07:28:36Z</time>
      </trkpt>
      <trkpt lat="42.75032" lon="0.36957">
        <ele>2598.1</ele>
        <time>2014-03-17T07:29:24Z</time>
      </trkpt>
      <trkpt lat="42.75032" lon="0.36957">
        <ele>2598.58</ele>
        <time>2014-03-17T07:30:10Z</time>
      </trkpt>
      <trkpt lat="42.75031" lon="0.36957">
        <ele>2600.02</ele>
        <time>2014-03-17T07:30:26Z</time>
      </trkpt>
      <trkpt lat="42.75032" lon="0.36957">
        <ele>2600.02</ele>
        <time>2014-03-17T07:30:31Z</time>
      </trkpt>
      <trkpt lat="42.75032" lon="0.36955">
        <ele>2599.06</ele>
        <time>2014-03-17T07:30:42Z</time>
      </trkpt>
      <trkpt lat="42.75034" lon="0.36957">
        <ele>2600.02</ele>
        <time>2014-03-17T07:31:02Z</time>
      </trkpt>
      <trkpt lat="42.75033" lon="0.36956">
        <ele>2600.98</ele>
        <time>2014-03-17T07:31:19Z</time>
      </trkpt>
      <trkpt lat="42.75031" lon="0.36957">
        <ele>2601.46</ele>
        <time>2014-03-17T07:31:35Z</time>
      </trkpt>
      <trkpt lat="42.75031" lon="0.36958">
        <ele>2600.98</ele>
        <time>2014-03-17T07:31:48Z</time>
      </trkpt>
      <trkpt lat="42.75032" lon="0.36956">
        <ele>2600.5</ele>
        <time>2014-03-17T07:31:59Z</time>
      </trkpt>
      <trkpt lat="42.7503" lon="0.36955">
        <ele>2600.5</ele>
        <time>2014-03-17T07:32:07Z</time>
      </trkpt>
      <trkpt lat="42.75005" lon="0.36972">
        <ele>2596.18</ele>
        <time>2014-03-17T07:32:16Z</time>
      </trkpt>
      <trkpt lat="42.74986" lon="0.36979">
        <ele>2592.33</ele>
        <time>2014-03-17T07:32:21Z</time>
      </trkpt>
      <trkpt lat="42.74984" lon="0.36977">
        <ele>2591.85</ele>
        <time>2014-03-17T07:32:22Z</time>
      </trkpt>
      <trkpt lat="42.74977" lon="0.36968">
        <ele>2590.41</ele>
        <time>2014-03-17T07:32:25Z</time>
      </trkpt>
      <trkpt lat="42.74979" lon="0.36957">
        <ele>2586.56</ele>
        <time>2014-03-17T07:32:28Z</time>
      </trkpt>
      <trkpt lat="42.74977" lon="0.36952">
        <ele>2585.12</ele>
        <time>2014-03-17T07:32:29Z</time>
      </trkpt>
      <trkpt lat="42.74962" lon="0.3692">
        <ele>2579.84</ele>
        <time>2014-03-17T07:32:33Z</time>
      </trkpt>
      <trkpt lat="42.7496" lon="0.36912">
        <ele>2579.35</ele>
        <time>2014-03-17T07:32:34Z</time>
      </trkpt>
      <trkpt lat="42.74946" lon="0.36836">
        <ele>2576.47</ele>
        <time>2014-03-17T07:32:47Z</time>
      </trkpt>
      <trkpt lat="42.74931" lon="0.36784">
        <ele>2573.59</ele>
        <time>2014-03-17T07:32:58Z</time>
      </trkpt>
      <trkpt lat="42.7492" lon="0.36734">
        <ele>2570.22</ele>
        <time>2014-03-17T07:33:09Z</time>
      </trkpt>
      <trkpt lat="42.7491" lon="0.36706">
        <ele>2568.3</ele>
        <time>2014-03-17T07:33:22Z</time>
      </trkpt>
      <trkpt lat="42.74913" lon="0.36708">
        <ele>2567.82</ele>
        <time>2014-03-17T07:33:27Z</time>
      </trkpt>
      <trkpt lat="42.74936" lon="0.36734">
        <ele>2564.45</ele>
        <time>2014-03-17T07:33:37Z</time>
      </trkpt>
      <trkpt lat="42.74939" lon="0.36736">
        <ele>2563.97</ele>
        <time>2014-03-17T07:33:38Z</time>
      </trkpt>
      <trkpt lat="42.74944" lon="0.36734">
        <ele>2562.53</ele>
        <time>2014-03-17T07:33:40Z</time>
      </trkpt>
      <trkpt lat="42.74945" lon="0.36729">
        <ele>2561.09</ele>
        <time>2014-03-17T07:33:42Z</time>
      </trkpt>
      <trkpt lat="42.74952" lon="0.3673">
        <ele>2558.21</ele>
        <time>2014-03-17T07:33:46Z</time>
      </trkpt>
      <trkpt lat="42.74952" lon="0.3673">
        <ele>2558.21</ele>
        <time>2014-03-17T07:33:48Z</time>
      </trkpt>
      <trkpt lat="42.74952" lon="0.36718">
        <ele>2556.28</ele>
        <time>2014-03-17T07:33:52Z</time>
      </trkpt>
      <trkpt lat="42.74945" lon="0.36704">
        <ele>2554.36</ele>
        <time>2014-03-17T07:33:55Z</time>
      </trkpt>
      <trkpt lat="42.74936" lon="0.3669">
        <ele>2552.44</ele>
        <time>2014-03-17T07:33:58Z</time>
      </trkpt>
      <trkpt lat="42.7493" lon="0.36671">
        <ele>2547.63</ele>
        <time>2014-03-17T07:34:04Z</time>
      </trkpt>
      <trkpt lat="42.74935" lon="0.36664">
        <ele>2544.75</ele>
        <time>2014-03-17T07:34:07Z</time>
      </trkpt>
      <trkpt lat="42.74918" lon="0.36644">
        <ele>2541.38</ele>
        <time>2014-03-17T07:34:12Z</time>
      </trkpt>
      <trkpt lat="42.74892" lon="0.36622">
        <ele>2537.54</ele>
        <time>2014-03-17T07:34:17Z</time>
      </trkpt>
      <trkpt lat="42.74879" lon="0.36611">
        <ele>2536.1</ele>
        <time>2014-03-17T07:34:19Z</time>
      </trkpt>
      <trkpt lat="42.74869" lon="0.36604">
        <ele>2535.61</ele>
        <time>2014-03-17T07:34:21Z</time>
      </trkpt>
      <trkpt lat="42.74848" lon="0.36574">
        <ele>2532.25</ele>
        <time>2014-03-17T07:34:26Z</time>
      </trkpt>
      <trkpt lat="42.74841" lon="0.3655">
        <ele>2530.33</ele>
        <time>2014-03-17T07:34:29Z</time>
      </trkpt>
      <trkpt lat="42.74833" lon="0.36514">
        <ele>2527.92</ele>
        <time>2014-03-17T07:34:35Z</time>
      </trkpt>
      <trkpt lat="42.74825" lon="0.36492">
        <ele>2524.08</ele>
        <time>2014-03-17T07:34:38Z</time>
      </trkpt>
      <trkpt lat="42.74805" lon="0.36465">
        <ele>2520.71</ele>
        <time>2014-03-17T07:34:47Z</time>
      </trkpt>
      <trkpt lat="42.74803" lon="0.36465">
        <ele>2520.71</ele>
        <time>2014-03-17T07:34:53Z</time>
      </trkpt>
      <trkpt lat="42.74793" lon="0.36464">
        <ele>2518.79</ele>
        <time>2014-03-17T07:34:57Z</time>
      </trkpt>
      <trkpt lat="42.74777" lon="0.36446">
        <ele>2514.47</ele>
        <time>2014-03-17T07:35:03Z</time>
      </trkpt>
      <trkpt lat="42.74778" lon="0.36433">
        <ele>2510.62</ele>
        <time>2014-03-17T07:35:06Z</time>
      </trkpt>
      <trkpt lat="42.74778" lon="0.36419">
        <ele>2507.26</ele>
        <time>2014-03-17T07:35:09Z</time>
      </trkpt>
      <trkpt lat="42.74778" lon="0.36413">
        <ele>2504.85</ele>
        <time>2014-03-17T07:35:10Z</time>
      </trkpt>
      <trkpt lat="42.74778" lon="0.36382">
        <ele>2498.12</ele>
        <time>2014-03-17T07:35:15Z</time>
      </trkpt>
      <trkpt lat="42.74773" lon="0.36373">
        <ele>2497.16</ele>
        <time>2014-03-17T07:35:17Z</time>
      </trkpt>
      <trkpt lat="42.74755" lon="0.36357">
        <ele>2496.68</ele>
        <time>2014-03-17T07:35:29Z</time>
      </trkpt>
      <trkpt lat="42.74755" lon="0.36356">
        <ele>2496.68</ele>
        <time>2014-03-17T07:35:31Z</time>
      </trkpt>
      <trkpt lat="42.74732" lon="0.36335">
        <ele>2493.32</ele>
        <time>2014-03-17T07:35:39Z</time>
      </trkpt>
      <trkpt lat="42.74721" lon="0.36326">
        <ele>2491.39</ele>
        <time>2014-03-17T07:35:42Z</time>
      </trkpt>
      <trkpt lat="42.74718" lon="0.36323">
        <ele>2490.91</ele>
        <time>2014-03-17T07:35:43Z</time>
      </trkpt>
      <trkpt lat="42.74708" lon="0.36309">
        <ele>2487.55</ele>
        <time>2014-03-17T07:35:47Z</time>
      </trkpt>
      <trkpt lat="42.74707" lon="0.36305">
        <ele>2486.59</ele>
        <time>2014-03-17T07:35:48Z</time>
      </trkpt>
      <trkpt lat="42.74709" lon="0.36298">
        <ele>2482.26</ele>
        <time>2014-03-17T07:35:51Z</time>
      </trkpt>
      <trkpt lat="42.74712" lon="0.36293">
        <ele>2479.38</ele>
        <time>2014-03-17T07:35:54Z</time>
      </trkpt>
      <trkpt lat="42.74705" lon="0.36282">
        <ele>2476.97</ele>
        <time>2014-03-17T07:35:58Z</time>
      </trkpt>
      <trkpt lat="42.74704" lon="0.3628">
        <ele>2476.49</ele>
        <time>2014-03-17T07:36:05Z</time>
      </trkpt>
      <trkpt lat="42.747" lon="0.3627">
        <ele>2475.05</ele>
        <time>2014-03-17T07:36:16Z</time>
      </trkpt>
      <trkpt lat="42.747" lon="0.3627">
        <ele>2475.05</ele>
        <time>2014-03-17T07:36:18Z</time>
      </trkpt>
      <trkpt lat="42.74707" lon="0.36269">
        <ele>2472.17</ele>
        <time>2014-03-17T07:36:23Z</time>
      </trkpt>
      <trkpt lat="42.74712" lon="0.36271">
        <ele>2470.24</ele>
        <time>2014-03-17T07:36:25Z</time>
      </trkpt>
      <trkpt lat="42.74711" lon="0.3626">
        <ele>2466.88</ele>
        <time>2014-03-17T07:36:29Z</time>
      </trkpt>
      <trkpt lat="42.74707" lon="0.36253">
        <ele>2465.44</ele>
        <time>2014-03-17T07:36:32Z</time>
      </trkpt>
      <trkpt lat="42.74699" lon="0.36239">
        <ele>2462.55</ele>
        <time>2014-03-17T07:36:37Z</time>
      </trkpt>
      <trkpt lat="42.74703" lon="0.36233">
        <ele>2458.23</ele>
        <time>2014-03-17T07:36:41Z</time>
      </trkpt>
      <trkpt lat="42.747" lon="0.36224">
        <ele>2454.38</ele>
        <time>2014-03-17T07:36:45Z</time>
      </trkpt>
      <trkpt lat="42.74706" lon="0.36218">
        <ele>2450.06</ele>
        <time>2014-03-17T07:36:49Z</time>
      </trkpt>
      <trkpt lat="42.74702" lon="0.36213">
        <ele>2447.17</ele>
        <time>2014-03-17T07:36:53Z</time>
      </trkpt>
      <trkpt lat="42.74685" lon="0.36199">
        <ele>2444.29</ele>
        <time>2014-03-17T07:37:00Z</time>
      </trkpt>
      <trkpt lat="42.74676" lon="0.36191">
        <ele>2440.92</ele>
        <time>2014-03-17T07:37:03Z</time>
      </trkpt>
      <trkpt lat="42.74665" lon="0.36175">
        <ele>2437.56</ele>
        <time>2014-03-17T07:37:09Z</time>
      </trkpt>
      <trkpt lat="42.74664" lon="0.36173">
        <ele>2437.56</ele>
        <time>2014-03-17T07:37:10Z</time>
      </trkpt>
      <trkpt lat="42.74662" lon="0.36155">
        <ele>2432.27</ele>
        <time>2014-03-17T07:37:13Z</time>
      </trkpt>
      <trkpt lat="42.74659" lon="0.3615">
        <ele>2430.83</ele>
        <time>2014-03-17T07:37:14Z</time>
      </trkpt>
      <trkpt lat="42.74655" lon="0.36147">
        <ele>2429.87</ele>
        <time>2014-03-17T07:37:26Z</time>
      </trkpt>
      <trkpt lat="42.74654" lon="0.36146">
        <ele>2429.87</ele>
        <time>2014-03-17T07:37:53Z</time>
      </trkpt>
      <trkpt lat="42.74654" lon="0.36145">
        <ele>2429.87</ele>
        <time>2014-03-17T07:38:11Z</time>
      </trkpt>
      <trkpt lat="42.7465" lon="0.36131">
        <ele>2427.47</ele>
        <time>2014-03-17T07:38:18Z</time>
      </trkpt>
      <trkpt lat="42.74654" lon="0.36131">
        <ele>2424.1</ele>
        <time>2014-03-17T07:38:22Z</time>
      </trkpt>
      <trkpt lat="42.74658" lon="0.36133">
        <ele>2423.14</ele>
        <time>2014-03-17T07:38:24Z</time>
      </trkpt>
      <trkpt lat="42.74665" lon="0.36138">
        <ele>2421.7</ele>
        <time>2014-03-17T07:38:27Z</time>
      </trkpt>
      <trkpt lat="42.74665" lon="0.36127">
        <ele>2417.85</ele>
        <time>2014-03-17T07:38:33Z</time>
      </trkpt>
      <trkpt lat="42.74663" lon="0.36122">
        <ele>2416.89</ele>
        <time>2014-03-17T07:38:35Z</time>
      </trkpt>
      <trkpt lat="42.74656" lon="0.36108">
        <ele>2414.49</ele>
        <time>2014-03-17T07:38:40Z</time>
      </trkpt>
      <trkpt lat="42.74663" lon="0.36106">
        <ele>2410.64</ele>
        <time>2014-03-17T07:38:44Z</time>
      </trkpt>
      <trkpt lat="42.74665" lon="0.36108">
        <ele>2410.16</ele>
        <time>2014-03-17T07:38:45Z</time>
      </trkpt>
      <trkpt lat="42.74672" lon="0.36111">
        <ele>2408.72</ele>
        <time>2014-03-17T07:38:48Z</time>
      </trkpt>
      <trkpt lat="42.74671" lon="0.36099">
        <ele>2405.36</ele>
        <time>2014-03-17T07:38:53Z</time>
      </trkpt>
      <trkpt lat="42.74666" lon="0.36085">
        <ele>2401.99</ele>
        <time>2014-03-17T07:38:58Z</time>
      </trkpt>
      <trkpt lat="42.74659" lon="0.36062">
        <ele>2398.63</ele>
        <time>2014-03-17T07:39:02Z</time>
      </trkpt>
      <trkpt lat="42.74652" lon="0.36038">
        <ele>2395.26</ele>
        <time>2014-03-17T07:39:06Z</time>
      </trkpt>
      <trkpt lat="42.74647" lon="0.36016">
        <ele>2391.9</ele>
        <time>2014-03-17T07:39:11Z</time>
      </trkpt>
      <trkpt lat="42.74646" lon="0.3601">
        <ele>2389.97</ele>
        <time>2014-03-17T07:39:14Z</time>
      </trkpt>
      <trkpt lat="42.7465" lon="0.36008">
        <ele>2386.61</ele>
        <time>2014-03-17T07:39:18Z</time>
      </trkpt>
      <trkpt lat="42.74651" lon="0.35995">
        <ele>2381.32</ele>
        <time>2014-03-17T07:39:24Z</time>
      </trkpt>
      <trkpt lat="42.7465" lon="0.35993">
        <ele>2380.84</ele>
        <time>2014-03-17T07:39:25Z</time>
      </trkpt>
      <trkpt lat="42.74654" lon="0.35989">
        <ele>2377</ele>
        <time>2014-03-17T07:39:28Z</time>
      </trkpt>
      <trkpt lat="42.74655" lon="0.35989">
        <ele>2376.04</ele>
        <time>2014-03-17T07:39:29Z</time>
      </trkpt>
      <trkpt lat="42.74656" lon="0.3598">
        <ele>2372.19</ele>
        <time>2014-03-17T07:39:33Z</time>
      </trkpt>
      <trkpt lat="42.74653" lon="0.35977">
        <ele>2371.71</ele>
        <time>2014-03-17T07:39:35Z</time>
      </trkpt>
      <trkpt lat="42.74647" lon="0.35966">
        <ele>2369.79</ele>
        <time>2014-03-17T07:39:45Z</time>
      </trkpt>
      <trkpt lat="42.74634" lon="0.35947">
        <ele>2366.42</ele>
        <time>2014-03-17T07:39:50Z</time>
      </trkpt>
      <trkpt lat="42.74624" lon="0.35932">
        <ele>2362.58</ele>
        <time>2014-03-17T07:39:52Z</time>
      </trkpt>
      <trkpt lat="42.74615" lon="0.35915">
        <ele>2359.69</ele>
        <time>2014-03-17T07:39:54Z</time>
      </trkpt>
      <trkpt lat="42.74605" lon="0.35897">
        <ele>2355.85</ele>
        <time>2014-03-17T07:39:57Z</time>
      </trkpt>
      <trkpt lat="42.74591" lon="0.35867">
        <ele>2352</ele>
        <time>2014-03-17T07:40:02Z</time>
      </trkpt>
      <trkpt lat="42.74577" lon="0.35839">
        <ele>2349.12</ele>
        <time>2014-03-17T07:40:06Z</time>
      </trkpt>
      <trkpt lat="42.74572" lon="0.35829">
        <ele>2348.16</ele>
        <time>2014-03-17T07:40:08Z</time>
      </trkpt>
      <trkpt lat="42.74568" lon="0.35826">
        <ele>2347.68</ele>
        <time>2014-03-17T07:40:16Z</time>
      </trkpt>
      <trkpt lat="42.74566" lon="0.35826">
        <ele>2347.2</ele>
        <time>2014-03-17T07:40:33Z</time>
      </trkpt>
      <trkpt lat="42.74568" lon="0.35825">
        <ele>2347.2</ele>
        <time>2014-03-17T07:40:44Z</time>
      </trkpt>
      <trkpt lat="42.74568" lon="0.35827">
        <ele>2346.72</ele>
        <time>2014-03-17T07:40:57Z</time>
      </trkpt>
      <trkpt lat="42.74563" lon="0.35831">
        <ele>2346.23</ele>
        <time>2014-03-17T07:41:25Z</time>
      </trkpt>
      <trkpt lat="42.74562" lon="0.35837">
        <ele>2346.23</ele>
        <time>2014-03-17T07:42:04Z</time>
      </trkpt>
      <trkpt lat="42.74563" lon="0.35837">
        <ele>2346.23</ele>
        <time>2014-03-17T07:42:29Z</time>
      </trkpt>
      <trkpt lat="42.74566" lon="0.3583">
        <ele>2346.23</ele>
        <time>2014-03-17T07:43:13Z</time>
      </trkpt>
      <trkpt lat="42.74568" lon="0.35834">
        <ele>2346.23</ele>
        <time>2014-03-17T07:43:40Z</time>
      </trkpt>
      <trkpt lat="42.74565" lon="0.35833">
        <ele>2345.75</ele>
        <time>2014-03-17T07:44:02Z</time>
      </trkpt>
      <trkpt lat="42.74567" lon="0.35829">
        <ele>2346.23</ele>
        <time>2014-03-17T07:44:29Z</time>
      </trkpt>
      <trkpt lat="42.74569" lon="0.35828">
        <ele>2346.72</ele>
        <time>2014-03-17T07:44:48Z</time>
      </trkpt>
      <trkpt lat="42.74567" lon="0.3583">
        <ele>2346.72</ele>
        <time>2014-03-17T07:45:07Z</time>
      </trkpt>
      <trkpt lat="42.74566" lon="0.35831">
        <ele>2346.72</ele>
        <time>2014-03-17T07:45:17Z</time>
      </trkpt>
      <trkpt lat="42.74566" lon="0.35829">
        <ele>2347.2</ele>
        <time>2014-03-17T07:45:30Z</time>
      </trkpt>
      <trkpt lat="42.74557" lon="0.35818">
        <ele>2349.6</ele>
        <time>2014-03-17T07:45:45Z</time>
      </trkpt>
      <trkpt lat="42.74547" lon="0.35812">
        <ele>2351.52</ele>
        <time>2014-03-17T07:45:59Z</time>
      </trkpt>
      <trkpt lat="42.74539" lon="0.35805">
        <ele>2353.93</ele>
        <time>2014-03-17T07:46:12Z</time>
      </trkpt>
      <trkpt lat="42.74531" lon="0.35796">
        <ele>2355.37</ele>
        <time>2014-03-17T07:46:25Z</time>
      </trkpt>
      <trkpt lat="42.74526" lon="0.35791">
        <ele>2356.33</ele>
        <time>2014-03-17T07:46:37Z</time>
      </trkpt>
      <trkpt lat="42.74519" lon="0.35784">
        <ele>2356.81</ele>
        <time>2014-03-17T07:46:50Z</time>
      </trkpt>
      <trkpt lat="42.74518" lon="0.35783">
        <ele>2357.29</ele>
        <time>2014-03-17T07:46:52Z</time>
      </trkpt>
      <trkpt lat="42.74512" lon="0.3578">
        <ele>2358.73</ele>
        <time>2014-03-17T07:47:00Z</time>
      </trkpt>
      <trkpt lat="42.74502" lon="0.35771">
        <ele>2360.65</ele>
        <time>2014-03-17T07:47:16Z</time>
      </trkpt>
      <trkpt lat="42.74493" lon="0.35763">
        <ele>2362.1</ele>
        <time>2014-03-17T07:47:29Z</time>
      </trkpt>
      <trkpt lat="42.74486" lon="0.35753">
        <ele>2364.5</ele>
        <time>2014-03-17T07:47:44Z</time>
      </trkpt>
      <trkpt lat="42.74481" lon="0.35743">
        <ele>2366.42</ele>
        <time>2014-03-17T07:47:57Z</time>
      </trkpt>
      <trkpt lat="42.74475" lon="0.35737">
        <ele>2368.35</ele>
        <time>2014-03-17T07:48:11Z</time>
      </trkpt>
      <trkpt lat="42.74471" lon="0.35734">
        <ele>2369.31</ele>
        <time>2014-03-17T07:48:18Z</time>
      </trkpt>
      <trkpt lat="42.74461" lon="0.35729">
        <ele>2371.23</ele>
        <time>2014-03-17T07:48:31Z</time>
      </trkpt>
      <trkpt lat="42.74454" lon="0.35722">
        <ele>2373.15</ele>
        <time>2014-03-17T07:48:44Z</time>
      </trkpt>
      <trkpt lat="42.74447" lon="0.35714">
        <ele>2375.07</ele>
        <time>2014-03-17T07:48:59Z</time>
      </trkpt>
      <trkpt lat="42.74447" lon="0.35716">
        <ele>2376.52</ele>
        <time>2014-03-17T07:49:13Z</time>
      </trkpt>
      <trkpt lat="42.74447" lon="0.35726">
        <ele>2377.96</ele>
        <time>2014-03-17T07:49:25Z</time>
      </trkpt>
      <trkpt lat="42.74447" lon="0.35736">
        <ele>2379.4</ele>
        <time>2014-03-17T07:49:37Z</time>
      </trkpt>
      <trkpt lat="42.74446" lon="0.35745">
        <ele>2381.32</ele>
        <time>2014-03-17T07:49:50Z</time>
      </trkpt>
      <trkpt lat="42.74447" lon="0.35757">
        <ele>2383.73</ele>
        <time>2014-03-17T07:50:08Z</time>
      </trkpt>
      <trkpt lat="42.74446" lon="0.35771">
        <ele>2386.13</ele>
        <time>2014-03-17T07:50:25Z</time>
      </trkpt>
      <trkpt lat="42.74447" lon="0.35782">
        <ele>2388.05</ele>
        <time>2014-03-17T07:50:40Z</time>
      </trkpt>
      <trkpt lat="42.74447" lon="0.35782">
        <ele>2388.05</ele>
        <time>2014-03-17T07:50:42Z</time>
      </trkpt>
      <trkpt lat="42.74439" lon="0.35777">
        <ele>2390.46</ele>
        <time>2014-03-17T07:50:57Z</time>
      </trkpt>
      <trkpt lat="42.7443" lon="0.35768">
        <ele>2392.38</ele>
        <time>2014-03-17T07:51:13Z</time>
      </trkpt>
      <trkpt lat="42.74421" lon="0.35756">
        <ele>2395.26</ele>
        <time>2014-03-17T07:51:33Z</time>
      </trkpt>
      <trkpt lat="42.74411" lon="0.35744">
        <ele>2397.67</ele>
        <time>2014-03-17T07:51:52Z</time>
      </trkpt>
      <trkpt lat="42.74404" lon="0.35733">
        <ele>2399.59</ele>
        <time>2014-03-17T07:52:08Z</time>
      </trkpt>
      <trkpt lat="42.74397" lon="0.35722">
        <ele>2402.47</ele>
        <time>2014-03-17T07:52:28Z</time>
      </trkpt>
      <trkpt lat="42.74397" lon="0.35729">
        <ele>2403.91</ele>
        <time>2014-03-17T07:52:40Z</time>
      </trkpt>
      <trkpt lat="42.74396" lon="0.35739">
        <ele>2405.84</ele>
        <time>2014-03-17T07:52:53Z</time>
      </trkpt>
      <trkpt lat="42.74395" lon="0.35751">
        <ele>2407.76</ele>
        <time>2014-03-17T07:53:08Z</time>
      </trkpt>
      <trkpt lat="42.74396" lon="0.35763">
        <ele>2410.16</ele>
        <time>2014-03-17T07:53:24Z</time>
      </trkpt>
      <trkpt lat="42.74396" lon="0.35766">
        <ele>2411.12</ele>
        <time>2014-03-17T07:53:42Z</time>
      </trkpt>
      <trkpt lat="42.74389" lon="0.35758">
        <ele>2412.57</ele>
        <time>2014-03-17T07:53:55Z</time>
      </trkpt>
      <trkpt lat="42.74383" lon="0.35752">
        <ele>2414.49</ele>
        <time>2014-03-17T07:54:09Z</time>
      </trkpt>
      <trkpt lat="42.74379" lon="0.35745">
        <ele>2415.93</ele>
        <time>2014-03-17T07:54:17Z</time>
      </trkpt>
      <trkpt lat="42.74377" lon="0.35741">
        <ele>2416.41</ele>
        <time>2014-03-17T07:54:22Z</time>
      </trkpt>
      <trkpt lat="42.74372" lon="0.35731">
        <ele>2418.81</ele>
        <time>2014-03-17T07:54:35Z</time>
      </trkpt>
      <trkpt lat="42.74368" lon="0.35722">
        <ele>2420.26</ele>
        <time>2014-03-17T07:54:49Z</time>
      </trkpt>
      <trkpt lat="42.74368" lon="0.35717">
        <ele>2421.22</ele>
        <time>2014-03-17T07:55:01Z</time>
      </trkpt>
      <trkpt lat="42.74368" lon="0.35718">
        <ele>2421.22</ele>
        <time>2014-03-17T07:55:03Z</time>
      </trkpt>
      <trkpt lat="42.74368" lon="0.35723">
        <ele>2421.7</ele>
        <time>2014-03-17T07:55:15Z</time>
      </trkpt>
      <trkpt lat="42.74367" lon="0.35731">
        <ele>2423.62</ele>
        <time>2014-03-17T07:55:27Z</time>
      </trkpt>
      <trkpt lat="42.74364" lon="0.35743">
        <ele>2426.02</ele>
        <time>2014-03-17T07:55:44Z</time>
      </trkpt>
      <trkpt lat="42.74363" lon="0.35753">
        <ele>2427.47</ele>
        <time>2014-03-17T07:55:57Z</time>
      </trkpt>
      <trkpt lat="42.74362" lon="0.3576">
        <ele>2428.91</ele>
        <time>2014-03-17T07:56:09Z</time>
      </trkpt>
      <trkpt lat="42.74362" lon="0.35769">
        <ele>2430.35</ele>
        <time>2014-03-17T07:56:21Z</time>
      </trkpt>
      <trkpt lat="42.74363" lon="0.35779">
        <ele>2431.79</ele>
        <time>2014-03-17T07:56:34Z</time>
      </trkpt>
      <trkpt lat="42.74364" lon="0.35787">
        <ele>2433.23</ele>
        <time>2014-03-17T07:56:46Z</time>
      </trkpt>
      <trkpt lat="42.74361" lon="0.35784">
        <ele>2434.2</ele>
        <time>2014-03-17T07:57:00Z</time>
      </trkpt>
      <trkpt lat="42.74353" lon="0.35774">
        <ele>2436.6</ele>
        <time>2014-03-17T07:57:16Z</time>
      </trkpt>
      <trkpt lat="42.74345" lon="0.35764">
        <ele>2438.52</ele>
        <time>2014-03-17T07:57:34Z</time>
      </trkpt>
      <trkpt lat="42.74338" lon="0.35752">
        <ele>2440.44</ele>
        <time>2014-03-17T07:57:48Z</time>
      </trkpt>
      <trkpt lat="42.74334" lon="0.35743">
        <ele>2442.37</ele>
        <time>2014-03-17T07:58:04Z</time>
      </trkpt>
      <trkpt lat="42.7433" lon="0.35733">
        <ele>2444.29</ele>
        <time>2014-03-17T07:58:16Z</time>
      </trkpt>
      <trkpt lat="42.74326" lon="0.35725">
        <ele>2446.21</ele>
        <time>2014-03-17T07:58:31Z</time>
      </trkpt>
      <trkpt lat="42.74321" lon="0.35717">
        <ele>2448.13</ele>
        <time>2014-03-17T07:58:44Z</time>
      </trkpt>
      <trkpt lat="42.74314" lon="0.35705">
        <ele>2450.06</ele>
        <time>2014-03-17T07:59:01Z</time>
      </trkpt>
      <trkpt lat="42.74311" lon="0.35697">
        <ele>2451.98</ele>
        <time>2014-03-17T07:59:14Z</time>
      </trkpt>
      <trkpt lat="42.74308" lon="0.35689">
        <ele>2453.42</ele>
        <time>2014-03-17T07:59:27Z</time>
      </trkpt>
      <trkpt lat="42.74303" lon="0.3568">
        <ele>2454.86</ele>
        <time>2014-03-17T07:59:40Z</time>
      </trkpt>
      <trkpt lat="42.74298" lon="0.35674">
        <ele>2456.79</ele>
        <time>2014-03-17T07:59:54Z</time>
      </trkpt>
      <trkpt lat="42.74293" lon="0.35665">
        <ele>2458.23</ele>
        <time>2014-03-17T08:00:07Z</time>
      </trkpt>
      <trkpt lat="42.74287" lon="0.35655">
        <ele>2460.63</ele>
        <time>2014-03-17T08:00:25Z</time>
      </trkpt>
      <trkpt lat="42.7428" lon="0.35645">
        <ele>2462.55</ele>
        <time>2014-03-17T08:00:40Z</time>
      </trkpt>
      <trkpt lat="42.74278" lon="0.35641">
        <ele>2464</ele>
        <time>2014-03-17T08:00:54Z</time>
      </trkpt>
      <trkpt lat="42.74271" lon="0.35631">
        <ele>2466.88</ele>
        <time>2014-03-17T08:01:13Z</time>
      </trkpt>
      <trkpt lat="42.74265" lon="0.35622">
        <ele>2468.8</ele>
        <time>2014-03-17T08:01:27Z</time>
      </trkpt>
      <trkpt lat="42.74264" lon="0.35628">
        <ele>2470.24</ele>
        <time>2014-03-17T08:01:38Z</time>
      </trkpt>
      <trkpt lat="42.74263" lon="0.35639">
        <ele>2471.69</ele>
        <time>2014-03-17T08:01:52Z</time>
      </trkpt>
      <trkpt lat="42.7426" lon="0.3565">
        <ele>2473.61</ele>
        <time>2014-03-17T08:02:06Z</time>
      </trkpt>
      <trkpt lat="42.74258" lon="0.35665">
        <ele>2475.53</ele>
        <time>2014-03-17T08:02:22Z</time>
      </trkpt>
      <trkpt lat="42.74257" lon="0.35675">
        <ele>2476.49</ele>
        <time>2014-03-17T08:02:34Z</time>
      </trkpt>
      <trkpt lat="42.74256" lon="0.35684">
        <ele>2477.94</ele>
        <time>2014-03-17T08:02:47Z</time>
      </trkpt>
      <trkpt lat="42.74257" lon="0.35696">
        <ele>2479.38</ele>
        <time>2014-03-17T08:02:59Z</time>
      </trkpt>
      <trkpt lat="42.74256" lon="0.35706">
        <ele>2481.3</ele>
        <time>2014-03-17T08:03:12Z</time>
      </trkpt>
      <trkpt lat="42.74253" lon="0.35721">
        <ele>2484.18</ele>
        <time>2014-03-17T08:03:32Z</time>
      </trkpt>
      <trkpt lat="42.74249" lon="0.35737">
        <ele>2486.59</ele>
        <time>2014-03-17T08:03:52Z</time>
      </trkpt>
      <trkpt lat="42.74248" lon="0.35745">
        <ele>2487.55</ele>
        <time>2014-03-17T08:04:00Z</time>
      </trkpt>
      <trkpt lat="42.74247" lon="0.35756">
        <ele>2488.99</ele>
        <time>2014-03-17T08:04:14Z</time>
      </trkpt>
      <trkpt lat="42.74246" lon="0.35769">
        <ele>2491.39</ele>
        <time>2014-03-17T08:04:31Z</time>
      </trkpt>
      <trkpt lat="42.74241" lon="0.35766">
        <ele>2492.84</ele>
        <time>2014-03-17T08:04:42Z</time>
      </trkpt>
      <trkpt lat="42.74232" lon="0.35756">
        <ele>2494.76</ele>
        <time>2014-03-17T08:04:57Z</time>
      </trkpt>
      <trkpt lat="42.74227" lon="0.35747">
        <ele>2496.68</ele>
        <time>2014-03-17T08:05:13Z</time>
      </trkpt>
      <trkpt lat="42.74223" lon="0.35741">
        <ele>2498.6</ele>
        <time>2014-03-17T08:05:25Z</time>
      </trkpt>
      <trkpt lat="42.74215" lon="0.35734">
        <ele>2500.53</ele>
        <time>2014-03-17T08:05:38Z</time>
      </trkpt>
      <trkpt lat="42.74209" lon="0.35728">
        <ele>2502.93</ele>
        <time>2014-03-17T08:05:54Z</time>
      </trkpt>
      <trkpt lat="42.74199" lon="0.35721">
        <ele>2505.33</ele>
        <time>2014-03-17T08:06:10Z</time>
      </trkpt>
      <trkpt lat="42.74193" lon="0.35714">
        <ele>2506.77</ele>
        <time>2014-03-17T08:06:23Z</time>
      </trkpt>
      <trkpt lat="42.74187" lon="0.35706">
        <ele>2509.18</ele>
        <time>2014-03-17T08:06:40Z</time>
      </trkpt>
      <trkpt lat="42.7418" lon="0.35698">
        <ele>2511.1</ele>
        <time>2014-03-17T08:06:55Z</time>
      </trkpt>
      <trkpt lat="42.74176" lon="0.35692">
        <ele>2512.06</ele>
        <time>2014-03-17T08:07:04Z</time>
      </trkpt>
      <trkpt lat="42.74176" lon="0.35697">
        <ele>2513.02</ele>
        <time>2014-03-17T08:07:14Z</time>
      </trkpt>
      <trkpt lat="42.74175" lon="0.35707">
        <ele>2513.98</ele>
        <time>2014-03-17T08:07:27Z</time>
      </trkpt>
      <trkpt lat="42.74175" lon="0.3572">
        <ele>2516.39</ele>
        <time>2014-03-17T08:07:43Z</time>
      </trkpt>
      <trkpt lat="42.74176" lon="0.35727">
        <ele>2517.83</ele>
        <time>2014-03-17T08:07:53Z</time>
      </trkpt>
      <trkpt lat="42.74175" lon="0.35738">
        <ele>2519.27</ele>
        <time>2014-03-17T08:08:05Z</time>
      </trkpt>
      <trkpt lat="42.74175" lon="0.35749">
        <ele>2521.19</ele>
        <time>2014-03-17T08:08:19Z</time>
      </trkpt>
      <trkpt lat="42.74174" lon="0.35757">
        <ele>2522.64</ele>
        <time>2014-03-17T08:08:31Z</time>
      </trkpt>
      <trkpt lat="42.74173" lon="0.35767">
        <ele>2524.08</ele>
        <time>2014-03-17T08:08:44Z</time>
      </trkpt>
      <trkpt lat="42.74173" lon="0.35779">
        <ele>2525.52</ele>
        <time>2014-03-17T08:08:55Z</time>
      </trkpt>
      <trkpt lat="42.74169" lon="0.35778">
        <ele>2526.96</ele>
        <time>2014-03-17T08:09:06Z</time>
      </trkpt>
      <trkpt lat="42.74161" lon="0.35771">
        <ele>2528.89</ele>
        <time>2014-03-17T08:09:23Z</time>
      </trkpt>
      <trkpt lat="42.74153" lon="0.35765">
        <ele>2530.81</ele>
        <time>2014-03-17T08:09:35Z</time>
      </trkpt>
      <trkpt lat="42.74146" lon="0.35758">
        <ele>2532.73</ele>
        <time>2014-03-17T08:09:50Z</time>
      </trkpt>
      <trkpt lat="42.74142" lon="0.3575">
        <ele>2534.65</ele>
        <time>2014-03-17T08:10:05Z</time>
      </trkpt>
      <trkpt lat="42.74136" lon="0.35742">
        <ele>2536.58</ele>
        <time>2014-03-17T08:10:18Z</time>
      </trkpt>
      <trkpt lat="42.74136" lon="0.3574">
        <ele>2537.06</ele>
        <time>2014-03-17T08:10:33Z</time>
      </trkpt>
      <trkpt lat="42.74136" lon="0.35744">
        <ele>2538.5</ele>
        <time>2014-03-17T08:10:45Z</time>
      </trkpt>
      <trkpt lat="42.74133" lon="0.35759">
        <ele>2540.9</ele>
        <time>2014-03-17T08:11:01Z</time>
      </trkpt>
      <trkpt lat="42.74132" lon="0.35769">
        <ele>2542.82</ele>
        <time>2014-03-17T08:11:15Z</time>
      </trkpt>
      <trkpt lat="42.74131" lon="0.35779">
        <ele>2544.27</ele>
        <time>2014-03-17T08:11:27Z</time>
      </trkpt>
      <trkpt lat="42.74131" lon="0.35784">
        <ele>2545.23</ele>
        <time>2014-03-17T08:11:37Z</time>
      </trkpt>
      <trkpt lat="42.74128" lon="0.35795">
        <ele>2547.15</ele>
        <time>2014-03-17T08:11:51Z</time>
      </trkpt>
      <trkpt lat="42.74126" lon="0.35809">
        <ele>2549.07</ele>
        <time>2014-03-17T08:12:07Z</time>
      </trkpt>
      <trkpt lat="42.74125" lon="0.35815">
        <ele>2550.51</ele>
        <time>2014-03-17T08:12:19Z</time>
      </trkpt>
      <trkpt lat="42.74126" lon="0.35826">
        <ele>2552.44</ele>
        <time>2014-03-17T08:12:32Z</time>
      </trkpt>
      <trkpt lat="42.74129" lon="0.3583">
        <ele>2552.92</ele>
        <time>2014-03-17T08:12:45Z</time>
      </trkpt>
      <trkpt lat="42.74129" lon="0.35831">
        <ele>2553.4</ele>
        <time>2014-03-17T08:12:50Z</time>
      </trkpt>
      <trkpt lat="42.74122" lon="0.3583">
        <ele>2554.36</ele>
        <time>2014-03-17T08:13:00Z</time>
      </trkpt>
      <trkpt lat="42.74113" lon="0.35828">
        <ele>2556.76</ele>
        <time>2014-03-17T08:13:15Z</time>
      </trkpt>
      <trkpt lat="42.74106" lon="0.35824">
        <ele>2559.17</ele>
        <time>2014-03-17T08:13:30Z</time>
      </trkpt>
      <trkpt lat="42.74098" lon="0.35817">
        <ele>2561.09</ele>
        <time>2014-03-17T08:13:45Z</time>
      </trkpt>
      <trkpt lat="42.74095" lon="0.35813">
        <ele>2562.53</ele>
        <time>2014-03-17T08:14:00Z</time>
      </trkpt>
      <trkpt lat="42.74094" lon="0.35825">
        <ele>2564.45</ele>
        <time>2014-03-17T08:14:13Z</time>
      </trkpt>
      <trkpt lat="42.74094" lon="0.35837">
        <ele>2566.38</ele>
        <time>2014-03-17T08:14:30Z</time>
      </trkpt>
      <trkpt lat="42.74096" lon="0.35848">
        <ele>2567.82</ele>
        <time>2014-03-17T08:14:42Z</time>
      </trkpt>
      <trkpt lat="42.74098" lon="0.35857">
        <ele>2569.74</ele>
        <time>2014-03-17T08:14:57Z</time>
      </trkpt>
      <trkpt lat="42.7409" lon="0.35855">
        <ele>2571.66</ele>
        <time>2014-03-17T08:15:12Z</time>
      </trkpt>
      <trkpt lat="42.74081" lon="0.35851">
        <ele>2573.59</ele>
        <time>2014-03-17T08:15:28Z</time>
      </trkpt>
      <trkpt lat="42.74076" lon="0.35848">
        <ele>2574.55</ele>
        <time>2014-03-17T08:15:40Z</time>
      </trkpt>
      <trkpt lat="42.74072" lon="0.35842">
        <ele>2576.47</ele>
        <time>2014-03-17T08:15:54Z</time>
      </trkpt>
      <trkpt lat="42.74069" lon="0.35842">
        <ele>2577.91</ele>
        <time>2014-03-17T08:16:07Z</time>
      </trkpt>
      <trkpt lat="42.7407" lon="0.35858">
        <ele>2579.84</ele>
        <time>2014-03-17T08:16:23Z</time>
      </trkpt>
      <trkpt lat="42.74072" lon="0.35874">
        <ele>2582.24</ele>
        <time>2014-03-17T08:16:42Z</time>
      </trkpt>
      <trkpt lat="42.74074" lon="0.35882">
        <ele>2583.68</ele>
        <time>2014-03-17T08:16:55Z</time>
      </trkpt>
      <trkpt lat="42.74078" lon="0.35889">
        <ele>2584.64</ele>
        <time>2014-03-17T08:17:08Z</time>
      </trkpt>
      <trkpt lat="42.74081" lon="0.35897">
        <ele>2587.04</ele>
        <time>2014-03-17T08:17:22Z</time>
      </trkpt>
      <trkpt lat="42.74083" lon="0.35901">
        <ele>2587.53</ele>
        <time>2014-03-17T08:17:36Z</time>
      </trkpt>
      <trkpt lat="42.74082" lon="0.35902">
        <ele>2588.01</ele>
        <time>2014-03-17T08:17:48Z</time>
      </trkpt>
      <trkpt lat="42.74077" lon="0.35899">
        <ele>2589.45</ele>
        <time>2014-03-17T08:18:05Z</time>
      </trkpt>
      <trkpt lat="42.7407" lon="0.35898">
        <ele>2591.37</ele>
        <time>2014-03-17T08:18:18Z</time>
      </trkpt>
      <trkpt lat="42.74064" lon="0.35898">
        <ele>2592.33</ele>
        <time>2014-03-17T08:18:31Z</time>
      </trkpt>
      <trkpt lat="42.74063" lon="0.35899">
        <ele>2592.81</ele>
        <time>2014-03-17T08:18:57Z</time>
      </trkpt>
      <trkpt lat="42.74065" lon="0.35899">
        <ele>2592.81</ele>
        <time>2014-03-17T08:19:29Z</time>
      </trkpt>
      <trkpt lat="42.74062" lon="0.35896">
        <ele>2592.81</ele>
        <time>2014-03-17T08:20:03Z</time>
      </trkpt>
      <trkpt lat="42.74059" lon="0.35897">
        <ele>2593.77</ele>
        <time>2014-03-17T08:20:31Z</time>
      </trkpt>
      <trkpt lat="42.74051" lon="0.35892">
        <ele>2595.7</ele>
        <time>2014-03-17T08:20:44Z</time>
      </trkpt>
      <trkpt lat="42.74046" lon="0.35885">
        <ele>2597.14</ele>
        <time>2014-03-17T08:20:59Z</time>
      </trkpt>
      <trkpt lat="42.7404" lon="0.35876">
        <ele>2599.54</ele>
        <time>2014-03-17T08:21:16Z</time>
      </trkpt>
      <trkpt lat="42.74037" lon="0.3587">
        <ele>2600.5</ele>
        <time>2014-03-17T08:21:33Z</time>
      </trkpt>
      <trkpt lat="42.74032" lon="0.35861">
        <ele>2602.91</ele>
        <time>2014-03-17T08:21:46Z</time>
      </trkpt>
      <trkpt lat="42.74029" lon="0.35853">
        <ele>2604.35</ele>
        <time>2014-03-17T08:22:00Z</time>
      </trkpt>
      <trkpt lat="42.74027" lon="0.35847">
        <ele>2606.27</ele>
        <time>2014-03-17T08:22:12Z</time>
      </trkpt>
      <trkpt lat="42.74026" lon="0.35841">
        <ele>2607.23</ele>
        <time>2014-03-17T08:22:26Z</time>
      </trkpt>
      <trkpt lat="42.74025" lon="0.35833">
        <ele>2608.19</ele>
        <time>2014-03-17T08:22:40Z</time>
      </trkpt>
      <trkpt lat="42.74024" lon="0.35825">
        <ele>2609.64</ele>
        <time>2014-03-17T08:22:55Z</time>
      </trkpt>
      <trkpt lat="42.74022" lon="0.35817">
        <ele>2611.56</ele>
        <time>2014-03-17T08:23:07Z</time>
      </trkpt>
      <trkpt lat="42.7402" lon="0.35808">
        <ele>2613</ele>
        <time>2014-03-17T08:23:21Z</time>
      </trkpt>
      <trkpt lat="42.74018" lon="0.35801">
        <ele>2614.44</ele>
        <time>2014-03-17T08:23:35Z</time>
      </trkpt>
      <trkpt lat="42.74015" lon="0.3579">
        <ele>2616.37</ele>
        <time>2014-03-17T08:23:50Z</time>
      </trkpt>
      <trkpt lat="42.74013" lon="0.35784">
        <ele>2616.85</ele>
        <time>2014-03-17T08:24:04Z</time>
      </trkpt>
      <trkpt lat="42.7401" lon="0.35774">
        <ele>2619.25</ele>
        <time>2014-03-17T08:24:20Z</time>
      </trkpt>
      <trkpt lat="42.74007" lon="0.35765">
        <ele>2621.17</ele>
        <time>2014-03-17T08:24:34Z</time>
      </trkpt>
      <trkpt lat="42.74004" lon="0.35757">
        <ele>2622.13</ele>
        <time>2014-03-17T08:24:51Z</time>
      </trkpt>
      <trkpt lat="42.74001" lon="0.35748">
        <ele>2624.54</ele>
        <time>2014-03-17T08:25:05Z</time>
      </trkpt>
      <trkpt lat="42.73999" lon="0.35741">
        <ele>2625.98</ele>
        <time>2014-03-17T08:25:19Z</time>
      </trkpt>
      <trkpt lat="42.73996" lon="0.35734">
        <ele>2627.42</ele>
        <time>2014-03-17T08:25:36Z</time>
      </trkpt>
      <trkpt lat="42.73994" lon="0.35728">
        <ele>2628.38</ele>
        <time>2014-03-17T08:25:50Z</time>
      </trkpt>
      <trkpt lat="42.73993" lon="0.35722">
        <ele>2629.82</ele>
        <time>2014-03-17T08:26:02Z</time>
      </trkpt>
      <trkpt lat="42.7399" lon="0.35715">
        <ele>2631.27</ele>
        <time>2014-03-17T08:26:18Z</time>
      </trkpt>
      <trkpt lat="42.73989" lon="0.35709">
        <ele>2632.71</ele>
        <time>2014-03-17T08:26:32Z</time>
      </trkpt>
      <trkpt lat="42.73984" lon="0.357">
        <ele>2634.63</ele>
        <time>2014-03-17T08:26:45Z</time>
      </trkpt>
      <trkpt lat="42.73984" lon="0.35699">
        <ele>2635.11</ele>
        <time>2014-03-17T08:27:00Z</time>
      </trkpt>
      <trkpt lat="42.73981" lon="0.35691">
        <ele>2637.03</ele>
        <time>2014-03-17T08:27:15Z</time>
      </trkpt>
      <trkpt lat="42.73976" lon="0.35681">
        <ele>2638.96</ele>
        <time>2014-03-17T08:27:28Z</time>
      </trkpt>
      <trkpt lat="42.73973" lon="0.35674">
        <ele>2640.88</ele>
        <time>2014-03-17T08:27:47Z</time>
      </trkpt>
      <trkpt lat="42.73969" lon="0.35665">
        <ele>2642.8</ele>
        <time>2014-03-17T08:28:01Z</time>
      </trkpt>
      <trkpt lat="42.73967" lon="0.3566">
        <ele>2643.76</ele>
        <time>2014-03-17T08:28:16Z</time>
      </trkpt>
      <trkpt lat="42.73961" lon="0.35648">
        <ele>2646.17</ele>
        <time>2014-03-17T08:28:34Z</time>
      </trkpt>
      <trkpt lat="42.73959" lon="0.35643">
        <ele>2647.61</ele>
        <time>2014-03-17T08:28:47Z</time>
      </trkpt>
      <trkpt lat="42.73955" lon="0.35632">
        <ele>2649.05</ele>
        <time>2014-03-17T08:29:02Z</time>
      </trkpt>
      <trkpt lat="42.73953" lon="0.35628">
        <ele>2650.01</ele>
        <time>2014-03-17T08:29:16Z</time>
      </trkpt>
      <trkpt lat="42.7395" lon="0.35619">
        <ele>2651.45</ele>
        <time>2014-03-17T08:29:30Z</time>
      </trkpt>
      <trkpt lat="42.73949" lon="0.35616">
        <ele>2652.42</ele>
        <time>2014-03-17T08:29:45Z</time>
      </trkpt>
      <trkpt lat="42.73948" lon="0.35609">
        <ele>2653.38</ele>
        <time>2014-03-17T08:30:09Z</time>
      </trkpt>
      <trkpt lat="42.73945" lon="0.35601">
        <ele>2654.34</ele>
        <time>2014-03-17T08:30:24Z</time>
      </trkpt>
      <trkpt lat="42.73945" lon="0.35602">
        <ele>2655.78</ele>
        <time>2014-03-17T08:30:36Z</time>
      </trkpt>
      <trkpt lat="42.73943" lon="0.3561">
        <ele>2657.22</ele>
        <time>2014-03-17T08:30:48Z</time>
      </trkpt>
      <trkpt lat="42.73941" lon="0.3562">
        <ele>2658.66</ele>
        <time>2014-03-17T08:31:01Z</time>
      </trkpt>
      <trkpt lat="42.7394" lon="0.35625">
        <ele>2659.14</ele>
        <time>2014-03-17T08:31:22Z</time>
      </trkpt>
      <trkpt lat="42.73937" lon="0.35631">
        <ele>2661.55</ele>
        <time>2014-03-17T08:31:34Z</time>
      </trkpt>
      <trkpt lat="42.73936" lon="0.35638">
        <ele>2662.99</ele>
        <time>2014-03-17T08:31:49Z</time>
      </trkpt>
      <trkpt lat="42.73934" lon="0.35642">
        <ele>2663.95</ele>
        <time>2014-03-17T08:32:04Z</time>
      </trkpt>
      <trkpt lat="42.73934" lon="0.3565">
        <ele>2665.39</ele>
        <time>2014-03-17T08:32:19Z</time>
      </trkpt>
      <trkpt lat="42.73933" lon="0.35653">
        <ele>2665.87</ele>
        <time>2014-03-17T08:32:37Z</time>
      </trkpt>
      <trkpt lat="42.73931" lon="0.35662">
        <ele>2667.8</ele>
        <time>2014-03-17T08:32:50Z</time>
      </trkpt>
      <trkpt lat="42.7393" lon="0.3567">
        <ele>2669.72</ele>
        <time>2014-03-17T08:33:08Z</time>
      </trkpt>
      <trkpt lat="42.73927" lon="0.35682">
        <ele>2671.64</ele>
        <time>2014-03-17T08:33:23Z</time>
      </trkpt>
      <trkpt lat="42.73926" lon="0.35683">
        <ele>2671.64</ele>
        <time>2014-03-17T08:33:24Z</time>
      </trkpt>
      <trkpt lat="42.73925" lon="0.35689">
        <ele>2672.6</ele>
        <time>2014-03-17T08:33:38Z</time>
      </trkpt>
      <trkpt lat="42.73925" lon="0.35695">
        <ele>2673.56</ele>
        <time>2014-03-17T08:33:49Z</time>
      </trkpt>
      <trkpt lat="42.73924" lon="0.35701">
        <ele>2675.01</ele>
        <time>2014-03-17T08:34:10Z</time>
      </trkpt>
      <trkpt lat="42.73923" lon="0.35706">
        <ele>2675.97</ele>
        <time>2014-03-17T08:34:21Z</time>
      </trkpt>
      <trkpt lat="42.73923" lon="0.35709">
        <ele>2676.93</ele>
        <time>2014-03-17T08:34:36Z</time>
      </trkpt>
      <trkpt lat="42.73921" lon="0.35716">
        <ele>2677.89</ele>
        <time>2014-03-17T08:34:47Z</time>
      </trkpt>
      <trkpt lat="42.7392" lon="0.35722">
        <ele>2678.85</ele>
        <time>2014-03-17T08:35:04Z</time>
      </trkpt>
      <trkpt lat="42.73919" lon="0.35725">
        <ele>2679.33</ele>
        <time>2014-03-17T08:35:08Z</time>
      </trkpt>
      <trkpt lat="42.73918" lon="0.35731">
        <ele>2680.29</ele>
        <time>2014-03-17T08:35:23Z</time>
      </trkpt>
      <trkpt lat="42.73917" lon="0.35736">
        <ele>2681.25</ele>
        <time>2014-03-17T08:35:35Z</time>
      </trkpt>
      <trkpt lat="42.73916" lon="0.35739">
        <ele>2682.7</ele>
        <time>2014-03-17T08:35:52Z</time>
      </trkpt>
      <trkpt lat="42.73915" lon="0.35741">
        <ele>2682.7</ele>
        <time>2014-03-17T08:36:14Z</time>
      </trkpt>
      <trkpt lat="42.73915" lon="0.35747">
        <ele>2684.14</ele>
        <time>2014-03-17T08:36:24Z</time>
      </trkpt>
      <trkpt lat="42.73914" lon="0.3575">
        <ele>2684.62</ele>
        <time>2014-03-17T08:36:35Z</time>
      </trkpt>
      <trkpt lat="42.73914" lon="0.35753">
        <ele>2685.1</ele>
        <time>2014-03-17T08:36:48Z</time>
      </trkpt>
      <trkpt lat="42.73913" lon="0.35757">
        <ele>2685.58</ele>
        <time>2014-03-17T08:37:02Z</time>
      </trkpt>
      <trkpt lat="42.73913" lon="0.35762">
        <ele>2686.54</ele>
        <time>2014-03-17T08:37:13Z</time>
      </trkpt>
      <trkpt lat="42.73912" lon="0.35767">
        <ele>2687.98</ele>
        <time>2014-03-17T08:37:25Z</time>
      </trkpt>
      <trkpt lat="42.7391" lon="0.35771">
        <ele>2688.94</ele>
        <time>2014-03-17T08:37:35Z</time>
      </trkpt>
      <trkpt lat="42.73909" lon="0.35776">
        <ele>2689.43</ele>
        <time>2014-03-17T08:37:46Z</time>
      </trkpt>
      <trkpt lat="42.73909" lon="0.35779">
        <ele>2690.39</ele>
        <time>2014-03-17T08:38:05Z</time>
      </trkpt>
      <trkpt lat="42.73907" lon="0.35784">
        <ele>2691.35</ele>
        <time>2014-03-17T08:38:21Z</time>
      </trkpt>
      <trkpt lat="42.73907" lon="0.35787">
        <ele>2691.35</ele>
        <time>2014-03-17T08:38:34Z</time>
      </trkpt>
      <trkpt lat="42.73908" lon="0.35788">
        <ele>2691.83</ele>
        <time>2014-03-17T08:38:48Z</time>
      </trkpt>
      <trkpt lat="42.73906" lon="0.35788">
        <ele>2692.31</ele>
        <time>2014-03-17T08:39:10Z</time>
      </trkpt>
      <trkpt lat="42.73904" lon="0.35784">
        <ele>2693.27</ele>
        <time>2014-03-17T08:39:19Z</time>
      </trkpt>
      <trkpt lat="42.73904" lon="0.35782">
        <ele>2693.27</ele>
        <time>2014-03-17T08:39:25Z</time>
      </trkpt>
      <trkpt lat="42.73902" lon="0.35777">
        <ele>2694.71</ele>
        <time>2014-03-17T08:39:37Z</time>
      </trkpt>
      <trkpt lat="42.73899" lon="0.35771">
        <ele>2696.15</ele>
        <time>2014-03-17T08:39:51Z</time>
      </trkpt>
      <trkpt lat="42.73896" lon="0.35764">
        <ele>2697.12</ele>
        <time>2014-03-17T08:40:02Z</time>
      </trkpt>
      <trkpt lat="42.73895" lon="0.3576">
        <ele>2698.56</ele>
        <time>2014-03-17T08:40:19Z</time>
      </trkpt>
      <trkpt lat="42.73894" lon="0.35756">
        <ele>2699.52</ele>
        <time>2014-03-17T08:40:36Z</time>
      </trkpt>
      <trkpt lat="42.73892" lon="0.35751">
        <ele>2700.48</ele>
        <time>2014-03-17T08:40:49Z</time>
      </trkpt>
      <trkpt lat="42.73893" lon="0.35752">
        <ele>2700.48</ele>
        <time>2014-03-17T08:41:03Z</time>
      </trkpt>
      <trkpt lat="42.7389" lon="0.35763">
        <ele>2702.88</ele>
        <time>2014-03-17T08:41:15Z</time>
      </trkpt>
      <trkpt lat="42.73889" lon="0.3577">
        <ele>2704.33</ele>
        <time>2014-03-17T08:41:28Z</time>
      </trkpt>
      <trkpt lat="42.73888" lon="0.35771">
        <ele>2704.81</ele>
        <time>2014-03-17T08:41:42Z</time>
      </trkpt>
      <trkpt lat="42.73888" lon="0.35779">
        <ele>2706.25</ele>
        <time>2014-03-17T08:41:53Z</time>
      </trkpt>
      <trkpt lat="42.73886" lon="0.35784">
        <ele>2707.69</ele>
        <time>2014-03-17T08:42:09Z</time>
      </trkpt>
      <trkpt lat="42.73885" lon="0.35791">
        <ele>2708.65</ele>
        <time>2014-03-17T08:42:22Z</time>
      </trkpt>
      <trkpt lat="42.73884" lon="0.35795">
        <ele>2709.61</ele>
        <time>2014-03-17T08:42:47Z</time>
      </trkpt>
      <trkpt lat="42.73883" lon="0.35804">
        <ele>2711.06</ele>
        <time>2014-03-17T08:42:59Z</time>
      </trkpt>
      <trkpt lat="42.73884" lon="0.35806">
        <ele>2711.54</ele>
        <time>2014-03-17T08:43:15Z</time>
      </trkpt>
      <trkpt lat="42.73883" lon="0.35806">
        <ele>2712.02</ele>
        <time>2014-03-17T08:43:28Z</time>
      </trkpt>
      <trkpt lat="42.73883" lon="0.35806">
        <ele>2712.5</ele>
        <time>2014-03-17T08:43:39Z</time>
      </trkpt>
      <trkpt lat="42.73882" lon="0.35804">
        <ele>2712.5</ele>
        <time>2014-03-17T08:43:44Z</time>
      </trkpt>
      <trkpt lat="42.73877" lon="0.35795">
        <ele>2714.42</ele>
        <time>2014-03-17T08:43:59Z</time>
      </trkpt>
      <trkpt lat="42.73875" lon="0.3579">
        <ele>2716.34</ele>
        <time>2014-03-17T08:44:17Z</time>
      </trkpt>
      <trkpt lat="42.73874" lon="0.35788">
        <ele>2716.34</ele>
        <time>2014-03-17T08:44:30Z</time>
      </trkpt>
      <trkpt lat="42.73872" lon="0.35781">
        <ele>2717.78</ele>
        <time>2014-03-17T08:44:42Z</time>
      </trkpt>
      <trkpt lat="42.73868" lon="0.35773">
        <ele>2720.19</ele>
        <time>2014-03-17T08:44:59Z</time>
      </trkpt>
      <trkpt lat="42.73865" lon="0.3577">
        <ele>2720.67</ele>
        <time>2014-03-17T08:45:13Z</time>
      </trkpt>
      <trkpt lat="42.73863" lon="0.35762">
        <ele>2722.11</ele>
        <time>2014-03-17T08:45:26Z</time>
      </trkpt>
      <trkpt lat="42.73863" lon="0.35763">
        <ele>2722.59</ele>
        <time>2014-03-17T08:45:42Z</time>
      </trkpt>
      <trkpt lat="42.73861" lon="0.35767">
        <ele>2723.07</ele>
        <time>2014-03-17T08:45:59Z</time>
      </trkpt>
      <trkpt lat="42.73861" lon="0.35772">
        <ele>2723.55</ele>
        <time>2014-03-17T08:46:09Z</time>
      </trkpt>
      <trkpt lat="42.73861" lon="0.35779">
        <ele>2724.99</ele>
        <time>2014-03-17T08:46:23Z</time>
      </trkpt>
      <trkpt lat="42.7386" lon="0.35781">
        <ele>2725.48</ele>
        <time>2014-03-17T08:46:33Z</time>
      </trkpt>
      <trkpt lat="42.73861" lon="0.35786">
        <ele>2726.44</ele>
        <time>2014-03-17T08:46:46Z</time>
      </trkpt>
      <trkpt lat="42.73862" lon="0.35787">
        <ele>2726.44</ele>
        <time>2014-03-17T08:47:00Z</time>
      </trkpt>
      <trkpt lat="42.73859" lon="0.35791">
        <ele>2727.4</ele>
        <time>2014-03-17T08:47:16Z</time>
      </trkpt>
      <trkpt lat="42.73858" lon="0.35798">
        <ele>2728.36</ele>
        <time>2014-03-17T08:47:25Z</time>
      </trkpt>
      <trkpt lat="42.73856" lon="0.35803">
        <ele>2728.84</ele>
        <time>2014-03-17T08:47:29Z</time>
      </trkpt>
      <trkpt lat="42.73854" lon="0.35808">
        <ele>2729.8</ele>
        <time>2014-03-17T08:47:41Z</time>
      </trkpt>
      <trkpt lat="42.73855" lon="0.35816">
        <ele>2732.2</ele>
        <time>2014-03-17T08:47:55Z</time>
      </trkpt>
      <trkpt lat="42.73853" lon="0.35822">
        <ele>2733.65</ele>
        <time>2014-03-17T08:48:12Z</time>
      </trkpt>
      <trkpt lat="42.73852" lon="0.35833">
        <ele>2735.09</ele>
        <time>2014-03-17T08:48:25Z</time>
      </trkpt>
      <trkpt lat="42.73853" lon="0.35838">
        <ele>2736.53</ele>
        <time>2014-03-17T08:48:38Z</time>
      </trkpt>
      <trkpt lat="42.73854" lon="0.35849">
        <ele>2737.97</ele>
        <time>2014-03-17T08:48:49Z</time>
      </trkpt>
      <trkpt lat="42.73852" lon="0.35854">
        <ele>2739.41</ele>
        <time>2014-03-17T08:49:01Z</time>
      </trkpt>
      <trkpt lat="42.73854" lon="0.35861">
        <ele>2740.86</ele>
        <time>2014-03-17T08:49:22Z</time>
      </trkpt>
      <trkpt lat="42.73856" lon="0.3587">
        <ele>2742.3</ele>
        <time>2014-03-17T08:49:32Z</time>
      </trkpt>
      <trkpt lat="42.73857" lon="0.35875">
        <ele>2743.74</ele>
        <time>2014-03-17T08:49:47Z</time>
      </trkpt>
      <trkpt lat="42.73856" lon="0.35881">
        <ele>2744.7</ele>
        <time>2014-03-17T08:50:06Z</time>
      </trkpt>
      <trkpt lat="42.73859" lon="0.35888">
        <ele>2746.62</ele>
        <time>2014-03-17T08:50:16Z</time>
      </trkpt>
      <trkpt lat="42.73861" lon="0.35894">
        <ele>2748.07</ele>
        <time>2014-03-17T08:50:28Z</time>
      </trkpt>
      <trkpt lat="42.73863" lon="0.35898">
        <ele>2749.03</ele>
        <time>2014-03-17T08:50:46Z</time>
      </trkpt>
      <trkpt lat="42.73863" lon="0.35903">
        <ele>2750.47</ele>
        <time>2014-03-17T08:51:01Z</time>
      </trkpt>
      <trkpt lat="42.73863" lon="0.35903">
        <ele>2750.47</ele>
        <time>2014-03-17T08:51:08Z</time>
      </trkpt>
      <trkpt lat="42.73862" lon="0.35901">
        <ele>2750.95</ele>
        <time>2014-03-17T08:51:19Z</time>
      </trkpt>
      <trkpt lat="42.73856" lon="0.35899">
        <ele>2752.39</ele>
        <time>2014-03-17T08:51:31Z</time>
      </trkpt>
      <trkpt lat="42.73856" lon="0.35898">
        <ele>2752.39</ele>
        <time>2014-03-17T08:51:32Z</time>
      </trkpt>
      <trkpt lat="42.73851" lon="0.35893">
        <ele>2754.31</ele>
        <time>2014-03-17T08:51:48Z</time>
      </trkpt>
      <trkpt lat="42.73846" lon="0.35889">
        <ele>2756.24</ele>
        <time>2014-03-17T08:52:03Z</time>
      </trkpt>
      <trkpt lat="42.73841" lon="0.35889">
        <ele>2756.72</ele>
        <time>2014-03-17T08:52:16Z</time>
      </trkpt>
      <trkpt lat="42.73836" lon="0.35881">
        <ele>2758.64</ele>
        <time>2014-03-17T08:52:31Z</time>
      </trkpt>
      <trkpt lat="42.73836" lon="0.35881">
        <ele>2759.12</ele>
        <time>2014-03-17T08:52:47Z</time>
      </trkpt>
      <trkpt lat="42.73831" lon="0.35874">
        <ele>2760.56</ele>
        <time>2014-03-17T08:53:01Z</time>
      </trkpt>
      <trkpt lat="42.73827" lon="0.3587">
        <ele>2762.49</ele>
        <time>2014-03-17T08:53:14Z</time>
      </trkpt>
      <trkpt lat="42.73828" lon="0.35871">
        <ele>2762.49</ele>
        <time>2014-03-17T08:53:29Z</time>
      </trkpt>
      <trkpt lat="42.73828" lon="0.35874">
        <ele>2762.97</ele>
        <time>2014-03-17T08:53:39Z</time>
      </trkpt>
      <trkpt lat="42.73828" lon="0.35878">
        <ele>2763.93</ele>
        <time>2014-03-17T08:53:43Z</time>
      </trkpt>
      <trkpt lat="42.73829" lon="0.35887">
        <ele>2765.85</ele>
        <time>2014-03-17T08:53:56Z</time>
      </trkpt>
      <trkpt lat="42.73829" lon="0.35897">
        <ele>2767.29</ele>
        <time>2014-03-17T08:54:11Z</time>
      </trkpt>
      <trkpt lat="42.7383" lon="0.35905">
        <ele>2768.73</ele>
        <time>2014-03-17T08:54:25Z</time>
      </trkpt>
      <trkpt lat="42.73831" lon="0.35915">
        <ele>2769.7</ele>
        <time>2014-03-17T08:54:40Z</time>
      </trkpt>
      <trkpt lat="42.73833" lon="0.35926">
        <ele>2770.66</ele>
        <time>2014-03-17T08:54:52Z</time>
      </trkpt>
      <trkpt lat="42.73834" lon="0.35933">
        <ele>2772.1</ele>
        <time>2014-03-17T08:55:09Z</time>
      </trkpt>
      <trkpt lat="42.73833" lon="0.35942">
        <ele>2773.54</ele>
        <time>2014-03-17T08:55:22Z</time>
      </trkpt>
      <trkpt lat="42.73834" lon="0.35951">
        <ele>2774.98</ele>
        <time>2014-03-17T08:55:35Z</time>
      </trkpt>
      <trkpt lat="42.73835" lon="0.35958">
        <ele>2776.91</ele>
        <time>2014-03-17T08:55:48Z</time>
      </trkpt>
      <trkpt lat="42.73836" lon="0.35968">
        <ele>2778.83</ele>
        <time>2014-03-17T08:56:00Z</time>
      </trkpt>
      <trkpt lat="42.73837" lon="0.35975">
        <ele>2780.27</ele>
        <time>2014-03-17T08:56:14Z</time>
      </trkpt>
      <trkpt lat="42.73835" lon="0.35984">
        <ele>2781.71</ele>
        <time>2014-03-17T08:56:29Z</time>
      </trkpt>
      <trkpt lat="42.73838" lon="0.35994">
        <ele>2783.63</ele>
        <time>2014-03-17T08:56:42Z</time>
      </trkpt>
      <trkpt lat="42.73842" lon="0.35999">
        <ele>2784.6</ele>
        <time>2014-03-17T08:56:53Z</time>
      </trkpt>
      <trkpt lat="42.73843" lon="0.35999">
        <ele>2785.08</ele>
        <time>2014-03-17T08:56:57Z</time>
      </trkpt>
      <trkpt lat="42.73836" lon="0.35995">
        <ele>2786.52</ele>
        <time>2014-03-17T08:57:08Z</time>
      </trkpt>
      <trkpt lat="42.73833" lon="0.35993">
        <ele>2787.48</ele>
        <time>2014-03-17T08:57:26Z</time>
      </trkpt>
      <trkpt lat="42.73826" lon="0.35989">
        <ele>2789.88</ele>
        <time>2014-03-17T08:57:39Z</time>
      </trkpt>
      <trkpt lat="42.73821" lon="0.35986">
        <ele>2791.33</ele>
        <time>2014-03-17T08:57:53Z</time>
      </trkpt>
      <trkpt lat="42.73815" lon="0.35981">
        <ele>2793.25</ele>
        <time>2014-03-17T08:58:09Z</time>
      </trkpt>
      <trkpt lat="42.73809" lon="0.35975">
        <ele>2795.17</ele>
        <time>2014-03-17T08:58:25Z</time>
      </trkpt>
      <trkpt lat="42.73808" lon="0.35981">
        <ele>2796.13</ele>
        <time>2014-03-17T08:58:35Z</time>
      </trkpt>
      <trkpt lat="42.73807" lon="0.35991">
        <ele>2798.54</ele>
        <time>2014-03-17T08:58:49Z</time>
      </trkpt>
      <trkpt lat="42.73809" lon="0.36005">
        <ele>2800.94</ele>
        <time>2014-03-17T08:59:09Z</time>
      </trkpt>
      <trkpt lat="42.73809" lon="0.36012">
        <ele>2802.86</ele>
        <time>2014-03-17T08:59:27Z</time>
      </trkpt>
      <trkpt lat="42.73812" lon="0.36023">
        <ele>2804.78</ele>
        <time>2014-03-17T08:59:40Z</time>
      </trkpt>
      <trkpt lat="42.73815" lon="0.36035">
        <ele>2806.71</ele>
        <time>2014-03-17T08:59:53Z</time>
      </trkpt>
      <trkpt lat="42.73816" lon="0.3604">
        <ele>2807.67</ele>
        <time>2014-03-17T09:00:06Z</time>
      </trkpt>
      <trkpt lat="42.73816" lon="0.36037">
        <ele>2808.15</ele>
        <time>2014-03-17T09:00:20Z</time>
      </trkpt>
      <trkpt lat="42.73807" lon="0.36034">
        <ele>2810.55</ele>
        <time>2014-03-17T09:00:35Z</time>
      </trkpt>
      <trkpt lat="42.73798" lon="0.36029">
        <ele>2812.96</ele>
        <time>2014-03-17T09:00:51Z</time>
      </trkpt>
      <trkpt lat="42.73793" lon="0.36024">
        <ele>2814.88</ele>
        <time>2014-03-17T09:01:04Z</time>
      </trkpt>
      <trkpt lat="42.73785" lon="0.36019">
        <ele>2816.8</ele>
        <time>2014-03-17T09:01:18Z</time>
      </trkpt>
      <trkpt lat="42.73778" lon="0.36012">
        <ele>2819.2</ele>
        <time>2014-03-17T09:01:34Z</time>
      </trkpt>
      <trkpt lat="42.73773" lon="0.36008">
        <ele>2820.16</ele>
        <time>2014-03-17T09:02:01Z</time>
      </trkpt>
      <trkpt lat="42.7377" lon="0.36005">
        <ele>2821.13</ele>
        <time>2014-03-17T09:02:07Z</time>
      </trkpt>
      <trkpt lat="42.73766" lon="0.35998">
        <ele>2823.53</ele>
        <time>2014-03-17T09:02:20Z</time>
      </trkpt>
      <trkpt lat="42.73763" lon="0.35989">
        <ele>2825.45</ele>
        <time>2014-03-17T09:02:34Z</time>
      </trkpt>
      <trkpt lat="42.73761" lon="0.35982">
        <ele>2826.89</ele>
        <time>2014-03-17T09:02:48Z</time>
      </trkpt>
      <trkpt lat="42.73758" lon="0.35986">
        <ele>2827.37</ele>
        <time>2014-03-17T09:02:59Z</time>
      </trkpt>
      <trkpt lat="42.73757" lon="0.35989">
        <ele>2827.85</ele>
        <time>2014-03-17T09:03:02Z</time>
      </trkpt>
      <trkpt lat="42.73753" lon="0.36">
        <ele>2829.78</ele>
        <time>2014-03-17T09:03:15Z</time>
      </trkpt>
      <trkpt lat="42.73751" lon="0.36011">
        <ele>2831.7</ele>
        <time>2014-03-17T09:03:28Z</time>
      </trkpt>
      <trkpt lat="42.7375" lon="0.36015">
        <ele>2832.18</ele>
        <time>2014-03-17T09:03:46Z</time>
      </trkpt>
      <trkpt lat="42.73749" lon="0.36022">
        <ele>2833.62</ele>
        <time>2014-03-17T09:04:00Z</time>
      </trkpt>
      <trkpt lat="42.7375" lon="0.36032">
        <ele>2835.55</ele>
        <time>2014-03-17T09:04:13Z</time>
      </trkpt>
      <trkpt lat="42.7375" lon="0.36035">
        <ele>2836.51</ele>
        <time>2014-03-17T09:04:16Z</time>
      </trkpt>
      <trkpt lat="42.73751" lon="0.36047">
        <ele>2838.91</ele>
        <time>2014-03-17T09:04:30Z</time>
      </trkpt>
      <trkpt lat="42.73749" lon="0.3605">
        <ele>2838.91</ele>
        <time>2014-03-17T09:04:49Z</time>
      </trkpt>
      <trkpt lat="42.73752" lon="0.36047">
        <ele>2838.91</ele>
        <time>2014-03-17T09:05:17Z</time>
      </trkpt>
      <trkpt lat="42.73746" lon="0.36039">
        <ele>2841.31</ele>
        <time>2014-03-17T09:05:34Z</time>
      </trkpt>
      <trkpt lat="42.73745" lon="0.36038">
        <ele>2841.31</ele>
        <time>2014-03-17T09:05:36Z</time>
      </trkpt>
      <trkpt lat="42.73736" lon="0.3603">
        <ele>2843.72</ele>
        <time>2014-03-17T09:05:51Z</time>
      </trkpt>
      <trkpt lat="42.73732" lon="0.36025">
        <ele>2845.64</ele>
        <time>2014-03-17T09:06:13Z</time>
      </trkpt>
      <trkpt lat="42.73729" lon="0.36021">
        <ele>2846.6</ele>
        <time>2014-03-17T09:06:26Z</time>
      </trkpt>
      <trkpt lat="42.73726" lon="0.36016">
        <ele>2847.08</ele>
        <time>2014-03-17T09:06:39Z</time>
      </trkpt>
      <trkpt lat="42.73725" lon="0.36016">
        <ele>2848.04</ele>
        <time>2014-03-17T09:06:54Z</time>
      </trkpt>
      <trkpt lat="42.73721" lon="0.36006">
        <ele>2849.97</ele>
        <time>2014-03-17T09:07:07Z</time>
      </trkpt>
      <trkpt lat="42.7372" lon="0.36001">
        <ele>2851.41</ele>
        <time>2014-03-17T09:07:22Z</time>
      </trkpt>
      <trkpt lat="42.73719" lon="0.36001">
        <ele>2851.41</ele>
        <time>2014-03-17T09:07:47Z</time>
      </trkpt>
      <trkpt lat="42.73715" lon="0.36006">
        <ele>2853.33</ele>
        <time>2014-03-17T09:07:58Z</time>
      </trkpt>
      <trkpt lat="42.7371" lon="0.36019">
        <ele>2856.21</ele>
        <time>2014-03-17T09:08:12Z</time>
      </trkpt>
      <trkpt lat="42.73707" lon="0.36026">
        <ele>2857.66</ele>
        <time>2014-03-17T09:08:30Z</time>
      </trkpt>
      <trkpt lat="42.73706" lon="0.36037">
        <ele>2860.06</ele>
        <time>2014-03-17T09:08:42Z</time>
      </trkpt>
      <trkpt lat="42.73706" lon="0.36046">
        <ele>2862.94</ele>
        <time>2014-03-17T09:08:55Z</time>
      </trkpt>
      <trkpt lat="42.73705" lon="0.3605">
        <ele>2863.42</ele>
        <time>2014-03-17T09:09:10Z</time>
      </trkpt>
      <trkpt lat="42.73706" lon="0.36054">
        <ele>2864.39</ele>
        <time>2014-03-17T09:09:30Z</time>
      </trkpt>
      <trkpt lat="42.73704" lon="0.36052">
        <ele>2864.39</ele>
        <time>2014-03-17T09:09:46Z</time>
      </trkpt>
      <trkpt lat="42.737" lon="0.36051">
        <ele>2865.83</ele>
        <time>2014-03-17T09:09:58Z</time>
      </trkpt>
      <trkpt lat="42.737" lon="0.36049">
        <ele>2865.83</ele>
        <time>2014-03-17T09:10:13Z</time>
      </trkpt>
      <trkpt lat="42.73697" lon="0.36046">
        <ele>2867.75</ele>
        <time>2014-03-17T09:10:18Z</time>
      </trkpt>
      <trkpt lat="42.73691" lon="0.36039">
        <ele>2869.67</ele>
        <time>2014-03-17T09:10:29Z</time>
      </trkpt>
      <trkpt lat="42.73688" lon="0.36033">
        <ele>2871.6</ele>
        <time>2014-03-17T09:10:41Z</time>
      </trkpt>
      <trkpt lat="42.73685" lon="0.36029">
        <ele>2872.56</ele>
        <time>2014-03-17T09:10:56Z</time>
      </trkpt>
      <trkpt lat="42.73681" lon="0.36017">
        <ele>2874.96</ele>
        <time>2014-03-17T09:11:13Z</time>
      </trkpt>
      <trkpt lat="42.7368" lon="0.36014">
        <ele>2876.4</ele>
        <time>2014-03-17T09:11:25Z</time>
      </trkpt>
      <trkpt lat="42.73681" lon="0.36012">
        <ele>2876.88</ele>
        <time>2014-03-17T09:11:40Z</time>
      </trkpt>
      <trkpt lat="42.7368" lon="0.36002">
        <ele>2878.32</ele>
        <time>2014-03-17T09:11:53Z</time>
      </trkpt>
      <trkpt lat="42.7368" lon="0.36001">
        <ele>2878.81</ele>
        <time>2014-03-17T09:11:55Z</time>
      </trkpt>
      <trkpt lat="42.7368" lon="0.35994">
        <ele>2880.25</ele>
        <time>2014-03-17T09:12:10Z</time>
      </trkpt>
      <trkpt lat="42.73679" lon="0.35988">
        <ele>2881.69</ele>
        <time>2014-03-17T09:12:21Z</time>
      </trkpt>
      <trkpt lat="42.73681" lon="0.35984">
        <ele>2882.17</ele>
        <time>2014-03-17T09:12:40Z</time>
      </trkpt>
      <trkpt lat="42.73682" lon="0.35972">
        <ele>2885.05</ele>
        <time>2014-03-17T09:12:54Z</time>
      </trkpt>
      <trkpt lat="42.73682" lon="0.35966">
        <ele>2886.5</ele>
        <time>2014-03-17T09:13:08Z</time>
      </trkpt>
      <trkpt lat="42.73682" lon="0.35957">
        <ele>2888.9</ele>
        <time>2014-03-17T09:13:24Z</time>
      </trkpt>
      <trkpt lat="42.73681" lon="0.35951">
        <ele>2889.86</ele>
        <time>2014-03-17T09:13:39Z</time>
      </trkpt>
      <trkpt lat="42.73681" lon="0.35945">
        <ele>2891.3</ele>
        <time>2014-03-17T09:13:50Z</time>
      </trkpt>
      <trkpt lat="42.73682" lon="0.35938">
        <ele>2892.74</ele>
        <time>2014-03-17T09:14:06Z</time>
      </trkpt>
      <trkpt lat="42.73682" lon="0.35934">
        <ele>2892.74</ele>
        <time>2014-03-17T09:14:24Z</time>
      </trkpt>
      <trkpt lat="42.7368" lon="0.35932">
        <ele>2892.26</ele>
        <time>2014-03-17T09:14:40Z</time>
      </trkpt>
      <trkpt lat="42.73681" lon="0.35933">
        <ele>2892.26</ele>
        <time>2014-03-17T09:15:01Z</time>
      </trkpt>
      <trkpt lat="42.73682" lon="0.35933">
        <ele>2892.26</ele>
        <time>2014-03-17T09:15:19Z</time>
      </trkpt>
      <trkpt lat="42.73681" lon="0.35933">
        <ele>2892.26</ele>
        <time>2014-03-17T09:15:35Z</time>
      </trkpt>
      <trkpt lat="42.73681" lon="0.35934">
        <ele>2892.26</ele>
        <time>2014-03-17T09:15:56Z</time>
      </trkpt>
      <trkpt lat="42.73681" lon="0.35931">
        <ele>2890.82</ele>
        <time>2014-03-17T09:16:08Z</time>
      </trkpt>
      <trkpt lat="42.7368" lon="0.35932">
        <ele>2890.82</ele>
        <time>2014-03-17T09:16:31Z</time>
      </trkpt>
      <trkpt lat="42.73677" lon="0.35933">
        <ele>2891.3</ele>
        <time>2014-03-17T09:16:59Z</time>
      </trkpt>
      <trkpt lat="42.73678" lon="0.35935">
        <ele>2890.82</ele>
        <time>2014-03-17T09:17:30Z</time>
      </trkpt>
      <trkpt lat="42.73679" lon="0.35928">
        <ele>2890.82</ele>
        <time>2014-03-17T09:17:56Z</time>
      </trkpt>
      <trkpt lat="42.73682" lon="0.35929">
        <ele>2890.82</ele>
        <time>2014-03-17T09:18:32Z</time>
      </trkpt>
      <trkpt lat="42.73682" lon="0.35927">
        <ele>2891.3</ele>
        <time>2014-03-17T09:19:10Z</time>
      </trkpt>
      <trkpt lat="42.73683" lon="0.35929">
        <ele>2890.82</ele>
        <time>2014-03-17T09:19:41Z</time>
      </trkpt>
      <trkpt lat="42.73683" lon="0.35932">
        <ele>2891.78</ele>
        <time>2014-03-17T09:20:04Z</time>
      </trkpt>
      <trkpt lat="42.73683" lon="0.35933">
        <ele>2892.26</ele>
        <time>2014-03-17T09:20:27Z</time>
      </trkpt>
      <trkpt lat="42.73683" lon="0.35933">
        <ele>2891.3</ele>
        <time>2014-03-17T09:20:43Z</time>
      </trkpt>
      <trkpt lat="42.73681" lon="0.35933">
        <ele>2892.26</ele>
        <time>2014-03-17T09:21:05Z</time>
      </trkpt>
      <trkpt lat="42.73683" lon="0.35935">
        <ele>2891.78</ele>
        <time>2014-03-17T09:21:22Z</time>
      </trkpt>
      <trkpt lat="42.73683" lon="0.35934">
        <ele>2891.78</ele>
        <time>2014-03-17T09:21:43Z</time>
      </trkpt>
      <trkpt lat="42.73683" lon="0.35933">
        <ele>2891.78</ele>
        <time>2014-03-17T09:22:06Z</time>
      </trkpt>
      <trkpt lat="42.73684" lon="0.35932">
        <ele>2892.26</ele>
        <time>2014-03-17T09:22:24Z</time>
      </trkpt>
      <trkpt lat="42.73682" lon="0.35932">
        <ele>2892.26</ele>
        <time>2014-03-17T09:22:44Z</time>
      </trkpt>
      <trkpt lat="42.73682" lon="0.35935">
        <ele>2892.26</ele>
        <time>2014-03-17T09:22:56Z</time>
      </trkpt>
      <trkpt lat="42.73676" lon="0.35966">
        <ele>2888.9</ele>
        <time>2014-03-17T09:23:07Z</time>
      </trkpt>
      <trkpt lat="42.73671" lon="0.35988">
        <ele>2885.53</ele>
        <time>2014-03-17T09:23:12Z</time>
      </trkpt>
      <trkpt lat="42.73671" lon="0.36012">
        <ele>2882.17</ele>
        <time>2014-03-17T09:23:17Z</time>
      </trkpt>
      <trkpt lat="42.73672" lon="0.36017">
        <ele>2881.69</ele>
        <time>2014-03-17T09:23:18Z</time>
      </trkpt>
      <trkpt lat="42.73678" lon="0.36034">
        <ele>2879.77</ele>
        <time>2014-03-17T09:23:21Z</time>
      </trkpt>
      <trkpt lat="42.73685" lon="0.36046">
        <ele>2877.84</ele>
        <time>2014-03-17T09:23:23Z</time>
      </trkpt>
      <trkpt lat="42.73699" lon="0.36065">
        <ele>2874.96</ele>
        <time>2014-03-17T09:23:26Z</time>
      </trkpt>
      <trkpt lat="42.73719" lon="0.36086">
        <ele>2872.56</ele>
        <time>2014-03-17T09:23:36Z</time>
      </trkpt>
      <trkpt lat="42.73719" lon="0.36086">
        <ele>2872.56</ele>
        <time>2014-03-17T09:23:38Z</time>
      </trkpt>
      <trkpt lat="42.73725" lon="0.36089">
        <ele>2870.63</ele>
        <time>2014-03-17T09:23:42Z</time>
      </trkpt>
      <trkpt lat="42.73729" lon="0.36091">
        <ele>2869.67</ele>
        <time>2014-03-17T09:23:46Z</time>
      </trkpt>
      <trkpt lat="42.73733" lon="0.36094">
        <ele>2868.71</ele>
        <time>2014-03-17T09:23:58Z</time>
      </trkpt>
      <trkpt lat="42.73733" lon="0.36093">
        <ele>2868.23</ele>
        <time>2014-03-17T09:24:16Z</time>
      </trkpt>
      <trkpt lat="42.73733" lon="0.36093">
        <ele>2868.23</ele>
        <time>2014-03-17T09:24:30Z</time>
      </trkpt>
      <trkpt lat="42.73734" lon="0.3609">
        <ele>2866.79</ele>
        <time>2014-03-17T09:24:43Z</time>
      </trkpt>
      <trkpt lat="42.73734" lon="0.36088">
        <ele>2866.79</ele>
        <time>2014-03-17T09:24:48Z</time>
      </trkpt>
      <trkpt lat="42.73744" lon="0.36092">
        <ele>2862.46</ele>
        <time>2014-03-17T09:24:53Z</time>
      </trkpt>
      <trkpt lat="42.73744" lon="0.36093">
        <ele>2862.46</ele>
        <time>2014-03-17T09:24:54Z</time>
      </trkpt>
      <trkpt lat="42.73744" lon="0.36097">
        <ele>2862.46</ele>
        <time>2014-03-17T09:25:04Z</time>
      </trkpt>
      <trkpt lat="42.73744" lon="0.36098">
        <ele>2862.46</ele>
        <time>2014-03-17T09:25:19Z</time>
      </trkpt>
      <trkpt lat="42.73745" lon="0.36099">
        <ele>2862.46</ele>
        <time>2014-03-17T09:25:33Z</time>
      </trkpt>
      <trkpt lat="42.73748" lon="0.36099">
        <ele>2862.46</ele>
        <time>2014-03-17T09:25:47Z</time>
      </trkpt>
      <trkpt lat="42.7375" lon="0.36099">
        <ele>2861.98</ele>
        <time>2014-03-17T09:25:59Z</time>
      </trkpt>
      <trkpt lat="42.7375" lon="0.361">
        <ele>2862.94</ele>
        <time>2014-03-17T09:26:14Z</time>
      </trkpt>
      <trkpt lat="42.73749" lon="0.361">
        <ele>2864.39</ele>
        <time>2014-03-17T09:26:26Z</time>
      </trkpt>
      <trkpt lat="42.73749" lon="0.361">
        <ele>2864.39</ele>
        <time>2014-03-17T09:26:41Z</time>
      </trkpt>
      <trkpt lat="42.73749" lon="0.36102">
        <ele>2864.87</ele>
        <time>2014-03-17T09:27:06Z</time>
      </trkpt>
      <trkpt lat="42.73748" lon="0.36102">
        <ele>2864.39</ele>
        <time>2014-03-17T09:27:24Z</time>
      </trkpt>
      <trkpt lat="42.73749" lon="0.36101">
        <ele>2863.9</ele>
        <time>2014-03-17T09:27:43Z</time>
      </trkpt>
      <trkpt lat="42.7375" lon="0.36099">
        <ele>2862.94</ele>
        <time>2014-03-17T09:27:58Z</time>
      </trkpt>
      <trkpt lat="42.73749" lon="0.36098">
        <ele>2861.02</ele>
        <time>2014-03-17T09:28:16Z</time>
      </trkpt>
      <trkpt lat="42.73749" lon="0.36098">
        <ele>2861.5</ele>
        <time>2014-03-17T09:28:19Z</time>
      </trkpt>
      <trkpt lat="42.73747" lon="0.361">
        <ele>2862.94</ele>
        <time>2014-03-17T09:28:32Z</time>
      </trkpt>
      <trkpt lat="42.73746" lon="0.36101">
        <ele>2862.46</ele>
        <time>2014-03-17T09:28:42Z</time>
      </trkpt>
      <trkpt lat="42.73746" lon="0.36101">
        <ele>2862.46</ele>
        <time>2014-03-17T09:29:00Z</time>
      </trkpt>
      <trkpt lat="42.73745" lon="0.36098">
        <ele>2862.46</ele>
        <time>2014-03-17T09:29:21Z</time>
      </trkpt>
      <trkpt lat="42.73742" lon="0.36096">
        <ele>2862.46</ele>
        <time>2014-03-17T09:29:44Z</time>
      </trkpt>
      <trkpt lat="42.73744" lon="0.36097">
        <ele>2862.46</ele>
        <time>2014-03-17T09:29:56Z</time>
      </trkpt>
      <trkpt lat="42.73744" lon="0.36096">
        <ele>2862.46</ele>
        <time>2014-03-17T09:30:12Z</time>
      </trkpt>
      <trkpt lat="42.73745" lon="0.36096">
        <ele>2862.46</ele>
        <time>2014-03-17T09:30:13Z</time>
      </trkpt>
      <trkpt lat="42.73741" lon="0.36075">
        <ele>2859.1</ele>
        <time>2014-03-17T09:30:22Z</time>
      </trkpt>
      <trkpt lat="42.73736" lon="0.36061">
        <ele>2855.25</ele>
        <time>2014-03-17T09:30:27Z</time>
      </trkpt>
      <trkpt lat="42.73735" lon="0.36057">
        <ele>2854.29</ele>
        <time>2014-03-17T09:30:29Z</time>
      </trkpt>
      <trkpt lat="42.73733" lon="0.36037">
        <ele>2849.97</ele>
        <time>2014-03-17T09:30:33Z</time>
      </trkpt>
      <trkpt lat="42.73733" lon="0.36025">
        <ele>2845.64</ele>
        <time>2014-03-17T09:30:37Z</time>
      </trkpt>
      <trkpt lat="42.73739" lon="0.36023">
        <ele>2841.31</ele>
        <time>2014-03-17T09:30:41Z</time>
      </trkpt>
      <trkpt lat="42.7374" lon="0.36019">
        <ele>2840.83</ele>
        <time>2014-03-17T09:30:42Z</time>
      </trkpt>
      <trkpt lat="42.73749" lon="0.36012">
        <ele>2836.03</ele>
        <time>2014-03-17T09:30:47Z</time>
      </trkpt>
      <trkpt lat="42.73752" lon="0.36003">
        <ele>2832.66</ele>
        <time>2014-03-17T09:30:50Z</time>
      </trkpt>
      <trkpt lat="42.7376" lon="0.36006">
        <ele>2829.3</ele>
        <time>2014-03-17T09:30:53Z</time>
      </trkpt>
      <trkpt lat="42.73766" lon="0.36004">
        <ele>2825.45</ele>
        <time>2014-03-17T09:30:56Z</time>
      </trkpt>
      <trkpt lat="42.73772" lon="0.36004">
        <ele>2822.57</ele>
        <time>2014-03-17T09:30:59Z</time>
      </trkpt>
      <trkpt lat="42.73782" lon="0.36002">
        <ele>2817.28</ele>
        <time>2014-03-17T09:31:04Z</time>
      </trkpt>
      <trkpt lat="42.73787" lon="0.35999">
        <ele>2813.44</ele>
        <time>2014-03-17T09:31:06Z</time>
      </trkpt>
      <trkpt lat="42.73794" lon="0.35995">
        <ele>2809.59</ele>
        <time>2014-03-17T09:31:09Z</time>
      </trkpt>
      <trkpt lat="42.73799" lon="0.35997">
        <ele>2806.23</ele>
        <time>2014-03-17T09:31:11Z</time>
      </trkpt>
      <trkpt lat="42.73805" lon="0.35987">
        <ele>2801.9</ele>
        <time>2014-03-17T09:31:15Z</time>
      </trkpt>
      <trkpt lat="42.7381" lon="0.35985">
        <ele>2798.05</ele>
        <time>2014-03-17T09:31:18Z</time>
      </trkpt>
      <trkpt lat="42.73821" lon="0.35985">
        <ele>2792.77</ele>
        <time>2014-03-17T09:31:24Z</time>
      </trkpt>
      <trkpt lat="42.73822" lon="0.35973">
        <ele>2789.88</ele>
        <time>2014-03-17T09:31:28Z</time>
      </trkpt>
      <trkpt lat="42.7383" lon="0.35968">
        <ele>2784.6</ele>
        <time>2014-03-17T09:31:32Z</time>
      </trkpt>
      <trkpt lat="42.7383" lon="0.35964">
        <ele>2784.12</ele>
        <time>2014-03-17T09:31:33Z</time>
      </trkpt>
      <trkpt lat="42.73829" lon="0.35951">
        <ele>2782.19</ele>
        <time>2014-03-17T09:31:36Z</time>
      </trkpt>
      <trkpt lat="42.73835" lon="0.35946">
        <ele>2777.39</ele>
        <time>2014-03-17T09:31:39Z</time>
      </trkpt>
      <trkpt lat="42.7384" lon="0.3594">
        <ele>2774.02</ele>
        <time>2014-03-17T09:31:42Z</time>
      </trkpt>
      <trkpt lat="42.7384" lon="0.35935">
        <ele>2773.06</ele>
        <time>2014-03-17T09:31:43Z</time>
      </trkpt>
      <trkpt lat="42.73836" lon="0.35914">
        <ele>2770.18</ele>
        <time>2014-03-17T09:31:48Z</time>
      </trkpt>
      <trkpt lat="42.73832" lon="0.35892">
        <ele>2767.29</ele>
        <time>2014-03-17T09:31:54Z</time>
      </trkpt>
      <trkpt lat="42.73828" lon="0.35866">
        <ele>2763.93</ele>
        <time>2014-03-17T09:32:01Z</time>
      </trkpt>
      <trkpt lat="42.73827" lon="0.3586">
        <ele>2762.49</ele>
        <time>2014-03-17T09:32:03Z</time>
      </trkpt>
      <trkpt lat="42.73831" lon="0.35859">
        <ele>2758.64</ele>
        <time>2014-03-17T09:32:06Z</time>
      </trkpt>
      <trkpt lat="42.73833" lon="0.35861">
        <ele>2757.68</ele>
        <time>2014-03-17T09:32:07Z</time>
      </trkpt>
      <trkpt lat="42.73835" lon="0.35848">
        <ele>2752.39</ele>
        <time>2014-03-17T09:32:14Z</time>
      </trkpt>
      <trkpt lat="42.73835" lon="0.35844">
        <ele>2751.43</ele>
        <time>2014-03-17T09:32:15Z</time>
      </trkpt>
      <trkpt lat="42.73842" lon="0.35846">
        <ele>2747.1</ele>
        <time>2014-03-17T09:32:18Z</time>
      </trkpt>
      <trkpt lat="42.73845" lon="0.35852">
        <ele>2746.14</ele>
        <time>2014-03-17T09:32:20Z</time>
      </trkpt>
      <trkpt lat="42.73847" lon="0.35841">
        <ele>2742.3</ele>
        <time>2014-03-17T09:32:25Z</time>
      </trkpt>
      <trkpt lat="42.73846" lon="0.35826">
        <ele>2739.89</ele>
        <time>2014-03-17T09:32:29Z</time>
      </trkpt>
      <trkpt lat="42.73853" lon="0.35828">
        <ele>2736.05</ele>
        <time>2014-03-17T09:32:33Z</time>
      </trkpt>
      <trkpt lat="42.73855" lon="0.35833">
        <ele>2734.13</ele>
        <time>2014-03-17T09:32:35Z</time>
      </trkpt>
      <trkpt lat="42.73858" lon="0.35823">
        <ele>2730.76</ele>
        <time>2014-03-17T09:32:39Z</time>
      </trkpt>
      <trkpt lat="42.73859" lon="0.35809">
        <ele>2727.88</ele>
        <time>2014-03-17T09:32:43Z</time>
      </trkpt>
      <trkpt lat="42.73862" lon="0.3581">
        <ele>2725.48</ele>
        <time>2014-03-17T09:32:45Z</time>
      </trkpt>
      <trkpt lat="42.73866" lon="0.35799">
        <ele>2720.67</ele>
        <time>2014-03-17T09:32:49Z</time>
      </trkpt>
      <trkpt lat="42.73868" lon="0.35782">
        <ele>2717.78</ele>
        <time>2014-03-17T09:32:53Z</time>
      </trkpt>
      <trkpt lat="42.73873" lon="0.3578">
        <ele>2713.46</ele>
        <time>2014-03-17T09:32:56Z</time>
      </trkpt>
      <trkpt lat="42.73877" lon="0.35769">
        <ele>2709.61</ele>
        <time>2014-03-17T09:33:00Z</time>
      </trkpt>
      <trkpt lat="42.73879" lon="0.35764">
        <ele>2708.17</ele>
        <time>2014-03-17T09:33:03Z</time>
      </trkpt>
      <trkpt lat="42.7388" lon="0.35764">
        <ele>2707.69</ele>
        <time>2014-03-17T09:33:18Z</time>
      </trkpt>
      <trkpt lat="42.73883" lon="0.35747">
        <ele>2704.81</ele>
        <time>2014-03-17T09:33:24Z</time>
      </trkpt>
      <trkpt lat="42.73889" lon="0.35746">
        <ele>2700.96</ele>
        <time>2014-03-17T09:33:28Z</time>
      </trkpt>
      <trkpt lat="42.73894" lon="0.3576">
        <ele>2697.6</ele>
        <time>2014-03-17T09:33:33Z</time>
      </trkpt>
      <trkpt lat="42.73901" lon="0.35755">
        <ele>2693.75</ele>
        <time>2014-03-17T09:33:37Z</time>
      </trkpt>
      <trkpt lat="42.73906" lon="0.35756">
        <ele>2689.43</ele>
        <time>2014-03-17T09:33:40Z</time>
      </trkpt>
      <trkpt lat="42.73912" lon="0.35754">
        <ele>2685.58</ele>
        <time>2014-03-17T09:33:43Z</time>
      </trkpt>
      <trkpt lat="42.73917" lon="0.35755">
        <ele>2682.22</ele>
        <time>2014-03-17T09:33:46Z</time>
      </trkpt>
      <trkpt lat="42.73919" lon="0.35754">
        <ele>2679.81</ele>
        <time>2014-03-17T09:33:47Z</time>
      </trkpt>
      <trkpt lat="42.73926" lon="0.35753">
        <ele>2675.01</ele>
        <time>2014-03-17T09:33:50Z</time>
      </trkpt>
      <trkpt lat="42.73933" lon="0.35755">
        <ele>2669.72</ele>
        <time>2014-03-17T09:33:53Z</time>
      </trkpt>
      <trkpt lat="42.73939" lon="0.35755">
        <ele>2666.35</ele>
        <time>2014-03-17T09:33:55Z</time>
      </trkpt>
      <trkpt lat="42.73944" lon="0.35755">
        <ele>2662.03</ele>
        <time>2014-03-17T09:33:58Z</time>
      </trkpt>
      <trkpt lat="42.73949" lon="0.35756">
        <ele>2658.66</ele>
        <time>2014-03-17T09:34:00Z</time>
      </trkpt>
      <trkpt lat="42.73954" lon="0.35759">
        <ele>2656.74</ele>
        <time>2014-03-17T09:34:02Z</time>
      </trkpt>
      <trkpt lat="42.73965" lon="0.35761">
        <ele>2649.05</ele>
        <time>2014-03-17T09:34:07Z</time>
      </trkpt>
      <trkpt lat="42.7397" lon="0.35762">
        <ele>2645.21</ele>
        <time>2014-03-17T09:34:09Z</time>
      </trkpt>
      <trkpt lat="42.73971" lon="0.35767">
        <ele>2642.32</ele>
        <time>2014-03-17T09:34:12Z</time>
      </trkpt>
      <trkpt lat="42.73971" lon="0.35765">
        <ele>2643.76</ele>
        <time>2014-03-17T09:34:15Z</time>
      </trkpt>
      <trkpt lat="42.7397" lon="0.35764">
        <ele>2643.76</ele>
        <time>2014-03-17T09:34:36Z</time>
      </trkpt>
      <trkpt lat="42.73972" lon="0.35763">
        <ele>2643.28</ele>
        <time>2014-03-17T09:34:42Z</time>
      </trkpt>
      <trkpt lat="42.73981" lon="0.35775">
        <ele>2638.48</ele>
        <time>2014-03-17T09:34:48Z</time>
      </trkpt>
      <trkpt lat="42.73987" lon="0.35775">
        <ele>2635.59</ele>
        <time>2014-03-17T09:34:50Z</time>
      </trkpt>
      <trkpt lat="42.73994" lon="0.35777">
        <ele>2631.75</ele>
        <time>2014-03-17T09:34:52Z</time>
      </trkpt>
      <trkpt lat="42.73997" lon="0.35769">
        <ele>2628.38</ele>
        <time>2014-03-17T09:34:54Z</time>
      </trkpt>
      <trkpt lat="42.74003" lon="0.35773">
        <ele>2625.02</ele>
        <time>2014-03-17T09:34:56Z</time>
      </trkpt>
      <trkpt lat="42.74005" lon="0.35779">
        <ele>2623.58</ele>
        <time>2014-03-17T09:34:57Z</time>
      </trkpt>
      <trkpt lat="42.7401" lon="0.3582">
        <ele>2619.73</ele>
        <time>2014-03-17T09:35:03Z</time>
      </trkpt>
      <trkpt lat="42.74012" lon="0.35847">
        <ele>2617.33</ele>
        <time>2014-03-17T09:35:07Z</time>
      </trkpt>
      <trkpt lat="42.74017" lon="0.35869">
        <ele>2614.92</ele>
        <time>2014-03-17T09:35:11Z</time>
      </trkpt>
      <trkpt lat="42.74022" lon="0.35869">
        <ele>2611.56</ele>
        <time>2014-03-17T09:35:13Z</time>
      </trkpt>
      <trkpt lat="42.74032" lon="0.35881">
        <ele>2605.79</ele>
        <time>2014-03-17T09:35:16Z</time>
      </trkpt>
      <trkpt lat="42.74039" lon="0.35884">
        <ele>2601.95</ele>
        <time>2014-03-17T09:35:19Z</time>
      </trkpt>
      <trkpt lat="42.74047" lon="0.35876">
        <ele>2595.22</ele>
        <time>2014-03-17T09:35:23Z</time>
      </trkpt>
      <trkpt lat="42.7405" lon="0.35875">
        <ele>2594.25</ele>
        <time>2014-03-17T09:35:24Z</time>
      </trkpt>
      <trkpt lat="42.74063" lon="0.35868">
        <ele>2586.08</ele>
        <time>2014-03-17T09:35:28Z</time>
      </trkpt>
      <trkpt lat="42.74068" lon="0.35858">
        <ele>2581.76</ele>
        <time>2014-03-17T09:35:30Z</time>
      </trkpt>
      <trkpt lat="42.74073" lon="0.35858">
        <ele>2580.32</ele>
        <time>2014-03-17T09:35:31Z</time>
      </trkpt>
      <trkpt lat="42.74083" lon="0.35844">
        <ele>2573.59</ele>
        <time>2014-03-17T09:35:36Z</time>
      </trkpt>
      <trkpt lat="42.74082" lon="0.35839">
        <ele>2573.59</ele>
        <time>2014-03-17T09:35:37Z</time>
      </trkpt>
      <trkpt lat="42.74089" lon="0.35837">
        <ele>2569.26</ele>
        <time>2014-03-17T09:35:39Z</time>
      </trkpt>
      <trkpt lat="42.74096" lon="0.35831">
        <ele>2566.38</ele>
        <time>2014-03-17T09:35:41Z</time>
      </trkpt>
      <trkpt lat="42.74105" lon="0.35826">
        <ele>2563.01</ele>
        <time>2014-03-17T09:35:43Z</time>
      </trkpt>
      <trkpt lat="42.74116" lon="0.35828">
        <ele>2559.65</ele>
        <time>2014-03-17T09:35:45Z</time>
      </trkpt>
      <trkpt lat="42.74121" lon="0.35817">
        <ele>2555.32</ele>
        <time>2014-03-17T09:35:47Z</time>
      </trkpt>
      <trkpt lat="42.74132" lon="0.35814">
        <ele>2551</ele>
        <time>2014-03-17T09:35:49Z</time>
      </trkpt>
      <trkpt lat="42.74136" lon="0.35799">
        <ele>2546.67</ele>
        <time>2014-03-17T09:35:51Z</time>
      </trkpt>
      <trkpt lat="42.74132" lon="0.35785">
        <ele>2545.71</ele>
        <time>2014-03-17T09:35:53Z</time>
      </trkpt>
      <trkpt lat="42.74131" lon="0.35781">
        <ele>2544.27</ele>
        <time>2014-03-17T09:36:03Z</time>
      </trkpt>
      <trkpt lat="42.74132" lon="0.35781">
        <ele>2544.27</ele>
        <time>2014-03-17T09:36:07Z</time>
      </trkpt>
      <trkpt lat="42.74134" lon="0.35772">
        <ele>2543.79</ele>
        <time>2014-03-17T09:36:10Z</time>
      </trkpt>
      <trkpt lat="42.74135" lon="0.3574">
        <ele>2539.46</ele>
        <time>2014-03-17T09:36:16Z</time>
      </trkpt>
      <trkpt lat="42.74144" lon="0.35736">
        <ele>2535.13</ele>
        <time>2014-03-17T09:36:19Z</time>
      </trkpt>
      <trkpt lat="42.7415" lon="0.35729">
        <ele>2531.77</ele>
        <time>2014-03-17T09:36:21Z</time>
      </trkpt>
      <trkpt lat="42.74158" lon="0.35725">
        <ele>2527.44</ele>
        <time>2014-03-17T09:36:23Z</time>
      </trkpt>
      <trkpt lat="42.74165" lon="0.3572">
        <ele>2523.6</ele>
        <time>2014-03-17T09:36:25Z</time>
      </trkpt>
      <trkpt lat="42.74172" lon="0.35715">
        <ele>2520.71</ele>
        <time>2014-03-17T09:36:27Z</time>
      </trkpt>
      <trkpt lat="42.74181" lon="0.35713">
        <ele>2516.39</ele>
        <time>2014-03-17T09:36:29Z</time>
      </trkpt>
      <trkpt lat="42.7419" lon="0.35708">
        <ele>2512.54</ele>
        <time>2014-03-17T09:36:31Z</time>
      </trkpt>
      <trkpt lat="42.742" lon="0.35706">
        <ele>2507.74</ele>
        <time>2014-03-17T09:36:33Z</time>
      </trkpt>
      <trkpt lat="42.74202" lon="0.35703">
        <ele>2504.37</ele>
        <time>2014-03-17T09:36:34Z</time>
      </trkpt>
      <trkpt lat="42.74202" lon="0.35704">
        <ele>2502.93</ele>
        <time>2014-03-17T09:36:36Z</time>
      </trkpt>
      <trkpt lat="42.74201" lon="0.35704">
        <ele>2504.85</ele>
        <time>2014-03-17T09:36:49Z</time>
      </trkpt>
      <trkpt lat="42.74211" lon="0.35701">
        <ele>2501.49</ele>
        <time>2014-03-17T09:36:53Z</time>
      </trkpt>
      <trkpt lat="42.74218" lon="0.35712">
        <ele>2500.05</ele>
        <time>2014-03-17T09:36:56Z</time>
      </trkpt>
      <trkpt lat="42.74234" lon="0.35748">
        <ele>2496.68</ele>
        <time>2014-03-17T09:37:06Z</time>
      </trkpt>
      <trkpt lat="42.74246" lon="0.35744">
        <ele>2491.39</ele>
        <time>2014-03-17T09:37:10Z</time>
      </trkpt>
      <trkpt lat="42.74254" lon="0.35741">
        <ele>2487.55</ele>
        <time>2014-03-17T09:37:12Z</time>
      </trkpt>
      <trkpt lat="42.74263" lon="0.3574">
        <ele>2483.22</ele>
        <time>2014-03-17T09:37:14Z</time>
      </trkpt>
      <trkpt lat="42.7427" lon="0.35741">
        <ele>2479.86</ele>
        <time>2014-03-17T09:37:16Z</time>
      </trkpt>
      <trkpt lat="42.74273" lon="0.35746">
        <ele>2477.45</ele>
        <time>2014-03-17T09:37:22Z</time>
      </trkpt>
      <trkpt lat="42.74273" lon="0.35746">
        <ele>2476.97</ele>
        <time>2014-03-17T09:37:25Z</time>
      </trkpt>
      <trkpt lat="42.74286" lon="0.35745">
        <ele>2471.21</ele>
        <time>2014-03-17T09:37:30Z</time>
      </trkpt>
      <trkpt lat="42.74293" lon="0.35743">
        <ele>2467.84</ele>
        <time>2014-03-17T09:37:32Z</time>
      </trkpt>
      <trkpt lat="42.74301" lon="0.35741">
        <ele>2463.52</ele>
        <time>2014-03-17T09:37:34Z</time>
      </trkpt>
      <trkpt lat="42.74309" lon="0.35737">
        <ele>2459.67</ele>
        <time>2014-03-17T09:37:36Z</time>
      </trkpt>
      <trkpt lat="42.74316" lon="0.35734">
        <ele>2454.86</ele>
        <time>2014-03-17T09:37:38Z</time>
      </trkpt>
      <trkpt lat="42.74322" lon="0.35732">
        <ele>2451.02</ele>
        <time>2014-03-17T09:37:40Z</time>
      </trkpt>
      <trkpt lat="42.74322" lon="0.35733">
        <ele>2451.02</ele>
        <time>2014-03-17T09:37:41Z</time>
      </trkpt>
      <trkpt lat="42.7432" lon="0.35731">
        <ele>2451.5</ele>
        <time>2014-03-17T09:38:03Z</time>
      </trkpt>
      <trkpt lat="42.74319" lon="0.35731">
        <ele>2451.02</ele>
        <time>2014-03-17T09:38:31Z</time>
      </trkpt>
      <trkpt lat="42.7432" lon="0.35731">
        <ele>2451.02</ele>
        <time>2014-03-17T09:38:47Z</time>
      </trkpt>
      <trkpt lat="42.74327" lon="0.35749">
        <ele>2449.1</ele>
        <time>2014-03-17T09:38:52Z</time>
      </trkpt>
      <trkpt lat="42.74337" lon="0.35752">
        <ele>2444.29</ele>
        <time>2014-03-17T09:38:55Z</time>
      </trkpt>
      <trkpt lat="42.74339" lon="0.35757">
        <ele>2443.33</ele>
        <time>2014-03-17T09:38:56Z</time>
      </trkpt>
      <trkpt lat="42.74345" lon="0.35768">
        <ele>2441.89</ele>
        <time>2014-03-17T09:38:58Z</time>
      </trkpt>
      <trkpt lat="42.74356" lon="0.35771">
        <ele>2437.08</ele>
        <time>2014-03-17T09:39:01Z</time>
      </trkpt>
      <trkpt lat="42.74364" lon="0.3578">
        <ele>2434.68</ele>
        <time>2014-03-17T09:39:03Z</time>
      </trkpt>
      <trkpt lat="42.7439" lon="0.35816">
        <ele>2429.87</ele>
        <time>2014-03-17T09:39:11Z</time>
      </trkpt>
      <trkpt lat="42.74404" lon="0.35836">
        <ele>2426.5</ele>
        <time>2014-03-17T09:39:15Z</time>
      </trkpt>
      <trkpt lat="42.74412" lon="0.35843">
        <ele>2424.58</ele>
        <time>2014-03-17T09:39:18Z</time>
      </trkpt>
      <trkpt lat="42.74417" lon="0.35835">
        <ele>2419.78</ele>
        <time>2014-03-17T09:39:21Z</time>
      </trkpt>
      <trkpt lat="42.74425" lon="0.35837">
        <ele>2416.41</ele>
        <time>2014-03-17T09:39:23Z</time>
      </trkpt>
      <trkpt lat="42.7443" lon="0.35832">
        <ele>2412.57</ele>
        <time>2014-03-17T09:39:26Z</time>
      </trkpt>
      <trkpt lat="42.7443" lon="0.3582">
        <ele>2409.2</ele>
        <time>2014-03-17T09:39:29Z</time>
      </trkpt>
      <trkpt lat="42.74439" lon="0.35823">
        <ele>2405.84</ele>
        <time>2014-03-17T09:39:31Z</time>
      </trkpt>
      <trkpt lat="42.74444" lon="0.35817">
        <ele>2402.47</ele>
        <time>2014-03-17T09:39:34Z</time>
      </trkpt>
      <trkpt lat="42.74433" lon="0.3579">
        <ele>2398.63</ele>
        <time>2014-03-17T09:39:39Z</time>
      </trkpt>
      <trkpt lat="42.74432" lon="0.35785">
        <ele>2398.15</ele>
        <time>2014-03-17T09:39:40Z</time>
      </trkpt>
      <trkpt lat="42.7444" lon="0.35769">
        <ele>2391.9</ele>
        <time>2014-03-17T09:39:45Z</time>
      </trkpt>
      <trkpt lat="42.74446" lon="0.35759">
        <ele>2386.61</ele>
        <time>2014-03-17T09:39:48Z</time>
      </trkpt>
      <trkpt lat="42.74448" lon="0.35761">
        <ele>2386.13</ele>
        <time>2014-03-17T09:39:49Z</time>
      </trkpt>
      <trkpt lat="42.7447" lon="0.35784">
        <ele>2382.28</ele>
        <time>2014-03-17T09:39:57Z</time>
      </trkpt>
      <trkpt lat="42.74489" lon="0.35799">
        <ele>2378.92</ele>
        <time>2014-03-17T09:40:01Z</time>
      </trkpt>
      <trkpt lat="42.74515" lon="0.35825">
        <ele>2375.55</ele>
        <time>2014-03-17T09:40:07Z</time>
      </trkpt>
      <trkpt lat="42.74528" lon="0.3584">
        <ele>2374.11</ele>
        <time>2014-03-17T09:40:10Z</time>
      </trkpt>
      <trkpt lat="42.74548" lon="0.35855">
        <ele>2371.23</ele>
        <time>2014-03-17T09:40:16Z</time>
      </trkpt>
      <trkpt lat="42.74553" lon="0.35847">
        <ele>2365.94</ele>
        <time>2014-03-17T09:40:20Z</time>
      </trkpt>
      <trkpt lat="42.74557" lon="0.35842">
        <ele>2362.58</ele>
        <time>2014-03-17T09:40:22Z</time>
      </trkpt>
      <trkpt lat="42.7456" lon="0.35835">
        <ele>2358.73</ele>
        <time>2014-03-17T09:40:25Z</time>
      </trkpt>
      <trkpt lat="42.74574" lon="0.35847">
        <ele>2355.37</ele>
        <time>2014-03-17T09:40:29Z</time>
      </trkpt>
      <trkpt lat="42.74586" lon="0.35863">
        <ele>2352.96</ele>
        <time>2014-03-17T09:40:38Z</time>
      </trkpt>
      <trkpt lat="42.74583" lon="0.35865">
        <ele>2353.44</ele>
        <time>2014-03-17T09:40:54Z</time>
      </trkpt>
      <trkpt lat="42.74582" lon="0.35865">
        <ele>2352.96</ele>
        <time>2014-03-17T09:41:10Z</time>
      </trkpt>
      <trkpt lat="42.74583" lon="0.35866">
        <ele>2352.96</ele>
        <time>2014-03-17T09:41:23Z</time>
      </trkpt>
      <trkpt lat="42.74583" lon="0.35865">
        <ele>2352.48</ele>
        <time>2014-03-17T09:41:39Z</time>
      </trkpt>
      <trkpt lat="42.74583" lon="0.35866">
        <ele>2351.52</ele>
        <time>2014-03-17T09:41:54Z</time>
      </trkpt>
      <trkpt lat="42.74582" lon="0.35869">
        <ele>2351.52</ele>
        <time>2014-03-17T09:42:23Z</time>
      </trkpt>
      <trkpt lat="42.74582" lon="0.35867">
        <ele>2351.04</ele>
        <time>2014-03-17T09:42:39Z</time>
      </trkpt>
      <trkpt lat="42.74583" lon="0.35867">
        <ele>2351.04</ele>
        <time>2014-03-17T09:43:14Z</time>
      </trkpt>
      <trkpt lat="42.74584" lon="0.35866">
        <ele>2351.04</ele>
        <time>2014-03-17T09:43:55Z</time>
      </trkpt>
      <trkpt lat="42.74584" lon="0.35867">
        <ele>2350.56</ele>
        <time>2014-03-17T09:44:24Z</time>
      </trkpt>
      <trkpt lat="42.74584" lon="0.35867">
        <ele>2350.08</ele>
        <time>2014-03-17T09:44:55Z</time>
      </trkpt>
      <trkpt lat="42.74583" lon="0.35866">
        <ele>2350.08</ele>
        <time>2014-03-17T09:45:24Z</time>
      </trkpt>
      <trkpt lat="42.74583" lon="0.35867">
        <ele>2350.08</ele>
        <time>2014-03-17T09:45:27Z</time>
      </trkpt>
      <trkpt lat="42.74584" lon="0.35865">
        <ele>2351.04</ele>
        <time>2014-03-17T09:45:38Z</time>
      </trkpt>
      <trkpt lat="42.74582" lon="0.35865">
        <ele>2350.56</ele>
        <time>2014-03-17T09:45:56Z</time>
      </trkpt>
      <trkpt lat="42.74583" lon="0.35866">
        <ele>2350.56</ele>
        <time>2014-03-17T09:46:17Z</time>
      </trkpt>
      <trkpt lat="42.74584" lon="0.35866">
        <ele>2351.04</ele>
        <time>2014-03-17T09:46:27Z</time>
      </trkpt>
      <trkpt lat="42.74587" lon="0.35871">
        <ele>2351.52</ele>
        <time>2014-03-17T09:46:43Z</time>
      </trkpt>
      <trkpt lat="42.74592" lon="0.35879">
        <ele>2353.44</ele>
        <time>2014-03-17T09:46:54Z</time>
      </trkpt>
      <trkpt lat="42.74593" lon="0.3588">
        <ele>2353.44</ele>
        <time>2014-03-17T09:46:55Z</time>
      </trkpt>
      <trkpt lat="42.74597" lon="0.35887">
        <ele>2354.89</ele>
        <time>2014-03-17T09:47:07Z</time>
      </trkpt>
      <trkpt lat="42.74602" lon="0.35897">
        <ele>2356.33</ele>
        <time>2014-03-17T09:47:23Z</time>
      </trkpt>
      <trkpt lat="42.74606" lon="0.35903">
        <ele>2356.81</ele>
        <time>2014-03-17T09:47:39Z</time>
      </trkpt>
      <trkpt lat="42.7461" lon="0.35912">
        <ele>2357.29</ele>
        <time>2014-03-17T09:47:50Z</time>
      </trkpt>
      <trkpt lat="42.74616" lon="0.35926">
        <ele>2359.21</ele>
        <time>2014-03-17T09:48:07Z</time>
      </trkpt>
      <trkpt lat="42.74619" lon="0.35936">
        <ele>2360.65</ele>
        <time>2014-03-17T09:48:22Z</time>
      </trkpt>
      <trkpt lat="42.74623" lon="0.35941">
        <ele>2362.1</ele>
        <time>2014-03-17T09:48:34Z</time>
      </trkpt>
      <trkpt lat="42.74624" lon="0.35943">
        <ele>2362.58</ele>
        <time>2014-03-17T09:48:46Z</time>
      </trkpt>
      <trkpt lat="42.74627" lon="0.35946">
        <ele>2363.06</ele>
        <time>2014-03-17T09:48:57Z</time>
      </trkpt>
      <trkpt lat="42.74628" lon="0.3595">
        <ele>2364.02</ele>
        <time>2014-03-17T09:49:14Z</time>
      </trkpt>
      <trkpt lat="42.7463" lon="0.35954">
        <ele>2364.98</ele>
        <time>2014-03-17T09:49:26Z</time>
      </trkpt>
      <trkpt lat="42.74635" lon="0.35955">
        <ele>2366.42</ele>
        <time>2014-03-17T09:49:40Z</time>
      </trkpt>
      <trkpt lat="42.74638" lon="0.35958">
        <ele>2366.9</ele>
        <time>2014-03-17T09:49:50Z</time>
      </trkpt>
      <trkpt lat="42.7464" lon="0.35961">
        <ele>2368.35</ele>
        <time>2014-03-17T09:50:02Z</time>
      </trkpt>
      <trkpt lat="42.74644" lon="0.35967">
        <ele>2369.79</ele>
        <time>2014-03-17T09:50:15Z</time>
      </trkpt>
      <trkpt lat="42.74645" lon="0.35971">
        <ele>2370.27</ele>
        <time>2014-03-17T09:50:20Z</time>
      </trkpt>
      <trkpt lat="42.74651" lon="0.35979">
        <ele>2371.71</ele>
        <time>2014-03-17T09:50:32Z</time>
      </trkpt>
      <trkpt lat="42.74654" lon="0.35986">
        <ele>2373.15</ele>
        <time>2014-03-17T09:50:43Z</time>
      </trkpt>
      <trkpt lat="42.74656" lon="0.35992">
        <ele>2374.59</ele>
        <time>2014-03-17T09:50:58Z</time>
      </trkpt>
      <trkpt lat="42.74659" lon="0.36003">
        <ele>2376.04</ele>
        <time>2014-03-17T09:51:12Z</time>
      </trkpt>
      <trkpt lat="42.74663" lon="0.36013">
        <ele>2377.96</ele>
        <time>2014-03-17T09:51:23Z</time>
      </trkpt>
      <trkpt lat="42.74664" lon="0.36016">
        <ele>2378.44</ele>
        <time>2014-03-17T09:51:42Z</time>
      </trkpt>
      <trkpt lat="42.74665" lon="0.36025">
        <ele>2379.88</ele>
        <time>2014-03-17T09:51:55Z</time>
      </trkpt>
      <trkpt lat="42.74668" lon="0.36031">
        <ele>2380.36</ele>
        <time>2014-03-17T09:52:06Z</time>
      </trkpt>
      <trkpt lat="42.74671" lon="0.36042">
        <ele>2381.8</ele>
        <time>2014-03-17T09:52:19Z</time>
      </trkpt>
      <trkpt lat="42.74674" lon="0.36053">
        <ele>2383.73</ele>
        <time>2014-03-17T09:52:32Z</time>
      </trkpt>
      <trkpt lat="42.74677" lon="0.36059">
        <ele>2384.69</ele>
        <time>2014-03-17T09:52:45Z</time>
      </trkpt>
      <trkpt lat="42.74679" lon="0.36065">
        <ele>2386.13</ele>
        <time>2014-03-17T09:53:01Z</time>
      </trkpt>
      <trkpt lat="42.74682" lon="0.36073">
        <ele>2387.57</ele>
        <time>2014-03-17T09:53:12Z</time>
      </trkpt>
      <trkpt lat="42.74684" lon="0.36079">
        <ele>2388.53</ele>
        <time>2014-03-17T09:53:24Z</time>
      </trkpt>
      <trkpt lat="42.74688" lon="0.36086">
        <ele>2390.46</ele>
        <time>2014-03-17T09:53:37Z</time>
      </trkpt>
      <trkpt lat="42.74692" lon="0.36094">
        <ele>2391.9</ele>
        <time>2014-03-17T09:53:49Z</time>
      </trkpt>
      <trkpt lat="42.74695" lon="0.36102">
        <ele>2393.82</ele>
        <time>2014-03-17T09:54:03Z</time>
      </trkpt>
      <trkpt lat="42.74696" lon="0.36103">
        <ele>2394.3</ele>
        <time>2014-03-17T09:54:17Z</time>
      </trkpt>
      <trkpt lat="42.74695" lon="0.36104">
        <ele>2393.82</ele>
        <time>2014-03-17T09:54:34Z</time>
      </trkpt>
      <trkpt lat="42.74693" lon="0.36101">
        <ele>2395.26</ele>
        <time>2014-03-17T09:54:50Z</time>
      </trkpt>
      <trkpt lat="42.74683" lon="0.36098">
        <ele>2397.67</ele>
        <time>2014-03-17T09:55:07Z</time>
      </trkpt>
      <trkpt lat="42.74681" lon="0.36097">
        <ele>2398.15</ele>
        <time>2014-03-17T09:55:10Z</time>
      </trkpt>
      <trkpt lat="42.74672" lon="0.36094">
        <ele>2399.11</ele>
        <time>2014-03-17T09:55:26Z</time>
      </trkpt>
      <trkpt lat="42.74665" lon="0.36089">
        <ele>2400.55</ele>
        <time>2014-03-17T09:55:39Z</time>
      </trkpt>
      <trkpt lat="42.74661" lon="0.36086">
        <ele>2401.51</ele>
        <time>2014-03-17T09:55:54Z</time>
      </trkpt>
      <trkpt lat="42.74655" lon="0.36082">
        <ele>2402.95</ele>
        <time>2014-03-17T09:56:08Z</time>
      </trkpt>
      <trkpt lat="42.74655" lon="0.36082">
        <ele>2402.95</ele>
        <time>2014-03-17T09:56:12Z</time>
      </trkpt>
      <trkpt lat="42.74657" lon="0.36084">
        <ele>2403.43</ele>
        <time>2014-03-17T09:56:22Z</time>
      </trkpt>
      <trkpt lat="42.74659" lon="0.36094">
        <ele>2404.88</ele>
        <time>2014-03-17T09:56:34Z</time>
      </trkpt>
      <trkpt lat="42.74661" lon="0.36098">
        <ele>2405.84</ele>
        <time>2014-03-17T09:56:46Z</time>
      </trkpt>
      <trkpt lat="42.74664" lon="0.36106">
        <ele>2407.28</ele>
        <time>2014-03-17T09:56:58Z</time>
      </trkpt>
      <trkpt lat="42.7467" lon="0.36116">
        <ele>2408.72</ele>
        <time>2014-03-17T09:57:12Z</time>
      </trkpt>
      <trkpt lat="42.74674" lon="0.36125">
        <ele>2410.64</ele>
        <time>2014-03-17T09:57:25Z</time>
      </trkpt>
      <trkpt lat="42.74676" lon="0.36127">
        <ele>2411.6</ele>
        <time>2014-03-17T09:57:40Z</time>
      </trkpt>
      <trkpt lat="42.74682" lon="0.36135">
        <ele>2413.05</ele>
        <time>2014-03-17T09:57:52Z</time>
      </trkpt>
      <trkpt lat="42.74687" lon="0.36142">
        <ele>2414.49</ele>
        <time>2014-03-17T09:58:08Z</time>
      </trkpt>
      <trkpt lat="42.74691" lon="0.36149">
        <ele>2415.93</ele>
        <time>2014-03-17T09:58:17Z</time>
      </trkpt>
      <trkpt lat="42.74691" lon="0.36151">
        <ele>2416.89</ele>
        <time>2014-03-17T09:58:28Z</time>
      </trkpt>
      <trkpt lat="42.74684" lon="0.36149">
        <ele>2418.81</ele>
        <time>2014-03-17T09:58:43Z</time>
      </trkpt>
      <trkpt lat="42.74675" lon="0.36147">
        <ele>2420.26</ele>
        <time>2014-03-17T09:58:57Z</time>
      </trkpt>
      <trkpt lat="42.74666" lon="0.36142">
        <ele>2422.18</ele>
        <time>2014-03-17T09:59:14Z</time>
      </trkpt>
      <trkpt lat="42.74662" lon="0.3614">
        <ele>2422.66</ele>
        <time>2014-03-17T09:59:19Z</time>
      </trkpt>
      <trkpt lat="42.74656" lon="0.36137">
        <ele>2423.62</ele>
        <time>2014-03-17T09:59:33Z</time>
      </trkpt>
      <trkpt lat="42.7465" lon="0.36134">
        <ele>2424.58</ele>
        <time>2014-03-17T09:59:46Z</time>
      </trkpt>
      <trkpt lat="42.74644" lon="0.36131">
        <ele>2426.02</ele>
        <time>2014-03-17T10:00:00Z</time>
      </trkpt>
      <trkpt lat="42.74639" lon="0.36128">
        <ele>2427.47</ele>
        <time>2014-03-17T10:00:16Z</time>
      </trkpt>
      <trkpt lat="42.74637" lon="0.36127">
        <ele>2427.95</ele>
        <time>2014-03-17T10:00:30Z</time>
      </trkpt>
      <trkpt lat="42.74638" lon="0.36131">
        <ele>2428.91</ele>
        <time>2014-03-17T10:00:46Z</time>
      </trkpt>
      <trkpt lat="42.74644" lon="0.36142">
        <ele>2431.31</ele>
        <time>2014-03-17T10:01:02Z</time>
      </trkpt>
      <trkpt lat="42.74646" lon="0.36151">
        <ele>2432.75</ele>
        <time>2014-03-17T10:01:14Z</time>
      </trkpt>
      <trkpt lat="42.74647" lon="0.3615">
        <ele>2431.79</ele>
        <time>2014-03-17T10:01:38Z</time>
      </trkpt>
      <trkpt lat="42.7465" lon="0.36151">
        <ele>2431.31</ele>
        <time>2014-03-17T10:01:46Z</time>
      </trkpt>
      <trkpt lat="42.74659" lon="0.36154">
        <ele>2427.95</ele>
        <time>2014-03-17T10:01:54Z</time>
      </trkpt>
      <trkpt lat="42.74668" lon="0.36155">
        <ele>2425.54</ele>
        <time>2014-03-17T10:02:06Z</time>
      </trkpt>
      <trkpt lat="42.74676" lon="0.36158">
        <ele>2424.58</ele>
        <time>2014-03-17T10:02:18Z</time>
      </trkpt>
      <trkpt lat="42.74678" lon="0.3616">
        <ele>2423.14</ele>
        <time>2014-03-17T10:02:30Z</time>
      </trkpt>
      <trkpt lat="42.74681" lon="0.36159">
        <ele>2423.14</ele>
        <time>2014-03-17T10:02:46Z</time>
      </trkpt>
      <trkpt lat="42.74679" lon="0.3616">
        <ele>2423.14</ele>
        <time>2014-03-17T10:03:00Z</time>
      </trkpt>
      <trkpt lat="42.74678" lon="0.36158">
        <ele>2423.14</ele>
        <time>2014-03-17T10:03:03Z</time>
      </trkpt>
      <trkpt lat="42.74675" lon="0.36152">
        <ele>2420.74</ele>
        <time>2014-03-17T10:03:08Z</time>
      </trkpt>
      <trkpt lat="42.74671" lon="0.36138">
        <ele>2417.37</ele>
        <time>2014-03-17T10:03:20Z</time>
      </trkpt>
      <trkpt lat="42.74668" lon="0.36127">
        <ele>2414.01</ele>
        <time>2014-03-17T10:03:24Z</time>
      </trkpt>
      <trkpt lat="42.74664" lon="0.36115">
        <ele>2411.12</ele>
        <time>2014-03-17T10:03:28Z</time>
      </trkpt>
      <trkpt lat="42.74662" lon="0.36108">
        <ele>2408.72</ele>
        <time>2014-03-17T10:03:31Z</time>
      </trkpt>
      <trkpt lat="42.74661" lon="0.36104">
        <ele>2407.76</ele>
        <time>2014-03-17T10:03:33Z</time>
      </trkpt>
      <trkpt lat="42.74659" lon="0.36102">
        <ele>2407.28</ele>
        <time>2014-03-17T10:03:45Z</time>
      </trkpt>
      <trkpt lat="42.74666" lon="0.36106">
        <ele>2405.84</ele>
        <time>2014-03-17T10:03:57Z</time>
      </trkpt>
      <trkpt lat="42.74669" lon="0.36106">
        <ele>2404.88</ele>
        <time>2014-03-17T10:04:07Z</time>
      </trkpt>
      <trkpt lat="42.7467" lon="0.36106">
        <ele>2404.39</ele>
        <time>2014-03-17T10:04:23Z</time>
      </trkpt>
      <trkpt lat="42.7467" lon="0.3611">
        <ele>2404.88</ele>
        <time>2014-03-17T10:04:36Z</time>
      </trkpt>
      <trkpt lat="42.74666" lon="0.36106">
        <ele>2405.84</ele>
        <time>2014-03-17T10:04:49Z</time>
      </trkpt>
      <trkpt lat="42.74667" lon="0.36107">
        <ele>2406.32</ele>
        <time>2014-03-17T10:04:59Z</time>
      </trkpt>
      <trkpt lat="42.74669" lon="0.36113">
        <ele>2407.28</ele>
        <time>2014-03-17T10:05:10Z</time>
      </trkpt>
      <trkpt lat="42.74672" lon="0.36122">
        <ele>2409.2</ele>
        <time>2014-03-17T10:05:24Z</time>
      </trkpt>
      <trkpt lat="42.74677" lon="0.3613">
        <ele>2410.64</ele>
        <time>2014-03-17T10:05:35Z</time>
      </trkpt>
      <trkpt lat="42.7468" lon="0.36134">
        <ele>2412.57</ele>
        <time>2014-03-17T10:05:48Z</time>
      </trkpt>
      <trkpt lat="42.74686" lon="0.36142">
        <ele>2414.01</ele>
        <time>2014-03-17T10:06:00Z</time>
      </trkpt>
      <trkpt lat="42.7469" lon="0.36147">
        <ele>2414.97</ele>
        <time>2014-03-17T10:06:10Z</time>
      </trkpt>
      <trkpt lat="42.74694" lon="0.36152">
        <ele>2415.93</ele>
        <time>2014-03-17T10:06:22Z</time>
      </trkpt>
      <trkpt lat="42.74689" lon="0.3615">
        <ele>2416.89</ele>
        <time>2014-03-17T10:06:33Z</time>
      </trkpt>
      <trkpt lat="42.74686" lon="0.3615">
        <ele>2417.85</ele>
        <time>2014-03-17T10:06:40Z</time>
      </trkpt>
      <trkpt lat="42.74673" lon="0.36147">
        <ele>2419.78</ele>
        <time>2014-03-17T10:06:55Z</time>
      </trkpt>
      <trkpt lat="42.74672" lon="0.36147">
        <ele>2419.78</ele>
        <time>2014-03-17T10:06:56Z</time>
      </trkpt>
      <trkpt lat="42.74664" lon="0.36143">
        <ele>2421.7</ele>
        <time>2014-03-17T10:07:10Z</time>
      </trkpt>
      <trkpt lat="42.74658" lon="0.3614">
        <ele>2423.14</ele>
        <time>2014-03-17T10:07:23Z</time>
      </trkpt>
      <trkpt lat="42.7465" lon="0.36134">
        <ele>2424.58</ele>
        <time>2014-03-17T10:07:37Z</time>
      </trkpt>
      <trkpt lat="42.74644" lon="0.3613">
        <ele>2426.02</ele>
        <time>2014-03-17T10:07:49Z</time>
      </trkpt>
      <trkpt lat="42.74636" lon="0.36126">
        <ele>2427.47</ele>
        <time>2014-03-17T10:08:01Z</time>
      </trkpt>
      <trkpt lat="42.74636" lon="0.36127">
        <ele>2427.47</ele>
        <time>2014-03-17T10:08:13Z</time>
      </trkpt>
      <trkpt lat="42.74636" lon="0.36127">
        <ele>2427.47</ele>
        <time>2014-03-17T10:08:15Z</time>
      </trkpt>
      <trkpt lat="42.74638" lon="0.36131">
        <ele>2428.43</ele>
        <time>2014-03-17T10:08:24Z</time>
      </trkpt>
      <trkpt lat="42.74641" lon="0.36136">
        <ele>2429.39</ele>
        <time>2014-03-17T10:08:38Z</time>
      </trkpt>
      <trkpt lat="42.74646" lon="0.36146">
        <ele>2430.83</ele>
        <time>2014-03-17T10:08:52Z</time>
      </trkpt>
      <trkpt lat="42.74649" lon="0.36155">
        <ele>2432.75</ele>
        <time>2014-03-17T10:09:08Z</time>
      </trkpt>
      <trkpt lat="42.74653" lon="0.36163">
        <ele>2433.71</ele>
        <time>2014-03-17T10:09:19Z</time>
      </trkpt>
      <trkpt lat="42.74655" lon="0.36166">
        <ele>2434.2</ele>
        <time>2014-03-17T10:09:31Z</time>
      </trkpt>
      <trkpt lat="42.74658" lon="0.36169">
        <ele>2434.68</ele>
        <time>2014-03-17T10:09:42Z</time>
      </trkpt>
      <trkpt lat="42.74658" lon="0.3617">
        <ele>2434.68</ele>
        <time>2014-03-17T10:09:59Z</time>
      </trkpt>
      <trkpt lat="42.74661" lon="0.36174">
        <ele>2436.12</ele>
        <time>2014-03-17T10:10:15Z</time>
      </trkpt>
      <trkpt lat="42.74669" lon="0.36186">
        <ele>2438.52</ele>
        <time>2014-03-17T10:10:31Z</time>
      </trkpt>
      <trkpt lat="42.74675" lon="0.36192">
        <ele>2439.48</ele>
        <time>2014-03-17T10:10:44Z</time>
      </trkpt>
      <trkpt lat="42.74678" lon="0.36195">
        <ele>2440.44</ele>
        <time>2014-03-17T10:10:49Z</time>
      </trkpt>
      <trkpt lat="42.7468" lon="0.36197">
        <ele>2440.92</ele>
        <time>2014-03-17T10:11:00Z</time>
      </trkpt>
      <trkpt lat="42.74679" lon="0.36195">
        <ele>2440.92</ele>
        <time>2014-03-17T10:11:13Z</time>
      </trkpt>
      <trkpt lat="42.74686" lon="0.362">
        <ele>2442.37</ele>
        <time>2014-03-17T10:11:26Z</time>
      </trkpt>
      <trkpt lat="42.74689" lon="0.36201">
        <ele>2442.37</ele>
        <time>2014-03-17T10:11:29Z</time>
      </trkpt>
      <trkpt lat="42.74697" lon="0.36206">
        <ele>2444.29</ele>
        <time>2014-03-17T10:11:42Z</time>
      </trkpt>
      <trkpt lat="42.74703" lon="0.36213">
        <ele>2446.21</ele>
        <time>2014-03-17T10:11:54Z</time>
      </trkpt>
      <trkpt lat="42.74708" lon="0.3622">
        <ele>2448.13</ele>
        <time>2014-03-17T10:12:06Z</time>
      </trkpt>
      <trkpt lat="42.74712" lon="0.36226">
        <ele>2449.58</ele>
        <time>2014-03-17T10:12:19Z</time>
      </trkpt>
      <trkpt lat="42.74717" lon="0.36232">
        <ele>2450.54</ele>
        <time>2014-03-17T10:12:34Z</time>
      </trkpt>
      <trkpt lat="42.74723" lon="0.36242">
        <ele>2452.46</ele>
        <time>2014-03-17T10:12:46Z</time>
      </trkpt>
      <trkpt lat="42.74728" lon="0.36251">
        <ele>2454.38</ele>
        <time>2014-03-17T10:12:59Z</time>
      </trkpt>
      <trkpt lat="42.74732" lon="0.36255">
        <ele>2455.34</ele>
        <time>2014-03-17T10:13:13Z</time>
      </trkpt>
      <trkpt lat="42.74736" lon="0.36259">
        <ele>2456.79</ele>
        <time>2014-03-17T10:13:28Z</time>
      </trkpt>
      <trkpt lat="42.74743" lon="0.36265">
        <ele>2458.23</ele>
        <time>2014-03-17T10:13:42Z</time>
      </trkpt>
      <trkpt lat="42.74745" lon="0.36266">
        <ele>2458.71</ele>
        <time>2014-03-17T10:13:46Z</time>
      </trkpt>
      <trkpt lat="42.74753" lon="0.36269">
        <ele>2460.63</ele>
        <time>2014-03-17T10:13:59Z</time>
      </trkpt>
      <trkpt lat="42.74762" lon="0.3627">
        <ele>2462.07</ele>
        <time>2014-03-17T10:14:10Z</time>
      </trkpt>
      <trkpt lat="42.74764" lon="0.3627">
        <ele>2462.07</ele>
        <time>2014-03-17T10:14:12Z</time>
      </trkpt>
      <trkpt lat="42.74772" lon="0.36267">
        <ele>2463.52</ele>
        <time>2014-03-17T10:14:26Z</time>
      </trkpt>
      <trkpt lat="42.7478" lon="0.36265">
        <ele>2465.44</ele>
        <time>2014-03-17T10:14:39Z</time>
      </trkpt>
      <trkpt lat="42.74789" lon="0.36271">
        <ele>2467.36</ele>
        <time>2014-03-17T10:14:53Z</time>
      </trkpt>
      <trkpt lat="42.74791" lon="0.36273">
        <ele>2467.84</ele>
        <time>2014-03-17T10:14:58Z</time>
      </trkpt>
      <trkpt lat="42.74799" lon="0.36282">
        <ele>2469.76</ele>
        <time>2014-03-17T10:15:13Z</time>
      </trkpt>
      <trkpt lat="42.74805" lon="0.36291">
        <ele>2470.73</ele>
        <time>2014-03-17T10:15:26Z</time>
      </trkpt>
      <trkpt lat="42.74809" lon="0.36297">
        <ele>2471.69</ele>
        <time>2014-03-17T10:15:38Z</time>
      </trkpt>
      <trkpt lat="42.74816" lon="0.36309">
        <ele>2473.61</ele>
        <time>2014-03-17T10:15:53Z</time>
      </trkpt>
      <trkpt lat="42.74822" lon="0.36317">
        <ele>2474.09</ele>
        <time>2014-03-17T10:16:05Z</time>
      </trkpt>
      <trkpt lat="42.74825" lon="0.36324">
        <ele>2475.05</ele>
        <time>2014-03-17T10:16:12Z</time>
      </trkpt>
      <trkpt lat="42.74828" lon="0.3633">
        <ele>2475.53</ele>
        <time>2014-03-17T10:16:22Z</time>
      </trkpt>
      <trkpt lat="42.7483" lon="0.36334">
        <ele>2476.01</ele>
        <time>2014-03-17T10:16:40Z</time>
      </trkpt>
      <trkpt lat="42.74834" lon="0.36343">
        <ele>2477.45</ele>
        <time>2014-03-17T10:16:50Z</time>
      </trkpt>
      <trkpt lat="42.74839" lon="0.36354">
        <ele>2479.38</ele>
        <time>2014-03-17T10:17:04Z</time>
      </trkpt>
      <trkpt lat="42.74841" lon="0.36358">
        <ele>2480.34</ele>
        <time>2014-03-17T10:17:17Z</time>
      </trkpt>
      <trkpt lat="42.74836" lon="0.36357">
        <ele>2481.78</ele>
        <time>2014-03-17T10:17:28Z</time>
      </trkpt>
      <trkpt lat="42.74833" lon="0.36356">
        <ele>2482.74</ele>
        <time>2014-03-17T10:17:41Z</time>
      </trkpt>
      <trkpt lat="42.74828" lon="0.36355">
        <ele>2483.7</ele>
        <time>2014-03-17T10:17:48Z</time>
      </trkpt>
      <trkpt lat="42.7482" lon="0.36352">
        <ele>2485.15</ele>
        <time>2014-03-17T10:18:01Z</time>
      </trkpt>
      <trkpt lat="42.74811" lon="0.3635">
        <ele>2487.55</ele>
        <time>2014-03-17T10:18:15Z</time>
      </trkpt>
      <trkpt lat="42.74806" lon="0.36349">
        <ele>2488.51</ele>
        <time>2014-03-17T10:18:30Z</time>
      </trkpt>
      <trkpt lat="42.74798" lon="0.3635">
        <ele>2491.39</ele>
        <time>2014-03-17T10:18:44Z</time>
      </trkpt>
      <trkpt lat="42.74796" lon="0.36358">
        <ele>2493.32</ele>
        <time>2014-03-17T10:18:58Z</time>
      </trkpt>
      <trkpt lat="42.74796" lon="0.36359">
        <ele>2493.32</ele>
        <time>2014-03-17T10:18:59Z</time>
      </trkpt>
      <trkpt lat="42.74799" lon="0.36362">
        <ele>2494.28</ele>
        <time>2014-03-17T10:19:12Z</time>
      </trkpt>
      <trkpt lat="42.74802" lon="0.36368">
        <ele>2495.72</ele>
        <time>2014-03-17T10:19:28Z</time>
      </trkpt>
      <trkpt lat="42.74802" lon="0.36369">
        <ele>2496.2</ele>
        <time>2014-03-17T10:19:29Z</time>
      </trkpt>
      <trkpt lat="42.74808" lon="0.3638">
        <ele>2498.12</ele>
        <time>2014-03-17T10:19:44Z</time>
      </trkpt>
      <trkpt lat="42.74813" lon="0.36387">
        <ele>2499.57</ele>
        <time>2014-03-17T10:19:56Z</time>
      </trkpt>
      <trkpt lat="42.74816" lon="0.36393">
        <ele>2500.53</ele>
        <time>2014-03-17T10:20:09Z</time>
      </trkpt>
      <trkpt lat="42.74822" lon="0.364">
        <ele>2501.97</ele>
        <time>2014-03-17T10:20:28Z</time>
      </trkpt>
      <trkpt lat="42.74828" lon="0.3641">
        <ele>2503.89</ele>
        <time>2014-03-17T10:20:41Z</time>
      </trkpt>
      <trkpt lat="42.74832" lon="0.36421">
        <ele>2505.81</ele>
        <time>2014-03-17T10:20:54Z</time>
      </trkpt>
      <trkpt lat="42.74834" lon="0.36427">
        <ele>2506.29</ele>
        <time>2014-03-17T10:21:05Z</time>
      </trkpt>
      <trkpt lat="42.74833" lon="0.36428">
        <ele>2506.77</ele>
        <time>2014-03-17T10:21:19Z</time>
      </trkpt>
      <trkpt lat="42.74837" lon="0.36442">
        <ele>2507.74</ele>
        <time>2014-03-17T10:21:32Z</time>
      </trkpt>
      <trkpt lat="42.7484" lon="0.36456">
        <ele>2508.7</ele>
        <time>2014-03-17T10:21:45Z</time>
      </trkpt>
      <trkpt lat="42.74845" lon="0.36469">
        <ele>2509.66</ele>
        <time>2014-03-17T10:21:58Z</time>
      </trkpt>
      <trkpt lat="42.74849" lon="0.36482">
        <ele>2510.62</ele>
        <time>2014-03-17T10:22:11Z</time>
      </trkpt>
      <trkpt lat="42.74853" lon="0.36499">
        <ele>2511.58</ele>
        <time>2014-03-17T10:22:26Z</time>
      </trkpt>
      <trkpt lat="42.74858" lon="0.36512">
        <ele>2512.06</ele>
        <time>2014-03-17T10:22:40Z</time>
      </trkpt>
      <trkpt lat="42.74863" lon="0.36526">
        <ele>2513.02</ele>
        <time>2014-03-17T10:22:54Z</time>
      </trkpt>
      <trkpt lat="42.74869" lon="0.36541">
        <ele>2513.98</ele>
        <time>2014-03-17T10:23:09Z</time>
      </trkpt>
      <trkpt lat="42.74875" lon="0.36553">
        <ele>2514.95</ele>
        <time>2014-03-17T10:23:23Z</time>
      </trkpt>
      <trkpt lat="42.7488" lon="0.36559">
        <ele>2515.91</ele>
        <time>2014-03-17T10:23:36Z</time>
      </trkpt>
      <trkpt lat="42.74882" lon="0.3656">
        <ele>2516.39</ele>
        <time>2014-03-17T10:23:40Z</time>
      </trkpt>
      <trkpt lat="42.74892" lon="0.36565">
        <ele>2518.79</ele>
        <time>2014-03-17T10:23:54Z</time>
      </trkpt>
      <trkpt lat="42.74901" lon="0.36573">
        <ele>2520.23</ele>
        <time>2014-03-17T10:24:08Z</time>
      </trkpt>
      <trkpt lat="42.74908" lon="0.36582">
        <ele>2521.68</ele>
        <time>2014-03-17T10:24:21Z</time>
      </trkpt>
      <trkpt lat="42.74915" lon="0.36589">
        <ele>2523.12</ele>
        <time>2014-03-17T10:24:35Z</time>
      </trkpt>
      <trkpt lat="42.74918" lon="0.36593">
        <ele>2523.6</ele>
        <time>2014-03-17T10:24:59Z</time>
      </trkpt>
      <trkpt lat="42.74926" lon="0.36602">
        <ele>2525.04</ele>
        <time>2014-03-17T10:25:12Z</time>
      </trkpt>
      <trkpt lat="42.74933" lon="0.36611">
        <ele>2526.48</ele>
        <time>2014-03-17T10:25:25Z</time>
      </trkpt>
      <trkpt lat="42.74942" lon="0.36621">
        <ele>2527.44</ele>
        <time>2014-03-17T10:25:39Z</time>
      </trkpt>
      <trkpt lat="42.74951" lon="0.36629">
        <ele>2528.4</ele>
        <time>2014-03-17T10:25:53Z</time>
      </trkpt>
      <trkpt lat="42.7496" lon="0.36636">
        <ele>2529.37</ele>
        <time>2014-03-17T10:26:07Z</time>
      </trkpt>
      <trkpt lat="42.74966" lon="0.3664">
        <ele>2530.33</ele>
        <time>2014-03-17T10:26:17Z</time>
      </trkpt>
      <trkpt lat="42.74976" lon="0.36646">
        <ele>2531.29</ele>
        <time>2014-03-17T10:26:31Z</time>
      </trkpt>
      <trkpt lat="42.74981" lon="0.36649">
        <ele>2532.73</ele>
        <time>2014-03-17T10:26:42Z</time>
      </trkpt>
      <trkpt lat="42.74984" lon="0.36655">
        <ele>2533.21</ele>
        <time>2014-03-17T10:26:56Z</time>
      </trkpt>
      <trkpt lat="42.74987" lon="0.36661">
        <ele>2535.13</ele>
        <time>2014-03-17T10:27:08Z</time>
      </trkpt>
      <trkpt lat="42.74989" lon="0.36669">
        <ele>2536.1</ele>
        <time>2014-03-17T10:27:19Z</time>
      </trkpt>
      <trkpt lat="42.7499" lon="0.36671">
        <ele>2536.58</ele>
        <time>2014-03-17T10:27:25Z</time>
      </trkpt>
      <trkpt lat="42.74993" lon="0.36683">
        <ele>2538.02</ele>
        <time>2014-03-17T10:27:39Z</time>
      </trkpt>
      <trkpt lat="42.74994" lon="0.36688">
        <ele>2538.98</ele>
        <time>2014-03-17T10:27:50Z</time>
      </trkpt>
      <trkpt lat="42.74995" lon="0.36696">
        <ele>2539.94</ele>
        <time>2014-03-17T10:27:57Z</time>
      </trkpt>
      <trkpt lat="42.74996" lon="0.36709">
        <ele>2541.38</ele>
        <time>2014-03-17T10:28:12Z</time>
      </trkpt>
      <trkpt lat="42.74995" lon="0.36715">
        <ele>2542.34</ele>
        <time>2014-03-17T10:28:28Z</time>
      </trkpt>
      <trkpt lat="42.74995" lon="0.36724">
        <ele>2543.79</ele>
        <time>2014-03-17T10:28:41Z</time>
      </trkpt>
      <trkpt lat="42.74995" lon="0.36724">
        <ele>2541.86</ele>
        <time>2014-03-17T10:28:56Z</time>
      </trkpt>
      <trkpt lat="42.74994" lon="0.36725">
        <ele>2542.34</ele>
        <time>2014-03-17T10:29:16Z</time>
      </trkpt>
      <trkpt lat="42.74994" lon="0.36726">
        <ele>2542.34</ele>
        <time>2014-03-17T10:29:50Z</time>
      </trkpt>
      <trkpt lat="42.74994" lon="0.36723">
        <ele>2542.34</ele>
        <time>2014-03-17T10:30:26Z</time>
      </trkpt>
      <trkpt lat="42.74993" lon="0.36721">
        <ele>2542.34</ele>
        <time>2014-03-17T10:31:08Z</time>
      </trkpt>
      <trkpt lat="42.74993" lon="0.3672">
        <ele>2542.82</ele>
        <time>2014-03-17T10:31:46Z</time>
      </trkpt>
      <trkpt lat="42.74994" lon="0.36722">
        <ele>2542.82</ele>
        <time>2014-03-17T10:32:36Z</time>
      </trkpt>
      <trkpt lat="42.74995" lon="0.36718">
        <ele>2542.82</ele>
        <time>2014-03-17T10:33:05Z</time>
      </trkpt>
      <trkpt lat="42.74995" lon="0.36723">
        <ele>2542.82</ele>
        <time>2014-03-17T10:33:47Z</time>
      </trkpt>
      <trkpt lat="42.74994" lon="0.36725">
        <ele>2542.82</ele>
        <time>2014-03-17T10:34:02Z</time>
      </trkpt>
      <trkpt lat="42.74995" lon="0.36722">
        <ele>2544.27</ele>
        <time>2014-03-17T10:34:19Z</time>
      </trkpt>
      <trkpt lat="42.74994" lon="0.36723">
        <ele>2544.27</ele>
        <time>2014-03-17T10:34:38Z</time>
      </trkpt>
      <trkpt lat="42.74994" lon="0.36725">
        <ele>2544.27</ele>
        <time>2014-03-17T10:34:54Z</time>
      </trkpt>
      <trkpt lat="42.74993" lon="0.36738">
        <ele>2546.19</ele>
        <time>2014-03-17T10:35:08Z</time>
      </trkpt>
      <trkpt lat="42.74992" lon="0.36746">
        <ele>2547.15</ele>
        <time>2014-03-17T10:35:21Z</time>
      </trkpt>
      <trkpt lat="42.74991" lon="0.36759">
        <ele>2548.59</ele>
        <time>2014-03-17T10:35:33Z</time>
      </trkpt>
      <trkpt lat="42.7499" lon="0.36777">
        <ele>2549.55</ele>
        <time>2014-03-17T10:35:49Z</time>
      </trkpt>
      <trkpt lat="42.7499" lon="0.36794">
        <ele>2550.03</ele>
        <time>2014-03-17T10:36:04Z</time>
      </trkpt>
      <trkpt lat="42.74991" lon="0.36813">
        <ele>2550.03</ele>
        <time>2014-03-17T10:36:19Z</time>
      </trkpt>
      <trkpt lat="42.74992" lon="0.36816">
        <ele>2550.03</ele>
        <time>2014-03-17T10:36:22Z</time>
      </trkpt>
      <trkpt lat="42.74999" lon="0.36828">
        <ele>2551.48</ele>
        <time>2014-03-17T10:36:36Z</time>
      </trkpt>
      <trkpt lat="42.75008" lon="0.36836">
        <ele>2552.92</ele>
        <time>2014-03-17T10:36:51Z</time>
      </trkpt>
      <trkpt lat="42.75012" lon="0.36838">
        <ele>2553.88</ele>
        <time>2014-03-17T10:36:58Z</time>
      </trkpt>
      <trkpt lat="42.75019" lon="0.36841">
        <ele>2556.28</ele>
        <time>2014-03-17T10:37:10Z</time>
      </trkpt>
      <trkpt lat="42.75025" lon="0.36844">
        <ele>2557.73</ele>
        <time>2014-03-17T10:37:19Z</time>
      </trkpt>
      <trkpt lat="42.75028" lon="0.36847">
        <ele>2558.21</ele>
        <time>2014-03-17T10:37:32Z</time>
      </trkpt>
      <trkpt lat="42.75036" lon="0.36856">
        <ele>2559.17</ele>
        <time>2014-03-17T10:37:46Z</time>
      </trkpt>
      <trkpt lat="42.75047" lon="0.36859">
        <ele>2559.65</ele>
        <time>2014-03-17T10:37:58Z</time>
      </trkpt>
      <trkpt lat="42.75059" lon="0.36861">
        <ele>2560.61</ele>
        <time>2014-03-17T10:38:12Z</time>
      </trkpt>
      <trkpt lat="42.7507" lon="0.36857">
        <ele>2561.57</ele>
        <time>2014-03-17T10:38:26Z</time>
      </trkpt>
      <trkpt lat="42.7508" lon="0.36852">
        <ele>2563.01</ele>
        <time>2014-03-17T10:38:38Z</time>
      </trkpt>
      <trkpt lat="42.75089" lon="0.36855">
        <ele>2563.97</ele>
        <time>2014-03-17T10:38:50Z</time>
      </trkpt>
      <trkpt lat="42.75092" lon="0.36859">
        <ele>2564.93</ele>
        <time>2014-03-17T10:39:03Z</time>
      </trkpt>
      <trkpt lat="42.75089" lon="0.36864">
        <ele>2565.42</ele>
        <time>2014-03-17T10:39:12Z</time>
      </trkpt>
      <trkpt lat="42.75086" lon="0.36863">
        <ele>2565.9</ele>
        <time>2014-03-17T10:39:30Z</time>
      </trkpt>
      <trkpt lat="42.75079" lon="0.36872">
        <ele>2567.82</ele>
        <time>2014-03-17T10:39:43Z</time>
      </trkpt>
      <trkpt lat="42.75068" lon="0.36881">
        <ele>2569.74</ele>
        <time>2014-03-17T10:39:58Z</time>
      </trkpt>
      <trkpt lat="42.75058" lon="0.36887">
        <ele>2571.66</ele>
        <time>2014-03-17T10:40:12Z</time>
      </trkpt>
      <trkpt lat="42.75048" lon="0.36891">
        <ele>2573.11</ele>
        <time>2014-03-17T10:40:27Z</time>
      </trkpt>
      <trkpt lat="42.75044" lon="0.36893">
        <ele>2573.59</ele>
        <time>2014-03-17T10:40:40Z</time>
      </trkpt>
      <trkpt lat="42.75037" lon="0.36894">
        <ele>2575.03</ele>
        <time>2014-03-17T10:41:00Z</time>
      </trkpt>
      <trkpt lat="42.75026" lon="0.36899">
        <ele>2576.95</ele>
        <time>2014-03-17T10:41:15Z</time>
      </trkpt>
      <trkpt lat="42.75021" lon="0.36903">
        <ele>2578.39</ele>
        <time>2014-03-17T10:41:29Z</time>
      </trkpt>
      <trkpt lat="42.7502" lon="0.36905">
        <ele>2578.87</ele>
        <time>2014-03-17T10:41:46Z</time>
      </trkpt>
      <trkpt lat="42.75019" lon="0.36907">
        <ele>2579.35</ele>
        <time>2014-03-17T10:42:01Z</time>
      </trkpt>
      <trkpt lat="42.75017" lon="0.36913">
        <ele>2581.28</ele>
        <time>2014-03-17T10:42:12Z</time>
      </trkpt>
      <trkpt lat="42.75014" lon="0.36921">
        <ele>2583.68</ele>
        <time>2014-03-17T10:42:31Z</time>
      </trkpt>
      <trkpt lat="42.75012" lon="0.36928">
        <ele>2585.6</ele>
        <time>2014-03-17T10:42:46Z</time>
      </trkpt>
      <trkpt lat="42.7501" lon="0.36932">
        <ele>2586.56</ele>
        <time>2014-03-17T10:42:59Z</time>
      </trkpt>
      <trkpt lat="42.7501" lon="0.36937">
        <ele>2587.53</ele>
        <time>2014-03-17T10:43:12Z</time>
      </trkpt>
      <trkpt lat="42.75008" lon="0.36946">
        <ele>2589.45</ele>
        <time>2014-03-17T10:43:33Z</time>
      </trkpt>
      <trkpt lat="42.75006" lon="0.36955">
        <ele>2590.89</ele>
        <time>2014-03-17T10:43:44Z</time>
      </trkpt>
      <trkpt lat="42.75006" lon="0.36958">
        <ele>2591.85</ele>
        <time>2014-03-17T10:44:01Z</time>
      </trkpt>
      <trkpt lat="42.75005" lon="0.3696">
        <ele>2592.33</ele>
        <time>2014-03-17T10:44:16Z</time>
      </trkpt>
      <trkpt lat="42.75004" lon="0.36962">
        <ele>2592.81</ele>
        <time>2014-03-17T10:44:27Z</time>
      </trkpt>
      <trkpt lat="42.75003" lon="0.36967">
        <ele>2593.77</ele>
        <time>2014-03-17T10:44:33Z</time>
      </trkpt>
      <trkpt lat="42.75" lon="0.36975">
        <ele>2595.22</ele>
        <time>2014-03-17T10:44:46Z</time>
      </trkpt>
      <trkpt lat="42.75" lon="0.36976">
        <ele>2595.22</ele>
        <time>2014-03-17T10:44:47Z</time>
      </trkpt>
      <trkpt lat="42.74996" lon="0.36983">
        <ele>2597.14</ele>
        <time>2014-03-17T10:45:00Z</time>
      </trkpt>
      <trkpt lat="42.74994" lon="0.36983">
        <ele>2598.1</ele>
        <time>2014-03-17T10:45:14Z</time>
      </trkpt>
      <trkpt lat="42.74986" lon="0.36991">
        <ele>2600.5</ele>
        <time>2014-03-17T10:45:26Z</time>
      </trkpt>
      <trkpt lat="42.74981" lon="0.36993">
        <ele>2601.95</ele>
        <time>2014-03-17T10:45:38Z</time>
      </trkpt>
      <trkpt lat="42.74975" lon="0.36995">
        <ele>2603.39</ele>
        <time>2014-03-17T10:45:52Z</time>
      </trkpt>
      <trkpt lat="42.74968" lon="0.36996">
        <ele>2605.79</ele>
        <time>2014-03-17T10:46:07Z</time>
      </trkpt>
      <trkpt lat="42.74964" lon="0.36998">
        <ele>2607.23</ele>
        <time>2014-03-17T10:46:22Z</time>
      </trkpt>
      <trkpt lat="42.74957" lon="0.37">
        <ele>2608.67</ele>
        <time>2014-03-17T10:46:37Z</time>
      </trkpt>
      <trkpt lat="42.74959" lon="0.37005">
        <ele>2610.6</ele>
        <time>2014-03-17T10:46:54Z</time>
      </trkpt>
      <trkpt lat="42.74965" lon="0.37011">
        <ele>2612.52</ele>
        <time>2014-03-17T10:47:05Z</time>
      </trkpt>
      <trkpt lat="42.74969" lon="0.37015">
        <ele>2613</ele>
        <time>2014-03-17T10:47:12Z</time>
      </trkpt>
      <trkpt lat="42.74972" lon="0.37019">
        <ele>2614.44</ele>
        <time>2014-03-17T10:47:26Z</time>
      </trkpt>
      <trkpt lat="42.74977" lon="0.37026">
        <ele>2616.37</ele>
        <time>2014-03-17T10:47:36Z</time>
      </trkpt>
      <trkpt lat="42.74977" lon="0.37031">
        <ele>2617.81</ele>
        <time>2014-03-17T10:47:46Z</time>
      </trkpt>
      <trkpt lat="42.74978" lon="0.37032">
        <ele>2617.81</ele>
        <time>2014-03-17T10:48:01Z</time>
      </trkpt>
      <trkpt lat="42.74978" lon="0.37033">
        <ele>2618.29</ele>
        <time>2014-03-17T10:48:20Z</time>
      </trkpt>
      <trkpt lat="42.74977" lon="0.37031">
        <ele>2618.29</ele>
        <time>2014-03-17T10:48:40Z</time>
      </trkpt>
      <trkpt lat="42.74978" lon="0.37033">
        <ele>2618.29</ele>
        <time>2014-03-17T10:48:55Z</time>
      </trkpt>
      <trkpt lat="42.74978" lon="0.37033">
        <ele>2617.81</ele>
        <time>2014-03-17T10:48:59Z</time>
      </trkpt>
      <trkpt lat="42.74979" lon="0.37031">
        <ele>2617.81</ele>
        <time>2014-03-17T10:49:01Z</time>
      </trkpt>
      <trkpt lat="42.74981" lon="0.37029">
        <ele>2617.33</ele>
        <time>2014-03-17T10:49:04Z</time>
      </trkpt>
      <trkpt lat="42.74989" lon="0.37019">
        <ele>2616.85</ele>
        <time>2014-03-17T10:49:19Z</time>
      </trkpt>
      <trkpt lat="42.74991" lon="0.37014">
        <ele>2616.37</ele>
        <time>2014-03-17T10:49:32Z</time>
      </trkpt>
      <trkpt lat="42.74994" lon="0.37014">
        <ele>2616.37</ele>
        <time>2014-03-17T10:49:47Z</time>
      </trkpt>
      <trkpt lat="42.75" lon="0.37008">
        <ele>2615.4</ele>
        <time>2014-03-17T10:50:00Z</time>
      </trkpt>
      <trkpt lat="42.75001" lon="0.37007">
        <ele>2614.92</ele>
        <time>2014-03-17T10:50:07Z</time>
      </trkpt>
      <trkpt lat="42.75005" lon="0.37004">
        <ele>2613.96</ele>
        <time>2014-03-17T10:50:23Z</time>
      </trkpt>
      <trkpt lat="42.75009" lon="0.36998">
        <ele>2613</ele>
        <time>2014-03-17T10:50:34Z</time>
      </trkpt>
      <trkpt lat="42.75009" lon="0.36998">
        <ele>2612.52</ele>
        <time>2014-03-17T10:50:48Z</time>
      </trkpt>
      <trkpt lat="42.75009" lon="0.36999">
        <ele>2613</ele>
        <time>2014-03-17T10:51:03Z</time>
      </trkpt>
      <trkpt lat="42.75011" lon="0.36997">
        <ele>2611.56</ele>
        <time>2014-03-17T10:51:17Z</time>
      </trkpt>
      <trkpt lat="42.7501" lon="0.36997">
        <ele>2611.56</ele>
        <time>2014-03-17T10:51:38Z</time>
      </trkpt>
      <trkpt lat="42.7501" lon="0.36996">
        <ele>2611.56</ele>
        <time>2014-03-17T10:52:05Z</time>
      </trkpt>
      <trkpt lat="42.7501" lon="0.36997">
        <ele>2611.56</ele>
        <time>2014-03-17T10:52:40Z</time>
      </trkpt>
      <trkpt lat="42.75009" lon="0.36997">
        <ele>2611.56</ele>
        <time>2014-03-17T10:53:12Z</time>
      </trkpt>
      <trkpt lat="42.7501" lon="0.36997">
        <ele>2611.56</ele>
        <time>2014-03-17T10:53:40Z</time>
      </trkpt>
      <trkpt lat="42.7501" lon="0.36997">
        <ele>2612.04</ele>
        <time>2014-03-17T10:54:15Z</time>
      </trkpt>
      <trkpt lat="42.7501" lon="0.36997">
        <ele>2612.52</ele>
        <time>2014-03-17T10:54:26Z</time>
      </trkpt>
      <trkpt lat="42.75011" lon="0.36998">
        <ele>2613</ele>
        <time>2014-03-17T10:54:48Z</time>
      </trkpt>
      <trkpt lat="42.7501" lon="0.36999">
        <ele>2612.52</ele>
        <time>2014-03-17T10:55:06Z</time>
      </trkpt>
      <trkpt lat="42.75012" lon="0.36999">
        <ele>2613</ele>
        <time>2014-03-17T10:55:16Z</time>
      </trkpt>
      <trkpt lat="42.7501" lon="0.36999">
        <ele>2613</ele>
        <time>2014-03-17T10:55:33Z</time>
      </trkpt>
      <trkpt lat="42.75008" lon="0.36997">
        <ele>2613.48</ele>
        <time>2014-03-17T10:55:46Z</time>
      </trkpt>
      <trkpt lat="42.7501" lon="0.36999">
        <ele>2613</ele>
        <time>2014-03-17T10:55:53Z</time>
      </trkpt>
      <trkpt lat="42.75011" lon="0.36997">
        <ele>2613</ele>
        <time>2014-03-17T10:55:55Z</time>
      </trkpt>
      <trkpt lat="42.75015" lon="0.36993">
        <ele>2612.04</ele>
        <time>2014-03-17T10:56:01Z</time>
      </trkpt>
      <trkpt lat="42.75014" lon="0.37003">
        <ele>2610.12</ele>
        <time>2014-03-17T10:56:11Z</time>
      </trkpt>
      <trkpt lat="42.75015" lon="0.37005">
        <ele>2609.16</ele>
        <time>2014-03-17T10:56:22Z</time>
      </trkpt>
      <trkpt lat="42.75013" lon="0.37012">
        <ele>2608.19</ele>
        <time>2014-03-17T10:56:25Z</time>
      </trkpt>
      <trkpt lat="42.75002" lon="0.3703">
        <ele>2603.39</ele>
        <time>2014-03-17T10:56:28Z</time>
      </trkpt>
      <trkpt lat="42.74991" lon="0.37045">
        <ele>2600.98</ele>
        <time>2014-03-17T10:56:31Z</time>
      </trkpt>
      <trkpt lat="42.74974" lon="0.37075">
        <ele>2597.14</ele>
        <time>2014-03-17T10:56:39Z</time>
      </trkpt>
      <trkpt lat="42.74967" lon="0.37093">
        <ele>2593.77</ele>
        <time>2014-03-17T10:56:41Z</time>
      </trkpt>
      <trkpt lat="42.74953" lon="0.37131">
        <ele>2589.93</ele>
        <time>2014-03-17T10:56:45Z</time>
      </trkpt>
      <trkpt lat="42.74942" lon="0.37166">
        <ele>2587.53</ele>
        <time>2014-03-17T10:56:50Z</time>
      </trkpt>
      <trkpt lat="42.74937" lon="0.37203">
        <ele>2586.08</ele>
        <time>2014-03-17T10:56:59Z</time>
      </trkpt>
      <trkpt lat="42.74934" lon="0.37215">
        <ele>2586.56</ele>
        <time>2014-03-17T10:57:10Z</time>
      </trkpt>
      <trkpt lat="42.74933" lon="0.37217">
        <ele>2586.56</ele>
        <time>2014-03-17T10:57:12Z</time>
      </trkpt>
      <trkpt lat="42.74931" lon="0.37222">
        <ele>2587.04</ele>
        <time>2014-03-17T10:57:17Z</time>
      </trkpt>
      <trkpt lat="42.74928" lon="0.37232">
        <ele>2586.56</ele>
        <time>2014-03-17T10:57:23Z</time>
      </trkpt>
      <trkpt lat="42.74917" lon="0.37259">
        <ele>2585.6</ele>
        <time>2014-03-17T10:57:36Z</time>
      </trkpt>
      <trkpt lat="42.74915" lon="0.37269">
        <ele>2586.56</ele>
        <time>2014-03-17T10:57:49Z</time>
      </trkpt>
      <trkpt lat="42.74914" lon="0.37277">
        <ele>2587.04</ele>
        <time>2014-03-17T10:58:01Z</time>
      </trkpt>
      <trkpt lat="42.74914" lon="0.37284">
        <ele>2587.53</ele>
        <time>2014-03-17T10:58:11Z</time>
      </trkpt>
      <trkpt lat="42.74915" lon="0.37291">
        <ele>2588.49</ele>
        <time>2014-03-17T10:58:22Z</time>
      </trkpt>
      <trkpt lat="42.74915" lon="0.37293">
        <ele>2588.49</ele>
        <time>2014-03-17T10:58:24Z</time>
      </trkpt>
      <trkpt lat="42.74914" lon="0.37298">
        <ele>2588.97</ele>
        <time>2014-03-17T10:58:34Z</time>
      </trkpt>
      <trkpt lat="42.74915" lon="0.37302">
        <ele>2589.45</ele>
        <time>2014-03-17T10:58:41Z</time>
      </trkpt>
      <trkpt lat="42.74916" lon="0.37331">
        <ele>2588.01</ele>
        <time>2014-03-17T10:58:55Z</time>
      </trkpt>
      <trkpt lat="42.74916" lon="0.37332">
        <ele>2587.53</ele>
        <time>2014-03-17T10:59:17Z</time>
      </trkpt>
      <trkpt lat="42.74917" lon="0.37331">
        <ele>2587.53</ele>
        <time>2014-03-17T10:59:40Z</time>
      </trkpt>
      <trkpt lat="42.74918" lon="0.37329">
        <ele>2587.53</ele>
        <time>2014-03-17T10:59:52Z</time>
      </trkpt>
      <trkpt lat="42.74917" lon="0.37333">
        <ele>2587.53</ele>
        <time>2014-03-17T11:00:04Z</time>
      </trkpt>
      <trkpt lat="42.74917" lon="0.37333">
        <ele>2587.53</ele>
        <time>2014-03-17T11:00:05Z</time>
      </trkpt>
      <trkpt lat="42.74921" lon="0.37337">
        <ele>2587.04</ele>
        <time>2014-03-17T11:00:14Z</time>
      </trkpt>
      <trkpt lat="42.7492" lon="0.37333">
        <ele>2586.56</ele>
        <time>2014-03-17T11:00:25Z</time>
      </trkpt>
      <trkpt lat="42.74921" lon="0.37328">
        <ele>2586.56</ele>
        <time>2014-03-17T11:00:33Z</time>
      </trkpt>
      <trkpt lat="42.74925" lon="0.37319">
        <ele>2586.08</ele>
        <time>2014-03-17T11:00:36Z</time>
      </trkpt>
      <trkpt lat="42.74928" lon="0.37311">
        <ele>2582.72</ele>
        <time>2014-03-17T11:00:38Z</time>
      </trkpt>
      <trkpt lat="42.74931" lon="0.37317">
        <ele>2581.28</ele>
        <time>2014-03-17T11:00:47Z</time>
      </trkpt>
      <trkpt lat="42.74932" lon="0.37323">
        <ele>2580.8</ele>
        <time>2014-03-17T11:00:52Z</time>
      </trkpt>
      <trkpt lat="42.74945" lon="0.37347">
        <ele>2577.43</ele>
        <time>2014-03-17T11:00:57Z</time>
      </trkpt>
      <trkpt lat="42.7495" lon="0.37352">
        <ele>2575.99</ele>
        <time>2014-03-17T11:00:59Z</time>
      </trkpt>
      <trkpt lat="42.74956" lon="0.37337">
        <ele>2571.18</ele>
        <time>2014-03-17T11:01:03Z</time>
      </trkpt>
      <trkpt lat="42.74955" lon="0.37329">
        <ele>2569.26</ele>
        <time>2014-03-17T11:01:04Z</time>
      </trkpt>
      <trkpt lat="42.74952" lon="0.37305">
        <ele>2567.34</ele>
        <time>2014-03-17T11:01:07Z</time>
      </trkpt>
      <trkpt lat="42.74964" lon="0.37278">
        <ele>2562.53</ele>
        <time>2014-03-17T11:01:12Z</time>
      </trkpt>
      <trkpt lat="42.74977" lon="0.37271">
        <ele>2558.69</ele>
        <time>2014-03-17T11:01:14Z</time>
      </trkpt>
      <trkpt lat="42.74993" lon="0.3727">
        <ele>2552.92</ele>
        <time>2014-03-17T11:01:16Z</time>
      </trkpt>
      <trkpt lat="42.75002" lon="0.37268">
        <ele>2549.55</ele>
        <time>2014-03-17T11:01:17Z</time>
      </trkpt>
      <trkpt lat="42.7502" lon="0.37267">
        <ele>2545.71</ele>
        <time>2014-03-17T11:01:19Z</time>
      </trkpt>
      <trkpt lat="42.75036" lon="0.37263">
        <ele>2542.82</ele>
        <time>2014-03-17T11:01:21Z</time>
      </trkpt>
      <trkpt lat="42.75058" lon="0.37263">
        <ele>2538.98</ele>
        <time>2014-03-17T11:01:24Z</time>
      </trkpt>
      <trkpt lat="42.75083" lon="0.37274">
        <ele>2534.17</ele>
        <time>2014-03-17T11:01:27Z</time>
      </trkpt>
      <trkpt lat="42.751" lon="0.37278">
        <ele>2530.81</ele>
        <time>2014-03-17T11:01:29Z</time>
      </trkpt>
      <trkpt lat="42.75123" lon="0.3728">
        <ele>2526.48</ele>
        <time>2014-03-17T11:01:32Z</time>
      </trkpt>
      <trkpt lat="42.75131" lon="0.37278">
        <ele>2525.04</ele>
        <time>2014-03-17T11:01:33Z</time>
      </trkpt>
      <trkpt lat="42.75159" lon="0.37276">
        <ele>2521.19</ele>
        <time>2014-03-17T11:01:36Z</time>
      </trkpt>
      <trkpt lat="42.75179" lon="0.37275">
        <ele>2518.31</ele>
        <time>2014-03-17T11:01:38Z</time>
      </trkpt>
      <trkpt lat="42.75219" lon="0.37272">
        <ele>2514.95</ele>
        <time>2014-03-17T11:01:42Z</time>
      </trkpt>
      <trkpt lat="42.75226" lon="0.37272">
        <ele>2513.98</ele>
        <time>2014-03-17T11:01:43Z</time>
      </trkpt>
      <trkpt lat="42.7526" lon="0.37277">
        <ele>2512.54</ele>
        <time>2014-03-17T11:01:52Z</time>
      </trkpt>
      <trkpt lat="42.75271" lon="0.3727">
        <ele>2512.06</ele>
        <time>2014-03-17T11:02:03Z</time>
      </trkpt>
      <trkpt lat="42.7528" lon="0.37267">
        <ele>2510.62</ele>
        <time>2014-03-17T11:02:07Z</time>
      </trkpt>
      <trkpt lat="42.75285" lon="0.37261">
        <ele>2509.66</ele>
        <time>2014-03-17T11:02:09Z</time>
      </trkpt>
      <trkpt lat="42.7529" lon="0.37252">
        <ele>2510.14</ele>
        <time>2014-03-17T11:02:18Z</time>
      </trkpt>
      <trkpt lat="42.75307" lon="0.37243">
        <ele>2506.29</ele>
        <time>2014-03-17T11:02:23Z</time>
      </trkpt>
      <trkpt lat="42.7531" lon="0.37244">
        <ele>2504.85</ele>
        <time>2014-03-17T11:02:24Z</time>
      </trkpt>
      <trkpt lat="42.75328" lon="0.37248">
        <ele>2497.16</ele>
        <time>2014-03-17T11:02:28Z</time>
      </trkpt>
      <trkpt lat="42.75338" lon="0.37245">
        <ele>2491.39</ele>
        <time>2014-03-17T11:02:30Z</time>
      </trkpt>
      <trkpt lat="42.7535" lon="0.37244">
        <ele>2487.07</ele>
        <time>2014-03-17T11:02:32Z</time>
      </trkpt>
      <trkpt lat="42.75366" lon="0.37237">
        <ele>2481.78</ele>
        <time>2014-03-17T11:02:35Z</time>
      </trkpt>
      <trkpt lat="42.75376" lon="0.3724">
        <ele>2476.97</ele>
        <time>2014-03-17T11:02:37Z</time>
      </trkpt>
      <trkpt lat="42.75384" lon="0.37249">
        <ele>2472.17</ele>
        <time>2014-03-17T11:02:39Z</time>
      </trkpt>
      <trkpt lat="42.75395" lon="0.37254">
        <ele>2467.84</ele>
        <time>2014-03-17T11:02:41Z</time>
      </trkpt>
      <trkpt lat="42.75401" lon="0.37255">
        <ele>2464.48</ele>
        <time>2014-03-17T11:02:42Z</time>
      </trkpt>
      <trkpt lat="42.75414" lon="0.37253">
        <ele>2460.63</ele>
        <time>2014-03-17T11:02:44Z</time>
      </trkpt>
      <trkpt lat="42.7542" lon="0.37244">
        <ele>2456.79</ele>
        <time>2014-03-17T11:02:46Z</time>
      </trkpt>
      <trkpt lat="42.7542" lon="0.37239">
        <ele>2456.79</ele>
        <time>2014-03-17T11:02:47Z</time>
      </trkpt>
      <trkpt lat="42.7543" lon="0.37232">
        <ele>2451.98</ele>
        <time>2014-03-17T11:02:50Z</time>
      </trkpt>
      <trkpt lat="42.75444" lon="0.37225">
        <ele>2447.65</ele>
        <time>2014-03-17T11:02:53Z</time>
      </trkpt>
      <trkpt lat="42.75444" lon="0.37212">
        <ele>2444.77</ele>
        <time>2014-03-17T11:02:55Z</time>
      </trkpt>
      <trkpt lat="42.75464" lon="0.37185">
        <ele>2440.92</ele>
        <time>2014-03-17T11:03:00Z</time>
      </trkpt>
      <trkpt lat="42.75482" lon="0.37177">
        <ele>2437.56</ele>
        <time>2014-03-17T11:03:02Z</time>
      </trkpt>
      <trkpt lat="42.75507" lon="0.37177">
        <ele>2435.64</ele>
        <time>2014-03-17T11:03:05Z</time>
      </trkpt>
      <trkpt lat="42.75541" lon="0.37185">
        <ele>2433.23</ele>
        <time>2014-03-17T11:03:13Z</time>
      </trkpt>
      <trkpt lat="42.7556" lon="0.37179">
        <ele>2430.83</ele>
        <time>2014-03-17T11:03:17Z</time>
      </trkpt>
      <trkpt lat="42.75585" lon="0.37176">
        <ele>2426.99</ele>
        <time>2014-03-17T11:03:21Z</time>
      </trkpt>
      <trkpt lat="42.75598" lon="0.37175">
        <ele>2425.06</ele>
        <time>2014-03-17T11:03:24Z</time>
      </trkpt>
      <trkpt lat="42.75619" lon="0.37177">
        <ele>2422.18</ele>
        <time>2014-03-17T11:03:29Z</time>
      </trkpt>
      <trkpt lat="42.75641" lon="0.37183">
        <ele>2418.33</ele>
        <time>2014-03-17T11:03:33Z</time>
      </trkpt>
      <trkpt lat="42.75663" lon="0.37191">
        <ele>2414.97</ele>
        <time>2014-03-17T11:03:37Z</time>
      </trkpt>
      <trkpt lat="42.75686" lon="0.372">
        <ele>2411.12</ele>
        <time>2014-03-17T11:03:41Z</time>
      </trkpt>
      <trkpt lat="42.75692" lon="0.37203">
        <ele>2410.16</ele>
        <time>2014-03-17T11:03:42Z</time>
      </trkpt>
      <trkpt lat="42.75696" lon="0.37219">
        <ele>2402.95</ele>
        <time>2014-03-17T11:03:45Z</time>
      </trkpt>
      <trkpt lat="42.75698" lon="0.37226">
        <ele>2399.59</ele>
        <time>2014-03-17T11:03:46Z</time>
      </trkpt>
      <trkpt lat="42.75701" lon="0.3724">
        <ele>2394.78</ele>
        <time>2014-03-17T11:03:48Z</time>
      </trkpt>
      <trkpt lat="42.75697" lon="0.37256">
        <ele>2389.01</ele>
        <time>2014-03-17T11:03:50Z</time>
      </trkpt>
      <trkpt lat="42.75702" lon="0.37263">
        <ele>2385.65</ele>
        <time>2014-03-17T11:03:51Z</time>
      </trkpt>
      <trkpt lat="42.75712" lon="0.37276">
        <ele>2380.84</ele>
        <time>2014-03-17T11:03:53Z</time>
      </trkpt>
      <trkpt lat="42.75708" lon="0.37294">
        <ele>2375.55</ele>
        <time>2014-03-17T11:03:55Z</time>
      </trkpt>
      <trkpt lat="42.75712" lon="0.37303">
        <ele>2372.19</ele>
        <time>2014-03-17T11:03:56Z</time>
      </trkpt>
      <trkpt lat="42.75723" lon="0.37316">
        <ele>2366.9</ele>
        <time>2014-03-17T11:03:58Z</time>
      </trkpt>
      <trkpt lat="42.75718" lon="0.37333">
        <ele>2362.1</ele>
        <time>2014-03-17T11:04:00Z</time>
      </trkpt>
      <trkpt lat="42.75719" lon="0.37342">
        <ele>2358.73</ele>
        <time>2014-03-17T11:04:01Z</time>
      </trkpt>
      <trkpt lat="42.75724" lon="0.37349">
        <ele>2355.85</ele>
        <time>2014-03-17T11:04:02Z</time>
      </trkpt>
      <trkpt lat="42.75731" lon="0.37355">
        <ele>2353.93</ele>
        <time>2014-03-17T11:04:03Z</time>
      </trkpt>
      <trkpt lat="42.75735" lon="0.37361">
        <ele>2350.56</ele>
        <time>2014-03-17T11:04:04Z</time>
      </trkpt>
      <trkpt lat="42.75735" lon="0.37369">
        <ele>2347.68</ele>
        <time>2014-03-17T11:04:05Z</time>
      </trkpt>
      <trkpt lat="42.75736" lon="0.37376">
        <ele>2345.27</ele>
        <time>2014-03-17T11:04:06Z</time>
      </trkpt>
      <trkpt lat="42.75741" lon="0.37381">
        <ele>2341.91</ele>
        <time>2014-03-17T11:04:07Z</time>
      </trkpt>
      <trkpt lat="42.75743" lon="0.37386">
        <ele>2339.99</ele>
        <time>2014-03-17T11:04:08Z</time>
      </trkpt>
      <trkpt lat="42.75742" lon="0.37389">
        <ele>2336.62</ele>
        <time>2014-03-17T11:04:09Z</time>
      </trkpt>
      <trkpt lat="42.7574" lon="0.37388">
        <ele>2335.18</ele>
        <time>2014-03-17T11:04:11Z</time>
      </trkpt>
      <trkpt lat="42.75739" lon="0.3739">
        <ele>2337.1</ele>
        <time>2014-03-17T11:04:14Z</time>
      </trkpt>
      <trkpt lat="42.75738" lon="0.37392">
        <ele>2336.14</ele>
        <time>2014-03-17T11:04:15Z</time>
      </trkpt>
      <trkpt lat="42.75736" lon="0.37392">
        <ele>2335.66</ele>
        <time>2014-03-17T11:04:16Z</time>
      </trkpt>
      <trkpt lat="42.75735" lon="0.37393">
        <ele>2335.18</ele>
        <time>2014-03-17T11:04:17Z</time>
      </trkpt>
      <trkpt lat="42.75741" lon="0.37405">
        <ele>2330.37</ele>
        <time>2014-03-17T11:04:20Z</time>
      </trkpt>
      <trkpt lat="42.75745" lon="0.37406">
        <ele>2329.41</ele>
        <time>2014-03-17T11:04:21Z</time>
      </trkpt>
      <trkpt lat="42.75747" lon="0.37405">
        <ele>2328.93</ele>
        <time>2014-03-17T11:04:22Z</time>
      </trkpt>
      <trkpt lat="42.75749" lon="0.37406">
        <ele>2328.93</ele>
        <time>2014-03-17T11:04:23Z</time>
      </trkpt>
      <trkpt lat="42.7575" lon="0.37407">
        <ele>2328.93</ele>
        <time>2014-03-17T11:04:24Z</time>
      </trkpt>
      <trkpt lat="42.75753" lon="0.3741">
        <ele>2327.97</ele>
        <time>2014-03-17T11:04:25Z</time>
      </trkpt>
      <trkpt lat="42.75752" lon="0.37417">
        <ele>2324.61</ele>
        <time>2014-03-17T11:04:27Z</time>
      </trkpt>
      <trkpt lat="42.75753" lon="0.37426">
        <ele>2320.28</ele>
        <time>2014-03-17T11:04:29Z</time>
      </trkpt>
      <trkpt lat="42.75746" lon="0.37433">
        <ele>2315.95</ele>
        <time>2014-03-17T11:04:31Z</time>
      </trkpt>
      <trkpt lat="42.75749" lon="0.37444">
        <ele>2307.78</ele>
        <time>2014-03-17T11:04:33Z</time>
      </trkpt>
      <trkpt lat="42.75748" lon="0.37454">
        <ele>2302.49</ele>
        <time>2014-03-17T11:04:35Z</time>
      </trkpt>
      <trkpt lat="42.75745" lon="0.37458">
        <ele>2299.13</ele>
        <time>2014-03-17T11:04:36Z</time>
      </trkpt>
      <trkpt lat="42.75754" lon="0.3747">
        <ele>2294.32</ele>
        <time>2014-03-17T11:04:39Z</time>
      </trkpt>
      <trkpt lat="42.75754" lon="0.37475">
        <ele>2290.96</ele>
        <time>2014-03-17T11:04:40Z</time>
      </trkpt>
      <trkpt lat="42.75747" lon="0.37482">
        <ele>2286.63</ele>
        <time>2014-03-17T11:04:42Z</time>
      </trkpt>
      <trkpt lat="42.75747" lon="0.37487">
        <ele>2282.79</ele>
        <time>2014-03-17T11:04:43Z</time>
      </trkpt>
      <trkpt lat="42.75752" lon="0.37496">
        <ele>2278.94</ele>
        <time>2014-03-17T11:04:45Z</time>
      </trkpt>
      <trkpt lat="42.75758" lon="0.37504">
        <ele>2274.62</ele>
        <time>2014-03-17T11:04:47Z</time>
      </trkpt>
      <trkpt lat="42.75766" lon="0.37509">
        <ele>2271.25</ele>
        <time>2014-03-17T11:04:50Z</time>
      </trkpt>
      <trkpt lat="42.7577" lon="0.37512">
        <ele>2271.25</ele>
        <time>2014-03-17T11:04:51Z</time>
      </trkpt>
      <trkpt lat="42.75776" lon="0.37517">
        <ele>2267.89</ele>
        <time>2014-03-17T11:04:53Z</time>
      </trkpt>
      <trkpt lat="42.75767" lon="0.37523">
        <ele>2261.64</ele>
        <time>2014-03-17T11:04:56Z</time>
      </trkpt>
      <trkpt lat="42.75754" lon="0.37529">
        <ele>2256.83</ele>
        <time>2014-03-17T11:05:00Z</time>
      </trkpt>
      <trkpt lat="42.75762" lon="0.37544">
        <ele>2248.18</ele>
        <time>2014-03-17T11:05:03Z</time>
      </trkpt>
      <trkpt lat="42.75774" lon="0.3755">
        <ele>2244.33</ele>
        <time>2014-03-17T11:05:05Z</time>
      </trkpt>
      <trkpt lat="42.75782" lon="0.37557">
        <ele>2240.01</ele>
        <time>2014-03-17T11:05:09Z</time>
      </trkpt>
      <trkpt lat="42.75778" lon="0.37566">
        <ele>2235.68</ele>
        <time>2014-03-17T11:05:11Z</time>
      </trkpt>
      <trkpt lat="42.75775" lon="0.37587">
        <ele>2225.11</ele>
        <time>2014-03-17T11:05:14Z</time>
      </trkpt>
      <trkpt lat="42.75775" lon="0.37605">
        <ele>2220.78</ele>
        <time>2014-03-17T11:05:16Z</time>
      </trkpt>
      <trkpt lat="42.75777" lon="0.37624">
        <ele>2214.53</ele>
        <time>2014-03-17T11:05:18Z</time>
      </trkpt>
      <trkpt lat="42.75771" lon="0.3764">
        <ele>2210.69</ele>
        <time>2014-03-17T11:05:20Z</time>
      </trkpt>
      <trkpt lat="42.7577" lon="0.3766">
        <ele>2204.92</ele>
        <time>2014-03-17T11:05:22Z</time>
      </trkpt>
      <trkpt lat="42.75774" lon="0.37677">
        <ele>2201.08</ele>
        <time>2014-03-17T11:05:24Z</time>
      </trkpt>
      <trkpt lat="42.75776" lon="0.37694">
        <ele>2195.79</ele>
        <time>2014-03-17T11:05:26Z</time>
      </trkpt>
      <trkpt lat="42.75783" lon="0.37699">
        <ele>2193.39</ele>
        <time>2014-03-17T11:05:28Z</time>
      </trkpt>
      <trkpt lat="42.75815" lon="0.37709">
        <ele>2189.06</ele>
        <time>2014-03-17T11:05:35Z</time>
      </trkpt>
      <trkpt lat="42.75835" lon="0.37707">
        <ele>2187.14</ele>
        <time>2014-03-17T11:05:38Z</time>
      </trkpt>
      <trkpt lat="42.75854" lon="0.377">
        <ele>2185.69</ele>
        <time>2014-03-17T11:05:41Z</time>
      </trkpt>
      <trkpt lat="42.75873" lon="0.37705">
        <ele>2182.33</ele>
        <time>2014-03-17T11:05:44Z</time>
      </trkpt>
      <trkpt lat="42.75897" lon="0.37713">
        <ele>2178</ele>
        <time>2014-03-17T11:05:47Z</time>
      </trkpt>
      <trkpt lat="42.75912" lon="0.37726">
        <ele>2173.68</ele>
        <time>2014-03-17T11:05:49Z</time>
      </trkpt>
      <trkpt lat="42.75948" lon="0.37762">
        <ele>2166.47</ele>
        <time>2014-03-17T11:05:54Z</time>
      </trkpt>
      <trkpt lat="42.75954" lon="0.37769">
        <ele>2165.99</ele>
        <time>2014-03-17T11:05:55Z</time>
      </trkpt>
      <trkpt lat="42.75975" lon="0.37784">
        <ele>2165.03</ele>
        <time>2014-03-17T11:06:00Z</time>
      </trkpt>
      <trkpt lat="42.75976" lon="0.37801">
        <ele>2163.58</ele>
        <time>2014-03-17T11:06:03Z</time>
      </trkpt>
      <trkpt lat="42.75979" lon="0.37825">
        <ele>2158.3</ele>
        <time>2014-03-17T11:06:06Z</time>
      </trkpt>
      <trkpt lat="42.75982" lon="0.37842">
        <ele>2154.45</ele>
        <time>2014-03-17T11:06:08Z</time>
      </trkpt>
      <trkpt lat="42.75991" lon="0.37857">
        <ele>2148.68</ele>
        <time>2014-03-17T11:06:10Z</time>
      </trkpt>
      <trkpt lat="42.76007" lon="0.37876">
        <ele>2141.95</ele>
        <time>2014-03-17T11:06:13Z</time>
      </trkpt>
      <trkpt lat="42.76039" lon="0.37881">
        <ele>2132.34</ele>
        <time>2014-03-17T11:06:17Z</time>
      </trkpt>
      <trkpt lat="42.76058" lon="0.37894">
        <ele>2128.98</ele>
        <time>2014-03-17T11:06:19Z</time>
      </trkpt>
      <trkpt lat="42.76081" lon="0.37903">
        <ele>2125.61</ele>
        <time>2014-03-17T11:06:22Z</time>
      </trkpt>
      <trkpt lat="42.76092" lon="0.37916">
        <ele>2125.13</ele>
        <time>2014-03-17T11:06:25Z</time>
      </trkpt>
      <trkpt lat="42.76097" lon="0.37923">
        <ele>2125.61</ele>
        <time>2014-03-17T11:06:34Z</time>
      </trkpt>
      <trkpt lat="42.76096" lon="0.3792">
        <ele>2125.13</ele>
        <time>2014-03-17T11:07:00Z</time>
      </trkpt>
      <trkpt lat="42.76095" lon="0.37919">
        <ele>2125.13</ele>
        <time>2014-03-17T11:07:20Z</time>
      </trkpt>
      <trkpt lat="42.76096" lon="0.37919">
        <ele>2124.65</ele>
        <time>2014-03-17T11:07:22Z</time>
      </trkpt>
      <trkpt lat="42.76105" lon="0.37923">
        <ele>2123.69</ele>
        <time>2014-03-17T11:07:26Z</time>
      </trkpt>
      <trkpt lat="42.76133" lon="0.37957">
        <ele>2119.84</ele>
        <time>2014-03-17T11:07:37Z</time>
      </trkpt>
      <trkpt lat="42.76148" lon="0.37984">
        <ele>2116.96</ele>
        <time>2014-03-17T11:07:42Z</time>
      </trkpt>
      <trkpt lat="42.76161" lon="0.37985">
        <ele>2112.63</ele>
        <time>2014-03-17T11:07:45Z</time>
      </trkpt>
      <trkpt lat="42.76166" lon="0.37988">
        <ele>2110.71</ele>
        <time>2014-03-17T11:07:46Z</time>
      </trkpt>
      <trkpt lat="42.76175" lon="0.37998">
        <ele>2108.79</ele>
        <time>2014-03-17T11:07:48Z</time>
      </trkpt>
      <trkpt lat="42.76188" lon="0.37988">
        <ele>2102.06</ele>
        <time>2014-03-17T11:07:51Z</time>
      </trkpt>
      <trkpt lat="42.76195" lon="0.37985">
        <ele>2098.21</ele>
        <time>2014-03-17T11:07:52Z</time>
      </trkpt>
      <trkpt lat="42.76203" lon="0.37981">
        <ele>2094.85</ele>
        <time>2014-03-17T11:07:53Z</time>
      </trkpt>
      <trkpt lat="42.76209" lon="0.37971">
        <ele>2087.64</ele>
        <time>2014-03-17T11:07:54Z</time>
      </trkpt>
      <trkpt lat="42.76215" lon="0.37944">
        <ele>2084.76</ele>
        <time>2014-03-17T11:07:56Z</time>
      </trkpt>
      <trkpt lat="42.76226" lon="0.37921">
        <ele>2080.91</ele>
        <time>2014-03-17T11:07:58Z</time>
      </trkpt>
      <trkpt lat="42.76252" lon="0.37911">
        <ele>2077.55</ele>
        <time>2014-03-17T11:08:01Z</time>
      </trkpt>
      <trkpt lat="42.7627" lon="0.37911">
        <ele>2075.62</ele>
        <time>2014-03-17T11:08:03Z</time>
      </trkpt>
      <trkpt lat="42.76306" lon="0.37902">
        <ele>2071.3</ele>
        <time>2014-03-17T11:08:07Z</time>
      </trkpt>
      <trkpt lat="42.76315" lon="0.37901">
        <ele>2070.34</ele>
        <time>2014-03-17T11:08:08Z</time>
      </trkpt>
      <trkpt lat="42.76351" lon="0.37897">
        <ele>2066.01</ele>
        <time>2014-03-17T11:08:12Z</time>
      </trkpt>
      <trkpt lat="42.7636" lon="0.37894">
        <ele>2065.05</ele>
        <time>2014-03-17T11:08:13Z</time>
      </trkpt>
      <trkpt lat="42.76413" lon="0.37875">
        <ele>2060.72</ele>
        <time>2014-03-17T11:08:20Z</time>
      </trkpt>
      <trkpt lat="42.76451" lon="0.3787">
        <ele>2057.84</ele>
        <time>2014-03-17T11:08:26Z</time>
      </trkpt>
      <trkpt lat="42.7648" lon="0.37868">
        <ele>2054.47</ele>
        <time>2014-03-17T11:08:30Z</time>
      </trkpt>
      <trkpt lat="42.76487" lon="0.37863">
        <ele>2053.99</ele>
        <time>2014-03-17T11:08:31Z</time>
      </trkpt>
      <trkpt lat="42.76512" lon="0.37852">
        <ele>2050.63</ele>
        <time>2014-03-17T11:08:34Z</time>
      </trkpt>
      <trkpt lat="42.76539" lon="0.37837">
        <ele>2047.26</ele>
        <time>2014-03-17T11:08:37Z</time>
      </trkpt>
      <trkpt lat="42.76549" lon="0.37836">
        <ele>2046.3</ele>
        <time>2014-03-17T11:08:38Z</time>
      </trkpt>
      <trkpt lat="42.76571" lon="0.37831">
        <ele>2044.86</ele>
        <time>2014-03-17T11:08:41Z</time>
      </trkpt>
      <trkpt lat="42.76594" lon="0.37811">
        <ele>2044.38</ele>
        <time>2014-03-17T11:08:48Z</time>
      </trkpt>
      <trkpt lat="42.76631" lon="0.37809">
        <ele>2041.98</ele>
        <time>2014-03-17T11:08:58Z</time>
      </trkpt>
      <trkpt lat="42.76654" lon="0.37811">
        <ele>2038.61</ele>
        <time>2014-03-17T11:09:01Z</time>
      </trkpt>
      <trkpt lat="42.76673" lon="0.37814">
        <ele>2035.73</ele>
        <time>2014-03-17T11:09:03Z</time>
      </trkpt>
      <trkpt lat="42.76712" lon="0.37799">
        <ele>2028.04</ele>
        <time>2014-03-17T11:09:07Z</time>
      </trkpt>
      <trkpt lat="42.76737" lon="0.37794">
        <ele>2026.6</ele>
        <time>2014-03-17T11:09:10Z</time>
      </trkpt>
      <trkpt lat="42.76784" lon="0.37786">
        <ele>2022.75</ele>
        <time>2014-03-17T11:09:18Z</time>
      </trkpt>
      <trkpt lat="42.76814" lon="0.37791">
        <ele>2019.39</ele>
        <time>2014-03-17T11:09:22Z</time>
      </trkpt>
      <trkpt lat="42.76829" lon="0.37795">
        <ele>2017.94</ele>
        <time>2014-03-17T11:09:24Z</time>
      </trkpt>
      <trkpt lat="42.76878" lon="0.37797">
        <ele>2013.62</ele>
        <time>2014-03-17T11:09:33Z</time>
      </trkpt>
      <trkpt lat="42.76911" lon="0.378">
        <ele>2009.29</ele>
        <time>2014-03-17T11:09:37Z</time>
      </trkpt>
      <trkpt lat="42.76938" lon="0.37803">
        <ele>2006.41</ele>
        <time>2014-03-17T11:09:40Z</time>
      </trkpt>
      <trkpt lat="42.76975" lon="0.37804">
        <ele>2003.52</ele>
        <time>2014-03-17T11:09:45Z</time>
      </trkpt>
      <trkpt lat="42.77012" lon="0.37805">
        <ele>1999.68</ele>
        <time>2014-03-17T11:09:50Z</time>
      </trkpt>
      <trkpt lat="42.77046" lon="0.37803">
        <ele>1995.83</ele>
        <time>2014-03-17T11:09:54Z</time>
      </trkpt>
      <trkpt lat="42.77072" lon="0.378">
        <ele>1993.91</ele>
        <time>2014-03-17T11:09:57Z</time>
      </trkpt>
      <trkpt lat="42.77096" lon="0.37793">
        <ele>1993.91</ele>
        <time>2014-03-17T11:10:05Z</time>
      </trkpt>
      <trkpt lat="42.77096" lon="0.37792">
        <ele>1993.43</ele>
        <time>2014-03-17T11:10:28Z</time>
      </trkpt>
      <trkpt lat="42.77096" lon="0.3779">
        <ele>1993.43</ele>
        <time>2014-03-17T11:10:47Z</time>
      </trkpt>
      <trkpt lat="42.77094" lon="0.37778">
        <ele>1990.07</ele>
        <time>2014-03-17T11:10:50Z</time>
      </trkpt>
      <trkpt lat="42.77105" lon="0.37764">
        <ele>1980.93</ele>
        <time>2014-03-17T11:10:53Z</time>
      </trkpt>
      <trkpt lat="42.77113" lon="0.37761">
        <ele>1979.97</ele>
        <time>2014-03-17T11:10:54Z</time>
      </trkpt>
      <trkpt lat="42.77151" lon="0.37748">
        <ele>1974.69</ele>
        <time>2014-03-17T11:10:58Z</time>
      </trkpt>
      <trkpt lat="42.77166" lon="0.37742">
        <ele>1973.72</ele>
        <time>2014-03-17T11:11:00Z</time>
      </trkpt>
      <trkpt lat="42.77205" lon="0.37724">
        <ele>1970.36</ele>
        <time>2014-03-17T11:11:06Z</time>
      </trkpt>
      <trkpt lat="42.77237" lon="0.37706">
        <ele>1966.99</ele>
        <time>2014-03-17T11:11:11Z</time>
      </trkpt>
      <trkpt lat="42.77256" lon="0.37686">
        <ele>1965.55</ele>
        <time>2014-03-17T11:11:15Z</time>
      </trkpt>
      <trkpt lat="42.77269" lon="0.37672">
        <ele>1965.55</ele>
        <time>2014-03-17T11:11:25Z</time>
      </trkpt>
      <trkpt lat="42.77268" lon="0.37672">
        <ele>1965.07</ele>
        <time>2014-03-17T11:11:42Z</time>
      </trkpt>
      <trkpt lat="42.77269" lon="0.37671">
        <ele>1964.11</ele>
        <time>2014-03-17T11:12:01Z</time>
      </trkpt>
      <trkpt lat="42.7727" lon="0.37672">
        <ele>1963.63</ele>
        <time>2014-03-17T11:12:18Z</time>
      </trkpt>
      <trkpt lat="42.77268" lon="0.37673">
        <ele>1963.15</ele>
        <time>2014-03-17T11:12:53Z</time>
      </trkpt>
      <trkpt lat="42.77267" lon="0.37674">
        <ele>1962.67</ele>
        <time>2014-03-17T11:13:36Z</time>
      </trkpt>
      <trkpt lat="42.77268" lon="0.37675">
        <ele>1962.67</ele>
        <time>2014-03-17T11:13:59Z</time>
      </trkpt>
      <trkpt lat="42.77269" lon="0.37671">
        <ele>1963.63</ele>
        <time>2014-03-17T11:14:09Z</time>
      </trkpt>
      <trkpt lat="42.77269" lon="0.37672">
        <ele>1964.11</ele>
        <time>2014-03-17T11:14:22Z</time>
      </trkpt>
      <trkpt lat="42.77272" lon="0.37672">
        <ele>1964.59</ele>
        <time>2014-03-17T11:14:39Z</time>
      </trkpt>
      <trkpt lat="42.77281" lon="0.37673">
        <ele>1966.99</ele>
        <time>2014-03-17T11:14:52Z</time>
      </trkpt>
      <trkpt lat="42.7729" lon="0.37674">
        <ele>1968.92</ele>
        <time>2014-03-17T11:15:04Z</time>
      </trkpt>
      <trkpt lat="42.77298" lon="0.37676">
        <ele>1970.84</ele>
        <time>2014-03-17T11:15:17Z</time>
      </trkpt>
      <trkpt lat="42.77304" lon="0.37677">
        <ele>1973.24</ele>
        <time>2014-03-17T11:15:28Z</time>
      </trkpt>
      <trkpt lat="42.77309" lon="0.37677">
        <ele>1974.2</ele>
        <time>2014-03-17T11:15:43Z</time>
      </trkpt>
      <trkpt lat="42.77314" lon="0.37678">
        <ele>1976.61</ele>
        <time>2014-03-17T11:15:56Z</time>
      </trkpt>
      <trkpt lat="42.77312" lon="0.37682">
        <ele>1977.57</ele>
        <time>2014-03-17T11:16:10Z</time>
      </trkpt>
      <trkpt lat="42.77312" lon="0.37691">
        <ele>1979.49</ele>
        <time>2014-03-17T11:16:21Z</time>
      </trkpt>
      <trkpt lat="42.77311" lon="0.377">
        <ele>1981.9</ele>
        <time>2014-03-17T11:16:35Z</time>
      </trkpt>
      <trkpt lat="42.77312" lon="0.37701">
        <ele>1983.34</ele>
        <time>2014-03-17T11:16:47Z</time>
      </trkpt>
      <trkpt lat="42.77317" lon="0.37702">
        <ele>1984.78</ele>
        <time>2014-03-17T11:16:59Z</time>
      </trkpt>
      <trkpt lat="42.77325" lon="0.37701">
        <ele>1986.22</ele>
        <time>2014-03-17T11:17:11Z</time>
      </trkpt>
      <trkpt lat="42.77324" lon="0.37705">
        <ele>1987.18</ele>
        <time>2014-03-17T11:17:20Z</time>
      </trkpt>
      <trkpt lat="42.7732" lon="0.37714">
        <ele>1989.59</ele>
        <time>2014-03-17T11:17:33Z</time>
      </trkpt>
      <trkpt lat="42.77321" lon="0.37716">
        <ele>1990.07</ele>
        <time>2014-03-17T11:17:43Z</time>
      </trkpt>
      <trkpt lat="42.77326" lon="0.37716">
        <ele>1991.99</ele>
        <time>2014-03-17T11:17:54Z</time>
      </trkpt>
      <trkpt lat="42.77331" lon="0.37713">
        <ele>1993.43</ele>
        <time>2014-03-17T11:18:08Z</time>
      </trkpt>
      <trkpt lat="42.77339" lon="0.37709">
        <ele>1994.87</ele>
        <time>2014-03-17T11:18:23Z</time>
      </trkpt>
      <trkpt lat="42.77338" lon="0.37709">
        <ele>1994.87</ele>
        <time>2014-03-17T11:18:28Z</time>
      </trkpt>
      <trkpt lat="42.77334" lon="0.37717">
        <ele>1996.32</ele>
        <time>2014-03-17T11:18:41Z</time>
      </trkpt>
      <trkpt lat="42.77333" lon="0.37724">
        <ele>1998.24</ele>
        <time>2014-03-17T11:18:52Z</time>
      </trkpt>
      <trkpt lat="42.77333" lon="0.37725">
        <ele>1998.24</ele>
        <time>2014-03-17T11:18:54Z</time>
      </trkpt>
      <trkpt lat="42.77331" lon="0.37731">
        <ele>2000.64</ele>
        <time>2014-03-17T11:19:08Z</time>
      </trkpt>
      <trkpt lat="42.77329" lon="0.37738">
        <ele>2002.08</ele>
        <time>2014-03-17T11:19:29Z</time>
      </trkpt>
      <trkpt lat="42.77333" lon="0.37749">
        <ele>2004.97</ele>
        <time>2014-03-17T11:19:44Z</time>
      </trkpt>
      <trkpt lat="42.77333" lon="0.37754">
        <ele>2006.41</ele>
        <time>2014-03-17T11:19:53Z</time>
      </trkpt>
      <trkpt lat="42.77333" lon="0.37756">
        <ele>2006.89</ele>
        <time>2014-03-17T11:19:55Z</time>
      </trkpt>
      <trkpt lat="42.7733" lon="0.37761">
        <ele>2007.85</ele>
        <time>2014-03-17T11:20:13Z</time>
      </trkpt>
      <trkpt lat="42.77333" lon="0.37768">
        <ele>2009.77</ele>
        <time>2014-03-17T11:20:30Z</time>
      </trkpt>
      <trkpt lat="42.77334" lon="0.37768">
        <ele>2011.22</ele>
        <time>2014-03-17T11:20:40Z</time>
      </trkpt>
      <trkpt lat="42.7734" lon="0.37767">
        <ele>2011.7</ele>
        <time>2014-03-17T11:20:45Z</time>
      </trkpt>
      <trkpt lat="42.77346" lon="0.37764">
        <ele>2013.14</ele>
        <time>2014-03-17T11:20:52Z</time>
      </trkpt>
      <trkpt lat="42.7735" lon="0.37762">
        <ele>2014.1</ele>
        <time>2014-03-17T11:20:57Z</time>
      </trkpt>
      <trkpt lat="42.77354" lon="0.37761">
        <ele>2014.58</ele>
        <time>2014-03-17T11:21:11Z</time>
      </trkpt>
      <trkpt lat="42.77355" lon="0.37764">
        <ele>2015.54</ele>
        <time>2014-03-17T11:21:22Z</time>
      </trkpt>
      <trkpt lat="42.77355" lon="0.37772">
        <ele>2018.43</ele>
        <time>2014-03-17T11:21:35Z</time>
      </trkpt>
      <trkpt lat="42.77353" lon="0.37781">
        <ele>2020.35</ele>
        <time>2014-03-17T11:21:46Z</time>
      </trkpt>
      <trkpt lat="42.77349" lon="0.37782">
        <ele>2020.83</ele>
        <time>2014-03-17T11:22:02Z</time>
      </trkpt>
      <trkpt lat="42.77348" lon="0.37788">
        <ele>2022.75</ele>
        <time>2014-03-17T11:22:12Z</time>
      </trkpt>
      <trkpt lat="42.77351" lon="0.37788">
        <ele>2023.71</ele>
        <time>2014-03-17T11:22:21Z</time>
      </trkpt>
      <trkpt lat="42.77362" lon="0.37786">
        <ele>2026.6</ele>
        <time>2014-03-17T11:22:36Z</time>
      </trkpt>
      <trkpt lat="42.77369" lon="0.37782">
        <ele>2028.52</ele>
        <time>2014-03-17T11:22:48Z</time>
      </trkpt>
      <trkpt lat="42.77366" lon="0.37781">
        <ele>2028.52</ele>
        <time>2014-03-17T11:23:07Z</time>
      </trkpt>
      <trkpt lat="42.77364" lon="0.3779">
        <ele>2030.44</ele>
        <time>2014-03-17T11:23:19Z</time>
      </trkpt>
      <trkpt lat="42.77363" lon="0.37801">
        <ele>2033.33</ele>
        <time>2014-03-17T11:23:34Z</time>
      </trkpt>
      <trkpt lat="42.77368" lon="0.37804">
        <ele>2034.77</ele>
        <time>2014-03-17T11:23:47Z</time>
      </trkpt>
      <trkpt lat="42.77374" lon="0.37804">
        <ele>2035.73</ele>
        <time>2014-03-17T11:24:13Z</time>
      </trkpt>
      <trkpt lat="42.77383" lon="0.37795">
        <ele>2038.13</ele>
        <time>2014-03-17T11:24:28Z</time>
      </trkpt>
      <trkpt lat="42.7739" lon="0.37787">
        <ele>2040.05</ele>
        <time>2014-03-17T11:24:41Z</time>
      </trkpt>
      <trkpt lat="42.7739" lon="0.37788">
        <ele>2041.5</ele>
        <time>2014-03-17T11:24:50Z</time>
      </trkpt>
      <trkpt lat="42.77385" lon="0.3779">
        <ele>2041.98</ele>
        <time>2014-03-17T11:25:05Z</time>
      </trkpt>
      <trkpt lat="42.77384" lon="0.378">
        <ele>2043.9</ele>
        <time>2014-03-17T11:25:23Z</time>
      </trkpt>
      <trkpt lat="42.77385" lon="0.37802">
        <ele>2043.9</ele>
        <time>2014-03-17T11:25:26Z</time>
      </trkpt>
      <trkpt lat="42.77384" lon="0.37815">
        <ele>2046.3</ele>
        <time>2014-03-17T11:25:40Z</time>
      </trkpt>
      <trkpt lat="42.77385" lon="0.3783">
        <ele>2049.19</ele>
        <time>2014-03-17T11:25:56Z</time>
      </trkpt>
      <trkpt lat="42.77388" lon="0.37833">
        <ele>2050.63</ele>
        <time>2014-03-17T11:26:08Z</time>
      </trkpt>
      <trkpt lat="42.77385" lon="0.37836">
        <ele>2051.11</ele>
        <time>2014-03-17T11:26:34Z</time>
      </trkpt>
      <trkpt lat="42.7738" lon="0.37845">
        <ele>2053.99</ele>
        <time>2014-03-17T11:26:49Z</time>
      </trkpt>
      <trkpt lat="42.77377" lon="0.37855">
        <ele>2056.88</ele>
        <time>2014-03-17T11:27:03Z</time>
      </trkpt>
      <trkpt lat="42.77374" lon="0.37855">
        <ele>2056.88</ele>
        <time>2014-03-17T11:27:07Z</time>
      </trkpt>
      <trkpt lat="42.77383" lon="0.37858">
        <ele>2058.8</ele>
        <time>2014-03-17T11:27:19Z</time>
      </trkpt>
      <trkpt lat="42.77391" lon="0.37857">
        <ele>2061.68</ele>
        <time>2014-03-17T11:27:35Z</time>
      </trkpt>
      <trkpt lat="42.77398" lon="0.37858">
        <ele>2062.65</ele>
        <time>2014-03-17T11:27:50Z</time>
      </trkpt>
      <trkpt lat="42.77405" lon="0.37858">
        <ele>2064.57</ele>
        <time>2014-03-17T11:28:08Z</time>
      </trkpt>
      <trkpt lat="42.77405" lon="0.37855">
        <ele>2065.05</ele>
        <time>2014-03-17T11:28:32Z</time>
      </trkpt>
      <trkpt lat="42.7741" lon="0.37857">
        <ele>2066.97</ele>
        <time>2014-03-17T11:28:46Z</time>
      </trkpt>
      <trkpt lat="42.77416" lon="0.37855">
        <ele>2068.89</ele>
        <time>2014-03-17T11:28:59Z</time>
      </trkpt>
      <trkpt lat="42.77421" lon="0.37851">
        <ele>2070.82</ele>
        <time>2014-03-17T11:29:10Z</time>
      </trkpt>
      <trkpt lat="42.77427" lon="0.37846">
        <ele>2072.74</ele>
        <time>2014-03-17T11:29:23Z</time>
      </trkpt>
      <trkpt lat="42.77435" lon="0.37844">
        <ele>2074.66</ele>
        <time>2014-03-17T11:29:35Z</time>
      </trkpt>
      <trkpt lat="42.77434" lon="0.37841">
        <ele>2075.62</ele>
        <time>2014-03-17T11:29:52Z</time>
      </trkpt>
      <trkpt lat="42.77434" lon="0.3784">
        <ele>2076.1</ele>
        <time>2014-03-17T11:30:09Z</time>
      </trkpt>
      <trkpt lat="42.77438" lon="0.37838">
        <ele>2077.55</ele>
        <time>2014-03-17T11:30:21Z</time>
      </trkpt>
      <trkpt lat="42.77434" lon="0.37847">
        <ele>2079.47</ele>
        <time>2014-03-17T11:30:33Z</time>
      </trkpt>
      <trkpt lat="42.77435" lon="0.3786">
        <ele>2081.87</ele>
        <time>2014-03-17T11:30:46Z</time>
      </trkpt>
      <trkpt lat="42.77431" lon="0.37868">
        <ele>2083.31</ele>
        <time>2014-03-17T11:30:57Z</time>
      </trkpt>
      <trkpt lat="42.77428" lon="0.3788">
        <ele>2084.28</ele>
        <time>2014-03-17T11:31:12Z</time>
      </trkpt>
      <trkpt lat="42.77427" lon="0.37891">
        <ele>2086.2</ele>
        <time>2014-03-17T11:31:24Z</time>
      </trkpt>
      <trkpt lat="42.77431" lon="0.37902">
        <ele>2088.6</ele>
        <time>2014-03-17T11:31:37Z</time>
      </trkpt>
      <trkpt lat="42.77437" lon="0.37896">
        <ele>2089.08</ele>
        <time>2014-03-17T11:31:48Z</time>
      </trkpt>
      <trkpt lat="42.77441" lon="0.37886">
        <ele>2089.56</ele>
        <time>2014-03-17T11:32:02Z</time>
      </trkpt>
      <trkpt lat="42.77445" lon="0.37878">
        <ele>2090.04</ele>
        <time>2014-03-17T11:32:12Z</time>
      </trkpt>
      <trkpt lat="42.77449" lon="0.37869">
        <ele>2090.04</ele>
        <time>2014-03-17T11:32:26Z</time>
      </trkpt>
      <trkpt lat="42.77451" lon="0.37867">
        <ele>2090.52</ele>
        <time>2014-03-17T11:32:35Z</time>
      </trkpt>
      <trkpt lat="42.77453" lon="0.37858">
        <ele>2090.52</ele>
        <time>2014-03-17T11:32:49Z</time>
      </trkpt>
      <trkpt lat="42.77453" lon="0.37856">
        <ele>2090.04</ele>
        <time>2014-03-17T11:33:03Z</time>
      </trkpt>
      <trkpt lat="42.77453" lon="0.37855">
        <ele>2090.04</ele>
        <time>2014-03-17T11:33:19Z</time>
      </trkpt>
      <trkpt lat="42.77454" lon="0.37847">
        <ele>2091</ele>
        <time>2014-03-17T11:33:32Z</time>
      </trkpt>
      <trkpt lat="42.77456" lon="0.3783">
        <ele>2091</ele>
        <time>2014-03-17T11:33:46Z</time>
      </trkpt>
      <trkpt lat="42.77462" lon="0.37819">
        <ele>2091</ele>
        <time>2014-03-17T11:33:57Z</time>
      </trkpt>
      <trkpt lat="42.77461" lon="0.37819">
        <ele>2091</ele>
        <time>2014-03-17T11:34:00Z</time>
      </trkpt>
      <trkpt lat="42.77468" lon="0.37815">
        <ele>2090.52</ele>
        <time>2014-03-17T11:34:09Z</time>
      </trkpt>
      <trkpt lat="42.7746" lon="0.37813">
        <ele>2090.52</ele>
        <time>2014-03-17T11:34:37Z</time>
      </trkpt>
      <trkpt lat="42.77459" lon="0.37813">
        <ele>2090.52</ele>
        <time>2014-03-17T11:35:09Z</time>
      </trkpt>
      <trkpt lat="42.77459" lon="0.37814">
        <ele>2090.52</ele>
        <time>2014-03-17T11:35:38Z</time>
      </trkpt>
      <trkpt lat="42.77463" lon="0.37814">
        <ele>2090.52</ele>
        <time>2014-03-17T11:35:58Z</time>
      </trkpt>
      <trkpt lat="42.77464" lon="0.37811">
        <ele>2091</ele>
        <time>2014-03-17T11:36:44Z</time>
      </trkpt>
      <trkpt lat="42.77463" lon="0.37811">
        <ele>2091</ele>
        <time>2014-03-17T11:37:20Z</time>
      </trkpt>
      <trkpt lat="42.77456" lon="0.37812">
        <ele>2091.49</ele>
        <time>2014-03-17T11:37:45Z</time>
      </trkpt>
      <trkpt lat="42.77456" lon="0.37814">
        <ele>2091.49</ele>
        <time>2014-03-17T11:38:06Z</time>
      </trkpt>
      <trkpt lat="42.77458" lon="0.37814">
        <ele>2091.49</ele>
        <time>2014-03-17T11:38:31Z</time>
      </trkpt>
      <trkpt lat="42.77457" lon="0.37814">
        <ele>2091.49</ele>
        <time>2014-03-17T11:38:46Z</time>
      </trkpt>
      <trkpt lat="42.77456" lon="0.37812">
        <ele>2092.45</ele>
        <time>2014-03-17T11:39:00Z</time>
      </trkpt>
      <trkpt lat="42.7746" lon="0.37815">
        <ele>2092.45</ele>
        <time>2014-03-17T11:39:13Z</time>
      </trkpt>
      <trkpt lat="42.77461" lon="0.37816">
        <ele>2092.45</ele>
        <time>2014-03-17T11:39:27Z</time>
      </trkpt>
      <trkpt lat="42.77464" lon="0.37816">
        <ele>2092.45</ele>
        <time>2014-03-17T11:39:43Z</time>
      </trkpt>
      <trkpt lat="42.77468" lon="0.37816">
        <ele>2092.45</ele>
        <time>2014-03-17T11:39:57Z</time>
      </trkpt>
      <trkpt lat="42.77468" lon="0.37816">
        <ele>2092.45</ele>
        <time>2014-03-17T11:40:07Z</time>
      </trkpt>
      <trkpt lat="42.77473" lon="0.37812">
        <ele>2091.97</ele>
        <time>2014-03-17T11:40:09Z</time>
      </trkpt>
      <trkpt lat="42.77484" lon="0.37799">
        <ele>2088.6</ele>
        <time>2014-03-17T11:40:12Z</time>
      </trkpt>
      <trkpt lat="42.77488" lon="0.37792">
        <ele>2087.16</ele>
        <time>2014-03-17T11:40:13Z</time>
      </trkpt>
      <trkpt lat="42.77492" lon="0.37786">
        <ele>2086.2</ele>
        <time>2014-03-17T11:40:14Z</time>
      </trkpt>
      <trkpt lat="42.77497" lon="0.37781">
        <ele>2085.72</ele>
        <time>2014-03-17T11:40:15Z</time>
      </trkpt>
      <trkpt lat="42.77502" lon="0.37777">
        <ele>2085.24</ele>
        <time>2014-03-17T11:40:16Z</time>
      </trkpt>
      <trkpt lat="42.77507" lon="0.37775">
        <ele>2084.28</ele>
        <time>2014-03-17T11:40:17Z</time>
      </trkpt>
      <trkpt lat="42.77514" lon="0.37772">
        <ele>2083.79</ele>
        <time>2014-03-17T11:40:18Z</time>
      </trkpt>
      <trkpt lat="42.77519" lon="0.37769">
        <ele>2082.83</ele>
        <time>2014-03-17T11:40:19Z</time>
      </trkpt>
      <trkpt lat="42.77524" lon="0.37764">
        <ele>2082.35</ele>
        <time>2014-03-17T11:40:20Z</time>
      </trkpt>
      <trkpt lat="42.77529" lon="0.37761">
        <ele>2081.87</ele>
        <time>2014-03-17T11:40:21Z</time>
      </trkpt>
      <trkpt lat="42.77533" lon="0.37758">
        <ele>2080.91</ele>
        <time>2014-03-17T11:40:22Z</time>
      </trkpt>
      <trkpt lat="42.77537" lon="0.37754">
        <ele>2080.91</ele>
        <time>2014-03-17T11:40:23Z</time>
      </trkpt>
      <trkpt lat="42.77541" lon="0.37751">
        <ele>2080.43</ele>
        <time>2014-03-17T11:40:24Z</time>
      </trkpt>
      <trkpt lat="42.77557" lon="0.37752">
        <ele>2077.07</ele>
        <time>2014-03-17T11:40:28Z</time>
      </trkpt>
      <trkpt lat="42.77568" lon="0.37756">
        <ele>2073.7</ele>
        <time>2014-03-17T11:40:30Z</time>
      </trkpt>
      <trkpt lat="42.7758" lon="0.37757">
        <ele>2069.38</ele>
        <time>2014-03-17T11:40:32Z</time>
      </trkpt>
      <trkpt lat="42.77592" lon="0.37761">
        <ele>2066.49</ele>
        <time>2014-03-17T11:40:34Z</time>
      </trkpt>
      <trkpt lat="42.77605" lon="0.37765">
        <ele>2061.68</ele>
        <time>2014-03-17T11:40:36Z</time>
      </trkpt>
      <trkpt lat="42.77612" lon="0.37766">
        <ele>2059.76</ele>
        <time>2014-03-17T11:40:37Z</time>
      </trkpt>
      <trkpt lat="42.77636" lon="0.37777">
        <ele>2053.51</ele>
        <time>2014-03-17T11:40:41Z</time>
      </trkpt>
      <trkpt lat="42.77647" lon="0.37784">
        <ele>2050.15</ele>
        <time>2014-03-17T11:40:43Z</time>
      </trkpt>
      <trkpt lat="42.77659" lon="0.37794">
        <ele>2046.78</ele>
        <time>2014-03-17T11:40:45Z</time>
      </trkpt>
      <trkpt lat="42.77667" lon="0.37798">
        <ele>2043.42</ele>
        <time>2014-03-17T11:40:46Z</time>
      </trkpt>
      <trkpt lat="42.77676" lon="0.378">
        <ele>2040.54</ele>
        <time>2014-03-17T11:40:47Z</time>
      </trkpt>
      <trkpt lat="42.77712" lon="0.37805">
        <ele>2030.44</ele>
        <time>2014-03-17T11:40:51Z</time>
      </trkpt>
      <trkpt lat="42.7772" lon="0.37803">
        <ele>2027.08</ele>
        <time>2014-03-17T11:40:52Z</time>
      </trkpt>
      <trkpt lat="42.77744" lon="0.37803">
        <ele>2022.27</ele>
        <time>2014-03-17T11:40:55Z</time>
      </trkpt>
      <trkpt lat="42.77752" lon="0.37804">
        <ele>2020.35</ele>
        <time>2014-03-17T11:40:56Z</time>
      </trkpt>
      <trkpt lat="42.77786" lon="0.37808">
        <ele>2011.22</ele>
        <time>2014-03-17T11:41:00Z</time>
      </trkpt>
      <trkpt lat="42.77803" lon="0.3781">
        <ele>2006.41</ele>
        <time>2014-03-17T11:41:02Z</time>
      </trkpt>
      <trkpt lat="42.77841" lon="0.37813">
        <ele>1993.91</ele>
        <time>2014-03-17T11:41:06Z</time>
      </trkpt>
      <trkpt lat="42.7785" lon="0.37812">
        <ele>1990.55</ele>
        <time>2014-03-17T11:41:07Z</time>
      </trkpt>
      <trkpt lat="42.7787" lon="0.37816">
        <ele>1986.22</ele>
        <time>2014-03-17T11:41:09Z</time>
      </trkpt>
      <trkpt lat="42.77889" lon="0.37816">
        <ele>1981.9</ele>
        <time>2014-03-17T11:41:11Z</time>
      </trkpt>
      <trkpt lat="42.77908" lon="0.3782">
        <ele>1977.09</ele>
        <time>2014-03-17T11:41:13Z</time>
      </trkpt>
      <trkpt lat="42.77928" lon="0.37821">
        <ele>1971.8</ele>
        <time>2014-03-17T11:41:15Z</time>
      </trkpt>
      <trkpt lat="42.77947" lon="0.37816">
        <ele>1966.51</ele>
        <time>2014-03-17T11:41:17Z</time>
      </trkpt>
      <trkpt lat="42.77992" lon="0.37814">
        <ele>1954.02</ele>
        <time>2014-03-17T11:41:21Z</time>
      </trkpt>
      <trkpt lat="42.78004" lon="0.37819">
        <ele>1951.61</ele>
        <time>2014-03-17T11:41:22Z</time>
      </trkpt>
      <trkpt lat="42.78029" lon="0.37813">
        <ele>1945.36</ele>
        <time>2014-03-17T11:41:24Z</time>
      </trkpt>
      <trkpt lat="42.78069" lon="0.3782">
        <ele>1937.67</ele>
        <time>2014-03-17T11:41:27Z</time>
      </trkpt>
      <trkpt lat="42.7808" lon="0.37819">
        <ele>1933.83</ele>
        <time>2014-03-17T11:41:28Z</time>
      </trkpt>
      <trkpt lat="42.781" lon="0.37813">
        <ele>1929.98</ele>
        <time>2014-03-17T11:41:30Z</time>
      </trkpt>
      <trkpt lat="42.78119" lon="0.37806">
        <ele>1925.66</ele>
        <time>2014-03-17T11:41:32Z</time>
      </trkpt>
      <trkpt lat="42.78126" lon="0.37806">
        <ele>1923.25</ele>
        <time>2014-03-17T11:41:33Z</time>
      </trkpt>
      <trkpt lat="42.78151" lon="0.37801">
        <ele>1919.89</ele>
        <time>2014-03-17T11:41:38Z</time>
      </trkpt>
      <trkpt lat="42.78152" lon="0.37797">
        <ele>1919.41</ele>
        <time>2014-03-17T11:41:44Z</time>
      </trkpt>
      <trkpt lat="42.78158" lon="0.37801">
        <ele>1918.45</ele>
        <time>2014-03-17T11:41:52Z</time>
      </trkpt>
      <trkpt lat="42.78175" lon="0.378">
        <ele>1916.53</ele>
        <time>2014-03-17T11:41:55Z</time>
      </trkpt>
      <trkpt lat="42.78215" lon="0.37808">
        <ele>1912.2</ele>
        <time>2014-03-17T11:42:00Z</time>
      </trkpt>
      <trkpt lat="42.78223" lon="0.3781">
        <ele>1912.2</ele>
        <time>2014-03-17T11:42:01Z</time>
      </trkpt>
      <trkpt lat="42.78254" lon="0.37818">
        <ele>1909.32</ele>
        <time>2014-03-17T11:42:05Z</time>
      </trkpt>
      <trkpt lat="42.78286" lon="0.37823">
        <ele>1904.99</ele>
        <time>2014-03-17T11:42:10Z</time>
      </trkpt>
      <trkpt lat="42.78302" lon="0.37831">
        <ele>1901.63</ele>
        <time>2014-03-17T11:42:14Z</time>
      </trkpt>
      <trkpt lat="42.78303" lon="0.37844">
        <ele>1899.7</ele>
        <time>2014-03-17T11:42:19Z</time>
      </trkpt>
      <trkpt lat="42.78307" lon="0.37849">
        <ele>1895.86</ele>
        <time>2014-03-17T11:42:21Z</time>
      </trkpt>
      <trkpt lat="42.78313" lon="0.37872">
        <ele>1890.09</ele>
        <time>2014-03-17T11:42:26Z</time>
      </trkpt>
      <trkpt lat="42.78309" lon="0.37892">
        <ele>1888.65</ele>
        <time>2014-03-17T11:42:28Z</time>
      </trkpt>
      <trkpt lat="42.78307" lon="0.3791">
        <ele>1887.21</ele>
        <time>2014-03-17T11:42:30Z</time>
      </trkpt>
      <trkpt lat="42.78315" lon="0.37921">
        <ele>1882.88</ele>
        <time>2014-03-17T11:42:33Z</time>
      </trkpt>
      <trkpt lat="42.78322" lon="0.37929">
        <ele>1879.03</ele>
        <time>2014-03-17T11:42:35Z</time>
      </trkpt>
      <trkpt lat="42.78332" lon="0.37934">
        <ele>1874.23</ele>
        <time>2014-03-17T11:42:37Z</time>
      </trkpt>
      <trkpt lat="42.78342" lon="0.3794">
        <ele>1868.94</ele>
        <time>2014-03-17T11:42:39Z</time>
      </trkpt>
      <trkpt lat="42.78353" lon="0.37942">
        <ele>1862.21</ele>
        <time>2014-03-17T11:42:41Z</time>
      </trkpt>
      <trkpt lat="42.78364" lon="0.37947">
        <ele>1856.44</ele>
        <time>2014-03-17T11:42:43Z</time>
      </trkpt>
      <trkpt lat="42.78373" lon="0.37958">
        <ele>1850.68</ele>
        <time>2014-03-17T11:42:45Z</time>
      </trkpt>
      <trkpt lat="42.78379" lon="0.37959">
        <ele>1847.79</ele>
        <time>2014-03-17T11:42:46Z</time>
      </trkpt>
      <trkpt lat="42.78388" lon="0.3797">
        <ele>1841.54</ele>
        <time>2014-03-17T11:42:48Z</time>
      </trkpt>
      <trkpt lat="42.78393" lon="0.37971">
        <ele>1837.7</ele>
        <time>2014-03-17T11:42:49Z</time>
      </trkpt>
      <trkpt lat="42.78401" lon="0.37978">
        <ele>1832.89</ele>
        <time>2014-03-17T11:42:51Z</time>
      </trkpt>
      <trkpt lat="42.7841" lon="0.37984">
        <ele>1826.64</ele>
        <time>2014-03-17T11:42:53Z</time>
      </trkpt>
      <trkpt lat="42.78418" lon="0.37993">
        <ele>1820.87</ele>
        <time>2014-03-17T11:42:55Z</time>
      </trkpt>
      <trkpt lat="42.78422" lon="0.37997">
        <ele>1817.99</ele>
        <time>2014-03-17T11:42:56Z</time>
      </trkpt>
      <trkpt lat="42.78427" lon="0.37996">
        <ele>1814.63</ele>
        <time>2014-03-17T11:42:57Z</time>
      </trkpt>
      <trkpt lat="42.78438" lon="0.38004">
        <ele>1808.38</ele>
        <time>2014-03-17T11:42:59Z</time>
      </trkpt>
      <trkpt lat="42.78443" lon="0.38009">
        <ele>1805.01</ele>
        <time>2014-03-17T11:43:00Z</time>
      </trkpt>
      <trkpt lat="42.7845" lon="0.38008">
        <ele>1800.69</ele>
        <time>2014-03-17T11:43:01Z</time>
      </trkpt>
      <trkpt lat="42.78457" lon="0.38008">
        <ele>1797.32</ele>
        <time>2014-03-17T11:43:02Z</time>
      </trkpt>
      <trkpt lat="42.78463" lon="0.38014">
        <ele>1792.52</ele>
        <time>2014-03-17T11:43:03Z</time>
      </trkpt>
      <trkpt lat="42.78475" lon="0.38023">
        <ele>1785.31</ele>
        <time>2014-03-17T11:43:05Z</time>
      </trkpt>
      <trkpt lat="42.78482" lon="0.38025">
        <ele>1780.02</ele>
        <time>2014-03-17T11:43:06Z</time>
      </trkpt>
      <trkpt lat="42.78496" lon="0.38035">
        <ele>1772.81</ele>
        <time>2014-03-17T11:43:08Z</time>
      </trkpt>
      <trkpt lat="42.78504" lon="0.38036">
        <ele>1769.92</ele>
        <time>2014-03-17T11:43:09Z</time>
      </trkpt>
      <trkpt lat="42.7851" lon="0.38041">
        <ele>1766.08</ele>
        <time>2014-03-17T11:43:10Z</time>
      </trkpt>
      <trkpt lat="42.78516" lon="0.38048">
        <ele>1761.75</ele>
        <time>2014-03-17T11:43:11Z</time>
      </trkpt>
      <trkpt lat="42.78524" lon="0.38051">
        <ele>1757.91</ele>
        <time>2014-03-17T11:43:12Z</time>
      </trkpt>
      <trkpt lat="42.78532" lon="0.38054">
        <ele>1754.54</ele>
        <time>2014-03-17T11:43:13Z</time>
      </trkpt>
      <trkpt lat="42.78559" lon="0.38063">
        <ele>1741.08</ele>
        <time>2014-03-17T11:43:16Z</time>
      </trkpt>
      <trkpt lat="42.7858" lon="0.38071">
        <ele>1732.91</ele>
        <time>2014-03-17T11:43:18Z</time>
      </trkpt>
      <trkpt lat="42.78591" lon="0.38069">
        <ele>1728.59</ele>
        <time>2014-03-17T11:43:19Z</time>
      </trkpt>
      <trkpt lat="42.78601" lon="0.38066">
        <ele>1725.22</ele>
        <time>2014-03-17T11:43:20Z</time>
      </trkpt>
      <trkpt lat="42.78611" lon="0.3807">
        <ele>1720.42</ele>
        <time>2014-03-17T11:43:21Z</time>
      </trkpt>
      <trkpt lat="42.78628" lon="0.38082">
        <ele>1714.17</ele>
        <time>2014-03-17T11:43:23Z</time>
      </trkpt>
      <trkpt lat="42.78639" lon="0.38081">
        <ele>1710.8</ele>
        <time>2014-03-17T11:43:24Z</time>
      </trkpt>
      <trkpt lat="42.7865" lon="0.38083">
        <ele>1707.92</ele>
        <time>2014-03-17T11:43:25Z</time>
      </trkpt>
      <trkpt lat="42.78661" lon="0.38082">
        <ele>1704.55</ele>
        <time>2014-03-17T11:43:26Z</time>
      </trkpt>
      <trkpt lat="42.78692" lon="0.38084">
        <ele>1694.46</ele>
        <time>2014-03-17T11:43:29Z</time>
      </trkpt>
      <trkpt lat="42.78701" lon="0.38088">
        <ele>1690.62</ele>
        <time>2014-03-17T11:43:30Z</time>
      </trkpt>
      <trkpt lat="42.78711" lon="0.38086">
        <ele>1687.25</ele>
        <time>2014-03-17T11:43:31Z</time>
      </trkpt>
      <trkpt lat="42.78736" lon="0.38094">
        <ele>1681.96</ele>
        <time>2014-03-17T11:43:34Z</time>
      </trkpt>
      <trkpt lat="42.78753" lon="0.38088">
        <ele>1677.64</ele>
        <time>2014-03-17T11:43:36Z</time>
      </trkpt>
      <trkpt lat="42.78789" lon="0.38082">
        <ele>1669.47</ele>
        <time>2014-03-17T11:43:40Z</time>
      </trkpt>
      <trkpt lat="42.78807" lon="0.38075">
        <ele>1665.14</ele>
        <time>2014-03-17T11:43:42Z</time>
      </trkpt>
      <trkpt lat="42.78825" lon="0.38077">
        <ele>1661.3</ele>
        <time>2014-03-17T11:43:44Z</time>
      </trkpt>
      <trkpt lat="42.78838" lon="0.38065">
        <ele>1656.97</ele>
        <time>2014-03-17T11:43:46Z</time>
      </trkpt>
      <trkpt lat="42.78852" lon="0.38052">
        <ele>1653.12</ele>
        <time>2014-03-17T11:43:48Z</time>
      </trkpt>
      <trkpt lat="42.7887" lon="0.38025">
        <ele>1649.76</ele>
        <time>2014-03-17T11:43:51Z</time>
      </trkpt>
      <trkpt lat="42.78887" lon="0.38011">
        <ele>1646.4</ele>
        <time>2014-03-17T11:43:53Z</time>
      </trkpt>
      <trkpt lat="42.78895" lon="0.38004">
        <ele>1645.43</ele>
        <time>2014-03-17T11:43:54Z</time>
      </trkpt>
      <trkpt lat="42.78913" lon="0.3799">
        <ele>1642.55</ele>
        <time>2014-03-17T11:43:56Z</time>
      </trkpt>
      <trkpt lat="42.78943" lon="0.37995">
        <ele>1637.74</ele>
        <time>2014-03-17T11:44:00Z</time>
      </trkpt>
      <trkpt lat="42.7895" lon="0.37995">
        <ele>1637.74</ele>
        <time>2014-03-17T11:44:01Z</time>
      </trkpt>
      <trkpt lat="42.78975" lon="0.37993">
        <ele>1637.74</ele>
        <time>2014-03-17T11:44:10Z</time>
      </trkpt>
      <trkpt lat="42.78981" lon="0.37996">
        <ele>1637.74</ele>
        <time>2014-03-17T11:44:22Z</time>
      </trkpt>
      <trkpt lat="42.78984" lon="0.37997">
        <ele>1636.78</ele>
        <time>2014-03-17T11:44:38Z</time>
      </trkpt>
      <trkpt lat="42.78987" lon="0.37996">
        <ele>1636.78</ele>
        <time>2014-03-17T11:44:49Z</time>
      </trkpt>
      <trkpt lat="42.78988" lon="0.37996">
        <ele>1636.3</ele>
        <time>2014-03-17T11:45:07Z</time>
      </trkpt>
      <trkpt lat="42.78987" lon="0.37995">
        <ele>1635.82</ele>
        <time>2014-03-17T11:45:15Z</time>
      </trkpt>
    </trkseg>
  </trk>
</gpx>